     2              OBSERVATION DATA    G (GPS)             RINEX VERSION / TYPE
ASRINEXO V2.9.7 UX USGS/MENLO_PARK 23-JUL-01 17:12          PGM / RUN BY / DATE
                                                            COMMENT
National Earthquake Hazard Reduction Program                COMMENT
Crustal Strain Project                                      COMMENT
345 Middlefield Road, MS/977                                COMMENT
U.S. Geological Survey, Menlo Park, California 94025        COMMENT
Contact: kwendt@usgs.gov (Ph: 650-329-4866)                 COMMENT
HI's are vertical to base of antenna                        COMMENT
BIT 2 OF LLI (+4) FLAGS DATA COLLECTED UNDER "AS" CONDITION COMMENT
941v 941_9750_V_1985_NOS                                    MARKER NAME
JMS                                                         OBSERVER / AGENCY
LP03360 ASHTECH Z-XII3 CC00                                 REC # / TYPE / VERS
CR14244 ASH700936D_M NONE                                   ANT # / TYPE
 -2677351.0000 -3942428.0000  4224817.0000                  APPROX POSITION XYZ
        1.4155        0.0000        0.0000                  ANTENNA: DELTA H/E/N
     1     1                                                WAVELENGTH FACT L1/2
     5    C1    L1    L2    P1    P2                        # / TYPES OF OBSERV
    30                                                      INTERVAL
  2001     7    19    16     3   30.000000                  TIME OF FIRST OBS
                                                            END OF HEADER
 01  7 19 16  3 30.0000000  0  9 10 17 30 18 26 23 06 15 22
  23862475.272      342799.893 8    248797.59345  23862474.973    23862483.7114
  20743028.707     -139529.620 9   -103878.98647  20743028.330    20743035.1484
  24495002.096      364212.693 8    271092.97945  24495003.082    24495013.2014
  22164985.176     -371829.024 8   -272194.82047  22164985.200    22164991.6664
  22695080.105     -238615.639 8   -177508.25046  22695078.544    22695086.3554
  21173145.707                                    21173147.835    21173140.7564
  20702635.229       94533.061 9     69899.62548  20702634.804    20702641.1064
  21373493.615     -251940.150 9   -188467.28047  21373492.679    21373499.8384
  23015580.930     -150174.299 8   -107856.45146  23015579.736    23015586.8614
 01  7 19 16  4  0.0000000  0  9 10 17 30 18 26 23 06 15 22
  23752147.707     -236976.977 8   -202976.66345  23752147.081    23752155.8724
  20608364.009     -847198.544 9   -655309.31647  20608363.447    20608370.2694
  24386166.736     -207721.767 7   -174570.44945  24386167.768    24386177.1414
  22018117.616    -1143623.444 8   -873593.03947  22018117.575    22018124.0384
  22554928.555     -975110.380 8   -751400.22646  22554928.188    22554936.1544
  21034055.667                                    21034057.595    21034160.9224
  20579851.356     -550699.498 9   -432879.02548  20579851.136    20579857.4344
  21233205.122     -989160.079 8   -762924.35847  21233204.389    21233211.5694
  22880780.736     -858552.270 8   -659839.29246  22880779.816    22880787.2084
 01  7 19 16  4 30.0000000  0  9 10 17 30 18 26 23 06 15 22
  23771656.444     -134459.989 7   -123093.37345  23771655.425    23771664.1634
  20603553.663     -872477.005 9   -675006.82448  20603553.147    20603559.9434
  24407134.013      -97539.271 7    -88714.18745  24407134.772    24407144.6264
  22001117.412    -1232960.552 8   -943206.33747  22001117.293    22001123.7484
  22544674.472    -1028993.375 8   -793386.91246  22544674.486    22544682.5794
  21024857.063                                    21024858.973    21024850.8204
  20586955.906     -513364.524 9   -403786.86948  20586955.757    20586962.0914
  21222769.890    -1043996.882 8   -805654.32447  21222769.273    21222776.4994
  22875891.514     -884244.602 8   -679859.31546  22875890.660    22875898.1444
 01  7 19 16  5  0.0000000  0  9 10 17 30 18 26 23 06 15 22
  23791197.337      -31772.166 7    -43076.97745  23791196.247    23791205.0934
  20598794.350     -897487.368 9   -694495.42248  20598793.912    20598800.6654
  24428099.824       12637.285 7     -2862.54645  24428100.498    24428110.4504
  21984181.077    -1321961.650 8  -1012557.80847  21984180.918    21984187.3104
  22534514.485    -1082384.483 8   -834990.32946  22534514.560    22534522.5444
  21015746.672     -522963.07456                  21015746.541    21015753.4674
  20594145.384     -475583.393 9   -374347.05748  20594145.270    20594151.6104
  21212384.278    -1098573.082 8   -848181.22547  21212383.732    21212390.9444
  22871109.681     -909373.345 8   -699440.18646  22871108.831    22871116.3164
 01  7 19 16  5 30.0000000  0  9 10 17 30 18 26 23 06 15 22
  23810770.245       71084.319 7     37070.88945  23810769.287    23810778.0634
  20594086.125     -922229.336 9   -713774.88048  20594085.711    20594092.3944
  24449064.049      122805.523 7     82982.64745  24449064.705    24449074.7224
  21967309.102    -1410624.608 8  -1081645.78747  21967308.928    21967315.2214
  22524448.521    -1135280.762 8   -876208.14546  22524448.689    22524456.6454
  21006724.662    -1107793.168 9   -559906.79047  21006724.387    21006731.4934
  20601419.839     -437355.901 9   -344559.42948  20601419.774    20601426.1314
  21202048.462    -1152888.163 9   -890504.65547  21202047.948    21202055.1514
  22866435.222     -933938.063 8   -718581.52746  22866434.367    22866441.8814
 01  7 19 16  6  0.0000000  0  9 10 17 30 18 26 23 06 15 22
  23830374.848      174107.715 7    117348.77545  23830373.985    23830382.8634
  20589429.179     -946702.050 9   -732844.53048  20589428.705    20589435.4174
  24470026.011      232963.672 7    168819.94745  24470026.804    24470037.2094
  21950502.027    -1498946.632 8  -1150468.11647  21950501.814    21950508.0284
  22514477.550    -1187678.730 8   -917037.69146  22514477.702    22514485.7294
  20997791.312    -1154738.371 9   -596487.45247  20997791.082    20997798.0604
  20608779.455     -398681.276 9   -314423.38948  20608779.399    20608785.7124
  21191762.653    -1206940.787 9   -932623.57147  21191762.148    21191769.3474
  22861868.428     -957937.069 8   -737282.07646  22861867.568    22861875.1134
 01  7 19 16  6 30.0000000  0  9 10 17 30 18 26 23 06 15 22
  23850010.771      277294.868 7    197754.27745  23850009.792    23850018.8184
  20584823.304     -970906.198 9   -751704.91048  20584822.854    20584829.5664
  24490985.555      343108.426 7    254646.79645  24490986.284    24490997.1364
  21933760.026    -1586926.377 8  -1219023.72847  21933759.804    21933765.9714
  22504601.761    -1239576.333 8   -957477.34046  22504601.978    22504609.9994
  20988946.695    -1201217.354 9   -632704.82547  20988946.435    20988953.3774
  20616224.042     -359560.341 9   -283939.58648  20616223.935    20616230.2114
  21181526.757    -1260731.245 9   -974538.21347  21181526.214    21181533.3924
  22857409.139     -981369.945 8   -755541.45946  22857408.416    22857416.1224
 01  7 19 16  7  0.0000000  0  9 10 17 30 18 26 23 06 15 22
  23869677.557      380643.358 7    278285.50945  23869676.507    23869685.4254
  20580268.447     -994841.797 9   -770356.02848  20580268.077    20580274.7654
  24511942.255      453237.035 7    340461.09045  24511943.084    24511954.1454
  21917083.540    -1674561.895 8  -1287311.10647  21917083.319    21917089.4854
  22494821.879    -1290971.052 8   -997525.12346  22494822.029    22494829.9024
  20980190.955    -1247229.553 9   -668558.47047  20980190.646    20980197.5814
  20623753.507     -319993.170 9   -253108.04948  20623753.423    20623759.6864
  21171340.662    -1314259.579 9  -1016248.58647  21171340.136    21171347.2884
  22853057.695    -1004236.235 8   -773359.35746  22853057.048    22853064.8304
 01  7 19 16  7 30.0000000  0  9 10 17 30 18 26 23 06 15 22
  23889374.209      484150.274 7    358940.17945  23889373.311    23889382.2104
  20575764.738    -1018509.096 9   -788798.08047  20575764.355    20575771.0304
  24532895.598      563346.579 7    426260.54745  24532896.339    24532907.4634
  21900472.870    -1761851.623 8  -1355329.04947  21900472.648    21900478.7654
  22485137.913    -1341860.356 8  -1037179.07146  22485138.073    22485145.9704
  20971524.108    -1292774.390 9   -704047.94147  20971523.766    20971530.7414
  20631367.778     -279980.106 9   -221929.06348  20631367.701    20631373.9434
  21161204.582    -1367525.576 9  -1057754.55047  21161204.013    21161211.0884
  22848814.197    -1026536.005 8   -790735.81446  22848813.575    22848821.3114
 01  7 19 16  8  0.0000000  0  9 10 17 30 18 26 23 06 15 22
  23909100.715      587813.709 8    439716.81145  23909099.934    23909108.7924
  20571312.205    -1041907.677 9   -807030.74348  20571311.777    20571318.4504
  24553844.847      673435.105 7    512043.59345  24553845.685    24553856.7454
  21883928.398    -1848793.224 8  -1423075.71247  21883928.152    21883934.3634
  22475550.774    -1392241.050 8  -1076436.72446  22475550.920    22475558.7894
  20962946.347    -1337850.673 9   -739172.30247  20962946.024    20962952.9844
  20639066.975     -239520.696 9   -190402.28548  20639066.891    20639073.1564
  21151118.430    -1420528.437 8  -1099055.46847  21151117.886    21151124.9774
  22844678.680    -1048268.648 8   -807670.35346  22844678.048    22844685.7404
 01  7 19 16  8 30.0000000  0  9 10 17 30 18 26 23 06 15 22
  23928856.526      691631.012 8    520613.34045  23928855.818    23928864.6504
  20566910.740    -1065037.755 9   -825054.18448  20566910.314    20566916.9894
  24574789.997      783499.487 7    597807.84145  24574790.566    24574801.6624
  21867450.457    -1935384.992 8  -1490549.79247  21867450.249    21867456.5354
  22466060.811    -1442110.990 8  -1115296.37046  22466061.049    22466068.9284
  20954457.885    -1382458.067 9   -773931.29547  20954457.521    20954464.4594
  20646851.010     -198615.399 9   -158528.05648  20646850.923    20646857.2104
  21141082.251    -1473268.148 9  -1140151.33447  21141081.754    21141088.9624
  22840651.207    -1069433.285 8   -824162.31546  22840650.637    22840658.2514
 01  7 19 16  9  0.0000000  0  9 10 17 30 18 26 23 06 15 22
  23948641.148      795599.429 8    601627.61845  23948640.460    23948649.2494
  20562560.279    -1087899.540 9   -842868.56148  20562559.886    20562566.5804
  24595729.649      893537.005 7    683551.14245  24595730.160    24595741.2284
  21851039.422    -2021625.147 8  -1557749.88347  21851039.260    21851045.5854
  22456668.486    -1491467.736 8  -1153756.11246  22456668.702    22456676.4734
  20946058.668    -1426596.221 9   -808324.64247  20946058.306    20946065.2274
  20654719.795     -157264.685 9   -126306.75548  20654719.725    20654726.0164
  21131096.230    -1525744.448 9  -1181041.95247  21131095.827    21131103.0594
  22836731.912    -1090029.539 8   -840211.32846  22836731.240    22836739.0464
 01  7 19 16  9 30.0000000  0  9 10 17 30 18 26 23 06 15 22
  23968454.369      899716.868 8    682758.04945  23968453.595    23968462.1584
  20558261.012    -1110492.578 9   -860473.52748  20558260.612    20558267.3024
  24616664.039     1003545.589 7    769271.92645  24616664.616    24616675.4124
  21834695.796    -2107511.474 8  -1624674.25847  21834695.595    21834701.9924
  22447374.342    -1540308.153 8  -1191813.54146  22447374.576    22447382.3264
  20937749.001    -1470263.867 9   -842351.36347  20937748.648    20937755.5874
  20662673.375     -115468.332 9    -93738.20348  20662673.289    20662679.6394
  21121160.601    -1577956.708 9  -1221726.81547  21121160.195    21121167.3764
  22832920.822    -1110056.674 8   -855816.91246  22832920.238    22832927.9594
 01  7 19 16 10  0.0000000  0  9 10 17 30 18 26 23 06 15 22
  23988294.989     1003980.065 8    764002.04245  23988294.329    23988302.8854
  20554012.721    -1132817.652 9   -877869.69148  20554012.283    20554018.9664
  24637592.094     1113521.664 7    854967.34745  24637592.699    24637603.4664
  21818419.714    -2193042.859 8  -1691322.04847  21818419.523    21818425.9074
  22438178.795    -1588630.782 8  -1229467.49146  22438179.012    22438186.7884
  20929528.786    -1513461.287 9   -876011.67647  20929528.459    20929535.3654
  20670711.620      -73227.076 9    -60822.96948  20670711.554    20670717.9334
  21111275.075    -1629905.573 9  -1262206.44447  21111274.639    21111281.8324
  22829218.126    -1129515.651 8   -870979.76546  22829217.412    22829225.0134
 01  7 19 16 10 30.0000000  0  9 10 17 30 18 26 23 06 15 22
  24008163.253     1108388.092 8    845358.89045  24008162.684    24008171.2854
  20549815.614    -1154873.380 9   -895055.98848  20549815.199    20549821.8954
  24658513.743     1223463.924 7    940636.44145  24658514.135    24658524.9584
  21802211.787    -2278216.115 9  -1757690.80347  21802211.593    21802217.9894
  22429082.694    -1636431.545 8  -1266714.78246  22429082.869    22429090.6214
  20921398.551    -1556186.335 9   -909303.90747  20921398.177    20921405.0194
  20678834.799      -30539.736 9    -27560.13148  20678834.721    20678841.1294
  21101440.042    -1681589.004 9  -1302479.25447  21101439.627    21101446.8224
  22825623.757    -1148404.429 8   -885698.28946  22825622.970    22825630.5924
 01  7 19 16 11  0.0000000  0  9 10 17 30 18 26 23 06 15 22
  24028058.451     1212937.128 8    926825.60545  24028057.872    24028066.4194
  20545669.585    -1176661.055 9   -912033.38348  20545669.199    20545675.8864
  24679428.214     1333368.952 7   1026276.47845  24679428.696    24679439.4084
  21786072.112    -2363030.629 8  -1823779.98147  21786071.916    21786078.2634
  22420086.020    -1683709.102 8  -1303554.40246  22420086.218    22420093.9484
  20913357.998    -1598439.694 9   -942228.58847  20913357.624    20913364.4644
  20687042.563       12592.254 9      6049.16048  20687042.478    20687048.8834
  21091655.473    -1733008.205 9  -1342546.13647  21091654.951    21091662.1024
  22822137.589    -1166723.498 8   -899972.91746  22822136.913    22822144.6414
 01  7 19 16 11 30.0000000  0 10 10 17 30 18 26 23 06 15 21 22
  24047979.919     1317623.590 8   1008399.40945  24047979.151    24047987.6764
  20541574.389    -1198181.875 9   -928802.85648  20541573.954    20541580.6224
  24700334.495     1443232.623 7   1111884.31345  24700335.134    24700345.9794
  21770000.994    -2447485.848 8  -1889589.19447  21770000.712    21770006.9674
  22411189.194    -1730462.404 8  -1339985.51046  22411189.436    22411196.9844
  20905407.024    -1640222.119 9   -974786.31147  20905406.658    20905413.5564
  20695334.713       56167.393 9     40003.77648  20695334.608    20695341.0244
  21081920.930    -1784164.069 9  -1382407.84247  21081920.330    21081927.4134
  24911986.684    -1374093.363 7  -1045837.54145  24911986.010    24911999.3394
  22818759.838    -1184473.835 8   -913804.36846  22818759.131    22818766.9074
 01  7 19 16 12  0.0000000  0 10 10 17 30 18 26 23 06 15 21 22
  24067926.908     1422444.651 8   1090078.09045  24067926.002    24067934.6614
  20537529.880    -1219436.012 9   -945364.51948  20537529.414    20537536.1134
  24721232.511     1553052.195 7   1197457.77245  24721233.147    24721244.1434
  21753998.343    -2531580.134 8  -1955117.17547  21753998.081    21754004.3134
  22402392.604    -1776689.028 8  -1376006.21146  22402392.786    22402400.3074
  20897545.855    -1681533.001 9  -1006976.59047  20897545.490    20897552.3444
  20703711.030      100185.140 9     74303.28048  20703710.919    20703717.3894
  21072236.404    -1835056.553 9  -1422064.30647  21072235.805    21072242.9024
  24892978.911    -1473979.905 7  -1123671.13745  24892978.689    24892991.6114
  22815490.304    -1201655.548 8   -927192.74346  22815489.565    22815497.3894
 01  7 19 16 12 30.0000000  0 10 10 17 30 18 26 23 06 15 21 22
  24087899.827     1527402.327 8   1171863.22545  24087898.905    24087907.5494
  20533536.914    -1240418.992 9   -961714.90148  20533536.498    20533543.2024
  24742122.126     1662829.410 7   1282998.22045  24742123.024    24742134.2264
  21738065.566    -2615307.319 8  -2020359.10747  21738065.301    21738071.5184
  22393697.467    -1822382.344 8  -1411611.36346  22393697.646    22393705.2264
  20889775.277    -1722367.552 9  -1038795.71347  20889774.920    20889781.7734
  20712172.363      144649.663 9    108950.92548  20712172.271    20712178.7514
  21062602.876    -1885680.945 9  -1461511.87647  21062602.284    21062609.3964
  24873990.712    -1573764.999 7  -1201425.72145  24873990.335    24874003.1264
  22812329.751    -1218264.257 8   -940134.62246  22812329.123    22812336.9024
 01  7 19 16 13  0.0000000  0 10 10 17 30 18 26 23 06 15 21 22
  24107897.864     1632492.306 8   1253751.44845  24107896.970    24107905.6744
  20529595.179    -1261132.809 9   -977855.53548  20529594.797    20529601.4974
  24763003.312     1772559.950 7   1368502.33245  24763003.999    24763015.5044
  21722202.604    -2698667.439 8  -2085315.00647  21722202.362    21722208.6134
  22385103.788    -1867541.593 8  -1446800.35346  22385104.005    22385111.7284
  20882095.080    -1762727.180 9  -1070244.75847  20882094.717    20882101.6384
  20720718.353      189558.750 9    143944.97948  20720718.265    20720724.7354
  21053020.163    -1936038.833 9  -1500751.77547  21053019.518    21053026.6454
  24855021.645    -1673448.728 7  -1279101.30845  24855021.256    24855033.7894
  22809278.103    -1234301.184 8   -952630.93646  22809277.435    22809285.2134
 01  7 19 16 13 30.0000000  0 10 10 17 30 18 26 23 06 15 21 22
  24127920.665     1737712.656 7   1335741.26745  24127919.750    24127928.5194
  20525704.871    -1281576.986 9   -993786.06148  20525704.421    20525711.1474
  24783874.842     1882241.621 7   1453968.31345  24783875.740    24783887.4594
  21706409.947    -2781658.258 8  -2149983.14347  21706409.695    21706415.9674
  22376612.485    -1912164.084 8  -1481571.08846  22376612.673    22376620.2784
  20874505.392    -1802611.127 9  -1101323.14847  20874505.051    20874511.9574
  20729348.957      234912.649 9    179285.63548  20729348.860    20729355.3134
  21043488.188    -1986129.411 9  -1539783.38547  21043487.577    21043494.7594
  24836072.455    -1773029.211 7  -1356696.43645  24836071.894    24836084.1544
  22806335.426    -1249765.408 8   -964680.99346  22806334.783    22806342.5544
 01  7 19 16 14  0.0000000  0 10 10 17 30 18 26 23 06 15 21 22
  24147967.695     1843060.305 7   1417830.26245  24147966.770    24147975.5724
  20521865.655    -1301752.171 9  -1009506.98548  20521865.178    20521871.9264
  24804736.392     1991871.214 7   1539393.74245  24804737.537    24804749.4634
  21690687.752    -2864278.757 8  -2214362.72047  21690687.480    21690693.8144
  22368223.584    -1956248.129 8  -1515922.24646  22368223.721    22368231.3204
  20867006.298    -1842019.455 9  -1132030.91947  20867005.892    20867012.8214
  20738064.044      280710.363 9    214972.12948  20738063.947    20738070.3984
  21034007.011    -2035953.069 9  -1578607.00247  21034006.440    21034013.6324
  24817142.553    -1872505.726 7  -1434210.54445  24817142.250    24817154.0834
  22803501.533    -1264657.506 8   -976285.24846  22803500.945    22803508.6714
 01  7 19 16 14 30.0000000  0  9 10 17 18 26 23 06 15 21 22
  24168038.506     1948532.228 7   1500016.12145  24168037.547    24168046.3524
  20518077.419    -1321659.115 9  -1025018.88748  20518076.991    20518083.7574
  21675036.229    -2946527.854 8  -2278452.89347  21675035.935    21675042.3224
  22359937.353    -1999791.978 8  -1549852.48646  22359937.547    22359945.2034
  20859597.628    -1880952.407 9  -1162368.27147  20859597.231    20859604.1114
  20746863.351      326950.850 9    251003.63248  20746863.245    20746869.6744
  21024576.620    -2085510.114 9  -1617222.86247  21024576.059    21024583.2174
  24798233.030    -1971877.235 7  -1511642.83345  24798232.770    24798244.2794
  22800776.324    -1278978.475 8   -987444.46646  22800775.761    22800783.5184
 01  7 19 16 15  0.0000000  0  9 10 17 18 26 23 06 15 21 22
  24188133.077     2054129.195 8   1582299.37645  24188131.984    24188140.9054
  20514340.934    -1341294.407 9  -1040319.12048  20514340.528    20514347.2624
  21659456.499    -3028400.298 8  -2342249.57247  21659456.121    21659462.4824
  22351755.086    -2042789.982 8  -1583357.39046  22351755.221    22351762.9344
  20852280.187    -1919406.138 9  -1192332.21047  20852279.757    20852286.5684
  20755747.539      373637.102 9    287382.48548  20755747.425    20755753.8664
  21015197.783    -2134796.743 9  -1655628.01847  21015197.152    21015204.2624
  24779344.446    -2071139.144 7  -1588989.71545  24779344.067    24779355.5634
  22798160.465    -1292724.766 8   -998155.88046  22798159.902    22798167.7314
 01  7 19 16 15 30.0000000  0  9 10 17 18 26 23 06 15 21 22
  24208249.919     2159843.942 7   1664674.44345  24208248.908    24208257.8824
  20510655.234    -1360662.989 9  -1055411.52248  20510654.829    20510661.5234
  21643947.735    -3109899.375 9  -2405755.31247  21643947.357    21643953.6834
  22343676.278    -2085244.789 8  -1616439.03146  22343676.435    22343683.9514
  20845053.114    -1957385.064 9  -1221926.16447  20845052.640    20845059.4234
  20764715.546      420763.878 9    324104.60748  20764715.417    20764721.8564
  21005869.378    -2183817.843 9  -1693826.26847  21005868.760    21005875.8574
  24760475.677    -2170294.182 7  -1666253.32345  24760475.320    24760486.9954
  22795653.189    -1305900.587 8  -1008422.78146  22795652.598    22795660.4554
 01  7 19 16 16  0.0000000  0  9 10 17 18 26 23 06 15 21 22
  24228389.002     2265675.835 7   1747140.75545  24228388.076    24228397.1564
  20507020.690    -1379763.215 9  -1070294.81448  20507020.255    20507026.8974
  21628510.634    -3191021.654 8  -2468967.44047  21628510.274    21628516.5884
  22335701.523    -2127152.394 8  -1649094.28046  22335701.626    22335709.2424
  20837916.703    -1994887.151 9  -1251148.55847  20837916.251    20837923.0324
  20773767.588      468332.601 9    361171.11148  20773767.480    20773773.9474
  20996591.862    -2232571.747 9  -1731816.30347  20996591.222    20996598.2774
  24741627.980    -2269339.175 7  -1743431.20145  24741627.658    24741639.4214
  22793254.841    -1318504.141 8  -1018243.73346  22793254.229    22793262.1004
 01  7 19 16 16 30.0000000  0  9 10 17 18 26 23 06 15 21 22
  24248550.319     2371623.161 7   1829697.04645  24248549.229    24248558.2284
  20503437.293    -1398594.518 9  -1084968.55948  20503436.826    20503443.4454
  21613145.666    -3271764.929 9  -2531884.24547  21613145.361    21613151.6054
  22327831.400    -2168510.184 8  -1681321.11746  22327831.543    22327839.1754
  20830871.165    -2031911.566 9  -1279998.73847  20830870.728    20830877.4884
  20782903.738      516343.369 9    398582.05948  20782903.635    20782910.1504
  20987365.384    -2281057.567 9  -1769597.45147  20987364.710    20987371.7024
  24722801.628    -2368272.102 7  -1820521.73945  24722801.401    24722813.1174
  22790965.441    -1330535.131 8  -1027618.55346  22790964.803    22790972.6614
 01  7 19 16 17  0.0000000  0  9 10 17 18 26 23 06 15 21 22
  24268732.590     2477681.831 7   1912340.07045  24268731.577    24268740.6524
  20499904.705    -1417158.245 9  -1099433.80848  20499904.272    20499910.8664
  21597852.926    -3352128.908 9  -2594505.48647  21597852.618    21597858.8144
  22320066.173    -2209316.979 8  -1713118.58746  22320066.309    22320073.9024
  20823916.402    -2068459.221 9  -1308477.42347  20823915.953    20823922.6784
  20792123.724      564794.400 9    436336.08248  20792123.622    20792130.1304
  20978189.599    -2329276.374 9  -1807170.52947  20978188.962    20978195.9174
  24703996.540    -2467092.971 7  -1897524.98345  24703996.380    24704008.3494
  22788784.868    -1341995.336 8  -1036548.60646  22788784.063    22788791.8794
 01  7 19 16 17 30.0000000  0  9 10 17 18 26 23 06 15 21 22
  24288935.795     2583851.239 7   1995069.45845  24288934.980    24288944.1574
  20496423.350    -1435452.932 9  -1113689.41448  20496422.952    20496429.5204
  21582633.045    -3432110.222 9  -2656828.55047  21582632.704    21582638.8544
  22312406.418    -2249569.445 8  -1744484.12346  22312406.423    22312414.1134
  20817052.683    -2104528.217 9  -1336583.11947  20817052.245    20817059.0004
  20801427.670      613686.728 9    474433.96047  20801427.541    20801434.0744
  20969065.063    -2377226.079 9  -1844533.92447  20969064.439    20969071.3924
  24685213.824    -2565798.267 7  -1974438.13945  24685213.422    24685225.2584
  22786713.053    -1352882.715 8  -1045032.30746  22786712.357    22786720.1754
 01  7 19 16 18  0.0000000  0  9 10 17 18 26 23 06 15 21 22
  24309159.528     2690127.922 7   2077882.37045  24309158.730    24309168.0344
  20492992.976    -1453479.998 9  -1127736.48248  20492992.516    20492999.0714
  21567485.984    -3511708.667 9  -2718853.26747  21567485.610    21567491.7184
  22304852.139    -2289266.331 8  -1775416.74846  22304852.272    22304860.0154
  20810279.831    -2140119.716 9  -1364316.74247  20810279.393    20810286.1444
  20810815.273      663018.535 9    512874.29847  20810815.122    20810821.6244
  20959991.512    -2424907.655 9  -1881688.38347  20959990.940    20959997.8974
  24666452.995    -2664388.058 7  -2051261.29545  24666452.411    24666464.0794
  22784750.181    -1363198.267 8  -1053070.43446  22784749.516    22784757.2604
 01  7 19 16 18 30.0000000  0  9 10 17 18 26 23 06 15 21 22
  24329403.776     2796510.882 7   2160778.10545  24329402.905    24329412.1894
  20489613.832    -1471237.708 9  -1141573.66648  20489613.386    20489619.9164
  21552412.329    -3590921.092 9  -2780577.18947  21552411.966    21552418.0604
  22297404.570    -2328404.184 8  -1805913.75246  22297404.648    22297412.2584
  20803598.212    -2175231.866 9  -1391676.84347  20803597.759    20803604.4954
  20820286.674      712790.814 9    551657.86047  20820286.506    20820293.0064
  20950969.332    -2472319.521 9  -1918632.68447  20950968.736    20950975.7174
  24647714.417    -2762859.499 7  -2127992.22645  24647713.823    24647725.4244
  22782896.301    -1372940.572 8  -1060661.85946  22782895.660    22782903.4084
 01  7 19 16 19  0.0000000  0  9 10 17 18 26 23 06 15 21 22
  24349667.485     2902996.802 7   2243754.11545  24349666.756    24349675.8104
  20486285.831    -1488726.982 9  -1155201.68048  20486285.350    20486291.8824
  21537412.308    -3669746.388 9  -2841999.45547  21537411.970    21537418.1364
  22290063.601    -2366981.627 8  -1835974.07146  22290063.670    22290071.2714
  20797007.703    -2209865.092 9  -1418663.76347  20797007.272    20797014.0524
  20829841.633      763002.341 9    590783.69447  20829841.471    20829847.9634
  20941998.373    -2519462.306 9  -1955367.30847  20941997.786    20942004.7334
  24628998.383    -2861211.498 7  -2204630.07345  24628997.661    24629009.3594
  22781151.136    -1382110.971 8  -1067807.64746  22781150.598    22781158.3734
 01  7 19 16 19 30.0000000  0  9 10 17 18 26 23 06 15 21 22
  24369950.288     3009583.571 7   2326808.65045  24369949.475    24369958.7414
  20483008.807    -1505947.650 9  -1168620.39148  20483008.358    20483014.8804
  21522486.289    -3748183.029 9  -2903118.87447  21522485.983    21522492.1644
  22282829.649    -2404996.354 8  -1865595.91546  22282829.668    22282837.2194
  20790508.440    -2244018.933 9  -1445277.14047  20790508.001    20790514.8014
  20839480.131      813652.974 9    630251.68247  20839480.018    20839486.4744
  20933078.649    -2566335.376 9  -1991891.76947  20933078.101    20933085.0704
  24610305.198    -2959442.141 7  -2281173.40245  24610304.800    24610316.5504
  22779514.971    -1390709.466 8  -1074507.80246  22779514.341    22779522.1544
 01  7 19 16 20  0.0000000  0  9 10 17 18 26 23 06 15 21 22
  24390251.811     3116268.740 7   2409939.89345  24390251.050    24390260.3724
  20479782.927    -1522899.647 9  -1181829.74548  20479782.482    20479789.0274
  21507634.566    -3826229.380 9  -2963934.17247  21507634.225    21507640.3924
  22275703.121    -2442446.201 8  -1894777.60646  22275703.192    22275710.7114
  20784100.476    -2277693.135 9  -1471516.76748  20784100.047    20784106.8414
  20849202.119      864742.306 9    670061.52047  20849202.038    20849208.4974
  20924210.382    -2612938.259 9  -2028205.69047  20924209.831    20924216.8454
  24591635.707    -3057549.879 7  -2357620.94245  24591635.436    24591647.2714
  22777987.690    -1398735.469 8  -1080761.85046  22777986.958    22777994.8764
 01  7 19 16 20 30.0000000  0  9 10 17 18 26 23 06 15 21 22
  24410571.785     3223050.544 7   2493146.42245  24410570.963    24410580.2054
  20476608.339    -1539582.609 9  -1194829.46148  20476607.859    20476614.3924
  21492857.541    -3903883.262 9  -3024443.64947  21492857.195    21492863.2874
  22268684.616    -2479328.877 8  -1923517.33746  22268684.660    22268692.1554
  20777783.886    -2310887.120 9  -1497382.20048  20777783.480    20777790.2574
  20859007.595      916270.003 9    710212.93947  20859007.469    20859013.9364
  20915393.817    -2659270.294 9  -2064308.55647  20915393.214    20915400.1524
  24572989.524    -3155533.513 7  -2433971.75145  24572989.554    24573001.6214
  22776569.360    -1406188.664 8  -1086569.55246  22776568.759    22776576.6244
 01  7 19 16 21  0.0000000  0  9 10 17 18 26 23 06 15 21 22
  24430909.345     3329925.154 7   2576425.26445  24430908.594    24430917.8424
  20473484.584    -1555998.214 9  -1207620.84548  20473484.092    20473490.6244
  21478155.140    -3981145.020 9  -3084647.57147  21478154.753    21478160.8144
  22261774.056    -2515643.960 8  -1951814.77146  22261774.124    22261781.5394
  20771558.406    -2343602.364 9  -1522874.58748  20771558.000    20771564.7254
  20868896.065      968233.879 9    750704.24847  20868895.934    20868902.3644
  20906628.353    -2705333.273 9  -2100201.76847  20906627.733    20906634.6354
  24554367.722    -3253392.730 7  -2510225.64345  24554367.515    24554379.5594
  22775259.900    -1413071.251 8  -1091932.62646  22775259.146    22775266.9514
 01  7 19 16 21 30.0000000  0  9 10 17 18 26 23 06 15 21 22
  24451264.578     3436891.941 7   2659775.91745  24451263.782    24451273.0774
  20470412.019    -1572144.588 9  -1220202.44048  20470411.509    20470418.0824
  21463527.933    -4058011.069 9  -3144543.14847  21463527.589    21463533.6924
  22254972.223    -2551387.552 8  -1979666.90146  22254972.333    22254979.7034
  20765424.432    -2375836.893 9  -1547992.39448  20765424.016    20765430.6804
  20878867.832     1020635.339 9    791536.52547  20878867.691    20878874.1154
  20897914.456    -2751125.050 9  -2135883.65447  20897913.855    20897920.7424
  24535770.309    -3351124.248 7  -2586380.01945  24535769.760    24535781.9294
  22774058.939    -1419381.918 8  -1096850.05446  22774058.287    22774066.0404
 01  7 19 16 22  0.0000000  0  9 10 17 18 26 23 06 15 21 22
  24471636.798     3543947.252 7   2743195.57945  24471635.939    24471645.1094
  20467390.345    -1588023.063 9  -1232575.28548  20467389.921    20467396.5564
  21448976.159    -4134481.150 9  -3204130.18647  21448975.833    21448981.8724
  22248279.295    -2586558.999 8  -2007073.18446  22248279.406    22248286.8394
  20759381.748    -2407591.464 9  -1572736.20448  20759381.319    20759388.0074
  20888922.490     1073472.664 9    832708.43247  20888922.350    20888928.8074
  20889252.078    -2796646.262 9  -2171354.70947  20889251.462    20889258.3494
  24517196.856    -3448727.759 7  -2662434.63945  24517196.478    24517208.3784
  22772966.696    -1425121.752 8  -1101322.67746  22772966.094    22772973.7184
 01  7 19 16 22 30.0000000  0  9 10 17 18 26 23 06 15 21 22
  24492025.411     3651089.607 7   2826683.05645  24492024.494    24492033.7484
  20464419.950    -1603632.938 9  -1244738.83348  20464419.477    20464426.1624
  21434500.163    -4210552.994 9  -3263406.90547  21434499.815    21434505.8314
  22241695.908    -2621155.567 8  -2034031.51546  22241695.994    22241703.3334
  20753430.511    -2438865.380 9  -1597105.48448  20753430.079    20753436.7464
  20899060.055     1126745.866 9    874219.98847  20899059.912    20899066.4444
  20880641.412    -2841896.227 9  -2206614.40447  20880640.703    20880647.5724
  24498648.009    -3546201.203 7  -2738387.90345  24498647.819    24498659.6374
  22771983.349    -1430290.037 8  -1105349.92446  22771982.665    22771990.1474
 01  7 19 16 23  0.0000000  0  9 10 17 18 26 23 06 15 21 22
  24512430.193     3758316.337 7   2910236.24745  24512429.068    24512438.4634
  20461500.499    -1618974.755 9  -1256693.49748  20461500.018    20461506.7264
  21420100.115    -4286225.366 9  -3322372.35247  21420099.764    21420105.8184
  22235222.046    -2655175.903 8  -2060540.83646  22235222.096    22235229.5304
  20747570.706    -2469659.030 9  -1621100.52548  20747570.246    20747576.9074
  20909280.343     1180453.880 9    916070.34647  20909280.237    20909286.7874
  20872082.166    -2886875.244 9  -2241662.97647  20872081.459    20872088.3944
  24480124.693    -3643543.208 7  -2814238.76945  24480124.402    24480135.7544
  22771108.550    -1434887.483 8  -1108932.35746  22771107.800    22771115.3224
 01  7 19 16 23 30.0000000  0  9 10 17 18 26 23 06 15 21 22
  24532850.648     3865626.422 7   2993854.43945  24532849.581    24532858.9004
  20458632.356    -1634046.864 9  -1268438.00048  20458631.884    20458638.6174
  21405776.598    -4361495.339 9  -3381024.24347  21405776.300    21405782.4104
  22228858.381    -2688616.630 8  -2086598.51546  22228858.482    22228865.9854
  20741802.513    -2499970.951 9  -1644720.19248  20741802.059    20741808.7544
  20919583.510     1234597.348 9    958260.03247  20919583.404    20919589.9764
  20863574.797    -2931581.430 9  -2276498.95347  20863574.098    20863581.1234
  24461626.422    -3740751.174 7  -2889985.15845  24461626.359    24461637.3814
  22770342.477    -1438913.522 8  -1112069.55246  22770341.611    22770349.2754
 01  7 19 16 24  0.0000000  0  9 10 17 18 26 23 06 15 21 22
  24553286.008     3973015.952 7   3077534.53945  24553285.144    24553294.4094
  20455815.297    -1648851.040 9  -1279973.71948  20455814.764    20455821.5204
  21391529.663    -4436363.319 9  -3439362.88847  21391529.362    21391535.4494
  22222605.153    -2721477.418 8  -2112204.29246  22222605.310    22222612.7564
  20736125.673    -2529802.626 9  -1667965.63948  20736125.219    20736131.9884
  20929969.165     1289174.117 9   1000787.35847  20929969.024    20929975.6454
  20855119.017    -2976016.246 9  -2311123.46747  20855118.372    20855125.4344
  24443153.943    -3837825.232 7  -2965627.22045  24443153.787    24443164.5294
  22769684.707    -1442369.974 8  -1114762.90746  22769683.856    22769691.5874
 01  7 19 16 24 30.0000000  0  9 10 17 18 26 23 06 15 21 22
  24573736.351     4080483.695 7   3161275.56745  24573735.637    24573744.8304
  20453049.224    -1663386.477 9  -1291300.02948  20453048.779    20453055.5144
  21377359.772    -4510826.594 9  -3497386.18647  21377359.432    21377365.5324
  22216462.780    -2753755.669 8  -2137356.14446  22216462.923    22216470.4074
  20730540.452    -2559153.206 9  -1690836.20748  20730539.996    20730546.7674
  20940437.307     1344184.395 9   1043652.47647  20940437.157    20940443.7864
  20846715.192    -3020178.838 9  -2345535.85747  20846714.510    20846721.5674
  24424707.624    -3934762.998 7  -3041163.05745  24424707.207    24424717.6994
  22769135.330    -1445255.971 8  -1117011.75546  22769134.706    22769142.4814
 01  7 19 16 25  0.0000000  0  9 10 17 18 26 23 06 15 21 22
  24594201.237     4188027.263 7   3245075.63845  24594200.629    24594209.8434
  20450334.329    -1677653.356 9  -1302417.07348  20450333.868    20450340.5724
  21363266.979    -4584884.260 9  -3555093.42247  21363266.698    21363272.8124
  22210431.435    -2785449.695 8  -2162052.74346  22210431.589    22210439.2154
  20725046.736    -2588022.607 9  -1713331.83348  20725046.309    20725053.0794
  20950987.696     1399627.342 9   1086854.73447  20950987.583    20950994.2064
  20838363.154    -3064069.013 9  -2379735.97947  20838362.462    20838369.5364
  24406287.347    -4031562.984 7  -3116591.57045  24406287.009    24406297.2394
  22768694.652    -1447571.795 8  -1118816.31546  22768694.091    22768701.9394
 01  7 19 16 25 30.0000000  0  9 10 17 18 26 23 06 15 21 22
  24614680.178     4295644.621 7   3328933.23745  24614679.512    24614688.8374
  20447670.580    -1691651.471 9  -1313324.69048  20447670.113    20447676.8064
  21349251.872    -4658534.535 9  -3612483.20647  21349251.580    21349257.6184
  22204511.742    -2816557.563 8  -2186292.62046  22204511.877    22204519.4474
  20719644.634    -2616410.730 9  -1735452.43848  20719644.229    20719651.0134
  20961620.428     1455502.447 9   1130393.73747  20961620.282    20961626.9264
  20830063.058    -3107686.348 9  -2413723.50547  20830062.368    20830069.4864
  24387893.584    -4128223.703 7  -3191911.54445  24387893.103    24387903.2164
  22768362.373    -1449318.051 8  -1120177.06246  22768361.781    22768369.7344
 01  7 19 16 26  0.0000000  0  9 10 17 18 26 23 06 15 21 22
  24635172.774     4403332.711 7   3412845.96245  24635172.035    24635181.0454
  20445057.797    -1705381.448 9  -1324023.36748  20445057.341    20445064.0654
  21335314.488    -4731776.410 9  -3669554.76247  21335314.179    21335320.1464
  22198703.908    -2847077.876 8  -2210074.64046  22198704.117    22198711.6764
  20714334.047    -2644318.191 9  -1757198.50448  20714333.635    20714340.4004
  20972335.119     1511808.538 9   1174268.57047  20972334.985    20972341.6444
  20821814.815    -3151031.008 9  -2447498.54747  20821814.148    20821821.2754
  24369526.338    -4224744.234 7  -3267122.26745  24369525.878    24369535.8394
  22768138.281    -1450496.129 8  -1121095.06246  22768137.546    22768145.6164
 01  7 19 16 26 30.0000000  0  9 10 17 18 26 23 06 15 21 22
  24655678.371     4511089.851 7   3496812.48745  24655677.560    24655686.6564
  20442496.268    -1718842.566 9  -1334512.54548  20442495.785    20442502.5324
  21321455.139    -4804607.821 9  -3726306.47347  21321454.794    21321460.7844
  22193008.394    -2877008.439 8  -2233397.12146  22193008.540    22193016.0774
  20709115.048    -2671744.130 9  -1778569.35848  20709114.618    20709121.3614
  20983131.840     1568545.521 9   1218479.16047  20983131.680    20983138.4124
  20813618.660    -3194101.991 9  -2481060.34147  20813618.042    20813625.1314
  24351186.018    -4321122.317 7  -3342221.98945  24351185.535    24351195.4864
  22768022.372    -1451105.346 8  -1121569.79646  22768021.567    22768029.7344
 01  7 19 16 27  0.0000000  0  9 10 17 18 26 23 06 15 21 22
  24676196.714     4618913.845 7   3580831.09145  24676195.815    24676205.1364
  20439985.869    -1732034.941 9  -1344792.31348  20439985.363    20439992.1094
  21307674.106    -4877027.548 9  -3782737.39347  21307673.754    21307679.7434
  22187425.164    -2906347.654 8  -2256258.81746  22187425.375    22187432.9524
  20703987.624    -2698688.788 9  -1799565.18748  20703987.198    20703993.9474
  20994010.345     1625712.579 9   1263024.87747  20994010.219    20994016.9624
  20805474.533    -3236899.356 9  -2514408.91647  20805473.930    20805481.0494
  24332873.293    -4417356.840 7  -3417209.86745  24332872.623    24332882.5784
  22768014.703    -1451145.991 8  -1121601.48846  22768013.852    22768021.9444
 01  7 19 16 27 30.0000000  0  9 10 17 18 26 23 06 15 21 22
  24696727.135     4726802.396 7   3664900.00145  24696726.362    24696735.7974
  20437526.540    -1744958.501 9  -1354862.61348  20437526.085    20437532.8254
  21293971.689    -4949034.026 9  -3838846.30547  21293971.321    21293977.3624
  22181954.985    -2935093.603 8  -2278658.22146  22181955.232    22181962.7204
  20698951.827    -2725151.984 9  -1820185.85348  20698951.434    20698958.1724
  21004970.674     1683309.171 9   1307905.28547  21004970.581    21004977.3304
  20797382.533    -3279422.527 9  -2547543.84347  20797382.002    20797389.1534
  24314587.829    -4513446.139 7  -3492084.55545  24314587.302    24314597.3084
  22768115.063    -1450618.505 8  -1121190.48246  22768114.232    22768122.3654
 01  7 19 16 28  0.0000000  0  9 10 17 18 26 23 06 15 21 22
  24717269.485     4834754.054 7   3749018.08645  24717268.941    24717278.4724
  20435118.533    -1757612.748 9  -1364723.05648  20435118.042    20435124.8104
  21280348.155    -5020625.402 9  -3894631.76647  21280347.802    21280353.9454
  22176598.201    -2963244.170 8  -2300593.70446  22176598.390    22176605.7454
  20694007.788    -2751133.317 9  -1840431.03548  20694007.357    20694014.1054
  21016012.703     1741334.842 9   1353120.04647  21016012.567    21016019.3044
  20789342.842    -3321671.169 9  -2580464.84547  20789342.348    20789349.5074
  24296330.583    -4609388.688 7  -3566844.91445  24296330.121    24296340.2534
  22768323.369    -1449523.315 8  -1120337.11746  22768322.688    22768330.7474
 01  7 19 16 28 30.0000000  0  9 10 17 18 26 23 06 15 21 22
  24737823.336     4942765.433 7   3833182.73045  24737822.872    24737832.4554
  20432761.596    -1769998.572 9  -1374374.34848  20432761.114    20432767.8844
  21266803.749    -5091800.982 9  -3950093.22647  21266803.478    21266809.6174
  22171354.751    -2990798.586 8  -2322064.64946  22171354.910    22171362.3424
  20689155.168    -2776633.845 9  -1860301.56748  20689154.726    20689161.4974
  21027136.047     1799788.013 9   1398667.91847  21027135.917    21027142.6644
  20781355.381    -3363645.555 9  -2613172.13847  20781354.877    20781362.0144
  24278101.520    -4705183.672 7  -3641490.28045  24278101.020    24278111.0514
  22768639.547    -1447862.035 8  -1119042.63046  22768638.839    22768646.9074
 01  7 19 16 29  0.0000000  0  8 17 18 26 23 06 15 21 22
  20430455.867    -1782115.179 9  -1383815.85348  20430455.400    20430462.1814
  21253338.979    -5162558.730 9  -4005229.09747  21253338.690    21253344.8424
  22166225.179    -3017754.544 8  -2343069.27546  22166225.301    22166232.6954
  20684394.232    -2801652.808 9  -1879796.85348  20684393.782    20684400.5564
  21038340.703     1858668.648 9   1444548.87447  21038340.550    21038347.3174
  20773420.387    -3405344.530 9  -2645664.82647  20773419.821    20773426.9394
  24259900.861    -4800828.607 7  -3716018.70945  24259900.261    24259910.7634
  22769063.715    -1445633.846 8  -1117306.42046  22769062.886    22769070.9734
 01  7 19 16 29 30.0000000  0  8 17 18 26 23 06 15 21 22
  20428201.331    -1793963.026 9  -1393047.93548  20428200.861    20428207.6314
  21239953.841    -5232897.685 9  -4060038.63947  21239953.576    21239959.7544
  22161209.881    -3044110.801 8  -2363606.60246  22161209.933    22161217.3114
  20679724.858    -2826190.718 9  -1898917.29248  20679724.405    20679731.1574
  21049626.473     1917975.568 9   1490761.99847  21049626.357    21049633.1204
  20765537.633    -3446768.521 9  -2677943.24247  20765537.098    20765544.2104
  24241728.738    -4896322.707 7  -3790429.60845  24241728.182    24241739.0274
  22769595.356    -1442839.684 8  -1115129.17746  22769594.567    22769602.7424
 01  7 19 16 30  0.0000000  0  8 17 18 26 23 06 15 21 22
  20425997.952    -1805541.968 9  -1402070.48348  20425997.436    20426004.2284
  21226648.708    -5302816.592 9  -4114520.86747  21226648.427    21226654.5984
  22156308.876    -3069865.705 8  -2383675.34346  22156308.976    22156316.3794
  20675146.973    -2850247.617 9  -1917662.91748  20675146.504    20675153.2474
  21060993.193     1977708.033 9   1537306.72747  21060993.038    21060999.8684
  20757707.227    -3487917.253 9  -2710007.17847  20757706.739    20757713.8784
  24223585.544    -4991664.130 7  -3864721.55845  24223585.161    24223596.0624
  22770234.715    -1439480.221 8  -1112511.43846  22770233.905    22770242.0494
 01  7 19 16 30 30.0000000  0  8 17 18 26 23 06 15 21 22
  20423845.570    -1816852.557 9  -1410883.92548  20423845.096    20423851.9044
  21213423.697    -5372314.465 9  -4168675.01947  21213423.403    21213429.5484
  22151522.572    -3095018.215 8  -2403274.69246  22151522.620    22151530.0454
  20670660.536    -2873824.069 9  -1936034.17148  20670660.060    20670666.7884
  21072440.628     2037864.779 9   1584182.05747  21072440.503    21072447.3764
  20749929.232    -3528790.938 9  -2741856.78347  20749928.733    20749935.8854
  24205471.913    -5086852.094 8  -3938893.90245  24205471.591    24205482.2934
  22770981.335    -1435557.019 8  -1109454.43446  22770980.548    22770988.6454
 01  7 19 16 31  0.0000000  0  8 17 18 26 23 06 15 21 22
  20421744.366    -1827894.438 9  -1419487.98848  20421743.901    20421750.7214
  21200279.093    -5441389.777 9  -4222499.90747  21200278.792    21200284.9364
  22146851.102    -3119566.562 8  -2422403.26646  22146851.194    22146858.6164
  20666265.490    -2896919.987 9  -1954030.98248  20666265.002    20666271.8134
  21083968.734     2098445.263 9   1631387.57347  21083968.582    21083975.4964
  20742203.785    -3569388.783 9  -2773491.44947  20742203.231    20742210.3534
  24187387.576    -5181885.613 8  -4012945.89745  24187387.350    24187398.0234
  22771835.267    -1431070.359 8  -1105958.35346  22771834.407    22771842.4174
 01  7 19 16 31 30.0000000  0  8 17 18 26 23 06 15 21 22
  20419694.395    -1838667.242 9  -1427882.37948  20419693.950    20419700.7244
  21187215.328    -5510040.708 9  -4275994.10647  21187214.996    21187221.0864
  22142295.072    -3143508.805 8  -2441059.54646  22142295.158    22142302.5744
  20661961.965    -2919535.101 9  -1971653.14148  20661961.482    20661968.3114
  21095577.441     2159448.960 9   1678922.86947  21095577.296    21095584.2134
  20734530.881    -3609710.317 9  -2804910.81147  20734530.273    20734537.3624
  24169333.365    -5276762.393 8  -4086875.78245  24169332.959    24169343.5524
  22772796.292    -1426019.978 8  -1102023.00646  22772795.452    22772803.4954
 01  7 19 16 32  0.0000000  0  8 17 18 26 23 06 15 21 22
  20417695.604    -1849171.062 9  -1436067.17348  20417695.154    20417701.8914
  21174232.544    -5578266.181 9  -4329156.78947  21174232.144    21174238.1794
  22137854.469    -3166843.719 8  -2459242.59646  22137854.642    22137862.1034
  20657749.794    -2941669.928 9  -1988901.05248  20657749.338    20657756.1984
  21107266.375     2220874.814 9   1726787.11347  21107266.254    21107273.2204
  20726910.573    -3649755.496 9  -2836114.83647  20726909.929    20726917.0024
  24151309.016    -5371481.025 8  -4160682.44545  24151308.667    24151319.2464
  22773864.259    -1420406.633 8  -1097648.99546  22773863.622    22773871.7094
 01  7 19 16 32 30.0000000  0  8 17 18 26 23 06 15 21 22
  20415748.096    -1859405.446 9  -1444042.01548  20415747.622    20415754.3524
  21161330.915    -5646064.368 9  -4381986.51847  21161330.546    21161336.5784
  22133529.969    -3189569.296 8  -2476950.84546  22133530.056    22133537.5404
  20653629.177    -2963324.081 9  -2005774.40448  20653628.720    20653635.5574
  21119035.609     2282722.513 9   1774980.07347  21119035.496    21119042.5064
  20719342.962    -3689523.519 9  -2867102.89147  20719342.318    20719349.3984
  24133314.685    -5466040.093 7  -4234364.75745  24133314.545    24133325.3384
  22775039.412    -1414231.108 8  -1092836.91746  22775038.828    22775046.8914
 01  7 19 16 33  0.0000000  0  8 17 18 26 23 06 15 21 22
  20413851.747    -1869370.682 9  -1451807.13048  20413851.285    20413858.0244
  21148510.787    -5713434.399 9  -4434482.61747  21148510.421    21148516.4794
  22129321.550    -3211684.641 8  -2494183.58846  22129321.660    22129329.0894
  20649599.918    -2984498.181 9  -2022273.69448  20649599.470    20649606.2734
  21130884.966     2344990.881 9   1823500.82347  21130884.843    21130891.8624
  20711828.089    -3729014.558 9  -2897875.11547  20711827.440    20711834.4714
  24115351.062    -5560438.143 8  -4307921.62345  24115351.040    24115362.0624
  22776321.498    -1407494.725 8  -1087587.81946  22776320.801    22776328.8344
 01  7 19 16 33 30.0000000  0  9 17 18 26 23 06 03 15 21 22
  20412006.592    -1879067.110 9  -1459362.78548  20412006.112    20412012.8664
  21135772.243    -5780375.466 9  -4486644.45747  21135771.920    21135777.9984
  22125229.630    -3233188.615 8  -2510939.93346  22125229.692    22125236.9804
  20645661.867    -3005192.796 9  -2038399.35548  20645661.396    20645668.1974
  21142814.098     2407678.661 9   1872348.39447  21142813.984    21142821.0234
  24635490.231    -2288284.238 7  -1769688.28245  24635490.724    24635499.5834
  20704365.900    -3768228.714 9  -2928431.58547  20704365.266    20704372.2594
  24097418.481    -5654674.463 8  -4381352.44645  24097418.385    24097429.4054
  22777709.974    -1400198.133 8  -1081902.17846  22777709.261    22777717.4654
 01  7 19 16 34  0.0000000  0  9 17 18 26 23 06 03 15 21 22
  20410212.194    -1888496.752 9  -1466710.55448  20410211.734    20410218.5044
  21123115.290    -5846888.177 9  -4538472.51447  21123114.972    21123120.9974
  22121253.769    -3254081.806 8  -2527220.36346  22121253.845    22121261.1354
  20641814.684    -3025410.086 9  -2054153.08048  20641814.209    20641820.9434
  21154822.466     2470783.036 9   1921520.57847  21154822.391    21154829.4614
  24615815.452    -2391677.607 7  -1850254.47445  24615815.655    24615824.3464
  20696956.031    -3807167.542 9  -2958773.52147  20696955.436    20696962.4554
  24079516.591    -5748749.541 8  -4454657.61145  24079516.477    24079527.3934
  22779204.458    -1392343.874 8  -1075782.00346  22779203.725    22779212.0854
 01  7 19 16 34 30.0000000  0  9 17 18 26 23 06 03 15 21 22
  20408469.190    -1897656.462 9  -1473847.98848  20408468.711    20408475.4764
  21110540.670    -5912968.407 9  -4589963.57747  21110540.337    21110546.3264
  22117394.948    -3274359.967 8  -2543021.54746  22117394.976    22117402.3294
  20638058.787    -3045147.254 9  -2069532.67848  20638058.310    20638065.0904
  21166910.571     2534306.059 9   1971018.98647  21166910.473    21166917.5364
  24596154.358    -2494997.620 7  -1930763.51545  24596154.297    24596163.1064
  20689599.239    -3845827.711 9  -2988898.32547  20689598.639    20689605.6484
  24061646.292    -5842658.971 8  -4527833.71945  24061646.189    24061656.8884
  22780805.662    -1383929.788 8  -1069225.61046  22780804.997    22780813.2594
 01  7 19 16 35  0.0000000  0  9 17 18 26 23 06 03 15 21 22
  20406777.579    -1906545.870 9  -1480774.79848  20406777.122    20406783.8824
  21098048.596    -5978614.331 9  -4641116.21347  21098048.295    21098054.2814
  22113653.413    -3294021.262 8  -2558342.04546  22113653.506    22113660.9274
  20634394.300    -3064404.172 9  -2084538.06048  20634393.836    20634400.5964
  21179078.202     2598247.186 9   2020843.18547  21179078.119    21179085.1554
  24576507.638    -2598241.931 7  -2011213.60345  24576507.459    24576515.9934
  20682295.585    -3884208.632 9  -3018805.52247  20682295.005    20682301.9914
  24043807.761    -5936400.978 8  -4600879.35745  24043807.489    24043818.2414
  22782513.296    -1374956.952 8  -1062233.81646  22782512.505    22782520.7834
 01  7 19 16 35 30.0000000  0  9 17 18 26 23 06 03 15 21 22
  20405137.202    -1915166.142 9  -1487491.89348  20405136.718    20405143.4974
  21085639.194    -6043826.077 9  -4691930.53147  21085638.886    21085644.8514
  22110029.320    -3313065.726 8  -2573181.90846  22110029.395    22110036.7954
  20630820.958    -3083182.414 9  -2099170.44548  20630820.470    20630827.2014
  21191324.998     2662604.109 9   2070991.37747  21191324.891    21191331.8884
  24556875.441    -2701409.678 7  -2091604.01245  24556875.229    24556883.7294
  20675044.929    -3922311.435 9  -3048496.01347  20675044.315    20675051.2464
  24026000.960    -6029975.114 8  -4673794.20445  24026000.667    24026011.5944
  22784326.755    -1365427.222 8  -1054808.09546  22784325.959    22784334.2804
 01  7 19 16 36  0.0000000  0  9 17 18 26 23 06 03 15 21 22
  20403548.250    -1923516.200 9  -1493998.43448  20403547.758    20403554.5254
  21073312.815    -6108601.478 9  -4742404.83647  21073312.519    21073318.4854
  22106523.002    -3331491.063 8  -2587539.32746  22106523.212    22106530.6754
  20627338.780    -3101481.397 9  -2113429.38248  20627338.291    20627345.0104
  21203650.903     2727376.835 9   2121463.57547  21203650.818    21203657.8114
  24537258.330    -2804497.850 7  -2171932.36545  24537258.130    24537266.5934
  20667847.343    -3960134.584 9  -3077968.58947  20667846.767    20667853.7064
  24008226.771    -6123379.173 7  -4746576.49745  24008226.391    24008237.3374
  22786246.317    -1355339.999 8  -1046947.95946  22786245.640    22786253.8324
 01  7 19 16 36 30.0000000  0  9 17 18 26 23 06 03 15 21 22
  20402010.412    -1931597.489 9  -1500295.54148  20402009.922    20402016.7004
  21061069.438    -6172940.849 9  -4792539.38247  21061069.135    21061075.1044
  22103134.594    -3349297.638 8  -2601414.57746  22103134.778    22103142.2034
  20623947.444    -3119302.809 9  -2127316.18748  20623946.979    20623953.7204
  21216055.532     2792562.940 9   2172257.88647  21216055.390    21216062.3824
  24517656.503    -2907506.002 7  -2252198.42145  24517656.300    24517664.7594
  20660702.775    -3997679.342 9  -3107224.24047  20660702.224    20660709.2104
  23990484.716    -6216613.624 8  -4819226.64545  23990484.563    23990495.3034
  22788271.686    -1344697.665 8  -1038655.28046  22788270.948    22788279.0064
 01  7 19 16 37  0.0000000  0  9 17 18 26 23 06 03 15 21 22
  20400523.879    -1939409.103 9  -1506382.51548  20400523.441    20400530.1824
  21048909.478    -6236842.026 9  -4842332.47447  21048909.153    21048915.1434
  22099864.375    -3366483.188 8  -2614805.94446  22099864.532    22099871.9014
  20620647.127    -3136645.956 9  -2140830.31748  20620646.673    20620653.4484
  21228538.722     2858162.392 9   2223374.28947  21228538.628    21228545.6024
  24498070.307    -3010431.282 7  -2332399.85445  24498070.069    24498078.8004
  20653611.493    -4034944.622 9  -3136262.11347  20653610.893    20653617.9084
  23972775.733    -6309675.945 8  -4891742.66645  23972775.244    23972785.7894
  22790402.531    -1333500.471 8  -1029930.22546  22790401.753    22790409.8054
 01  7 19 16 37 30.0000000  0  9 17 18 26 23 06 03 15 21 22
  20399088.669    -1946951.177 9  -1512259.46348  20399088.205    20399094.9534
  21036833.018    -6300304.225 9  -4891783.50847  21036832.694    21036838.7094
  22096712.342    -3383046.979 8  -2627712.81046  22096712.554    22096719.9714
  20617437.710    -3153511.650 9  -2153972.40948  20617437.265    20617444.0044
  21241100.331     2924173.945 9   2274811.80647  21241100.232    21241107.2144
  24478500.065    -3113271.801 7  -2412535.29145  24478499.917    24478508.8054
  20646573.340    -4071930.396 9  -3165082.19347  20646572.745    20646579.7584
  23955099.627    -6402564.835 7  -4964123.53845  23955099.041    23955109.4184
  22792638.635    -1321750.015 8  -1020774.05846  22792637.825    22792645.9184
 01  7 19 16 38  0.0000000  0  9 17 18 26 23 06 03 15 21 22
  20397704.852    -1954223.137 9  -1517925.92448  20397704.403    20397711.1414
  21024840.392    -6363325.525 9  -4940890.98047  21024840.106    21024846.1434
  22093679.150    -3398987.161 8  -2640133.74646  22093679.344    22093686.6894
  20614319.180    -3169899.537 9  -2166742.17848  20614318.734    20614325.4924
  21253740.260     2990597.195 9   2326570.13247  21253740.182    21253747.2264
  24458946.632    -3216024.893 7  -2492602.59845  24458946.643    24458955.4564
  20639588.515    -4108635.723 9  -3193683.74347  20639587.941    20639594.9734
  23937456.577    -6495278.221 8  -5036367.65445  23937456.164    23937466.5564
  22794979.952    -1309446.339 8  -1011186.80946  22794979.184    22794987.2874
 01  7 19 16 38 30.0000000  0  9 17 18 26 23 06 03 15 21 22
  20396372.273    -1961226.056 9  -1523382.74548  20396371.826    20396378.5484
  21012931.712    -6425906.166 9  -4989655.08347  21012931.400    21012937.4124
  22090764.453    -3414303.817 8  -2652068.81446  22090764.632    22090772.0194
  20611291.259    -3185811.171 9  -2179140.84548  20611290.840    20611297.5984
  21266458.208     3057430.049 9   2378647.63347  21266458.087    21266465.1714
  24439410.433    -3318689.652 7  -2572601.03645  24439410.079    24439418.9604
  20632656.884    -4145061.504 9  -3222067.46047  20632656.319    20632663.3454
  23919847.184    -6587816.730 8  -5108475.49345  23919846.704    23919856.9514
  22797426.278    -1296591.106 8  -1001169.78246  22797425.571    22797433.6424
 01  7 19 16 39  0.0000000  0  9 17 18 26 23 06 03 15 21 22
  20395090.916    -1967959.696 9  -1528629.74248  20395090.453    20395097.1654
  21001107.129    -6488044.757 9  -5038074.73147  21001106.796    21001112.8014
  22087968.676    -3428995.581 8  -2663516.96846  22087968.857    22087976.3044
  20608353.962    -3201246.618 9  -2191168.45848  20608353.534    20608360.3284
  21279253.822     3124671.700 9   2431043.67747  21279253.719    21279260.8894
  24419891.329    -3421263.966 7  -2652529.01545  24419890.871    24419899.8274
  20625778.634    -4181207.362 9  -3250233.05547  20625778.021    20625785.0074
  23902271.527    -6680178.487 8  -5180445.59945  23902271.002    23902281.0984
  22799977.370    -1283185.387 8   -990723.80146  22799976.694    22799984.7304
 01  7 19 16 39 30.0000000  0  9 17 18 26 23 06 03 15 21 22
  20393861.001    -1974423.214 9  -1533666.25448  20393860.524    20393867.2224
  20989366.998    -6549739.371 9  -5086148.41747  20989366.654    20989372.6334
  22085292.163    -3443060.686 8  -2674476.78546  22085292.340    22085299.8734
  20605507.339    -3216205.562 9  -2202824.77248  20605506.934    20605513.7124
  21292127.231     3192321.734 9   2483757.93047  21292127.127    21292134.2854
  24400389.772    -3523744.837 7  -2732384.16945  24400389.441    24400398.3674
  20618953.830    -4217072.184 9  -3278179.66147  20618953.206    20618960.1704
  23884729.693    -6772361.395 8  -5252276.32745  23884729.126    23884739.1864
  22802632.991    -1269229.793 8   -979849.36046  22802632.286    22802640.4224
 01  7 19 16 40  0.0000000  0  9 17 18 26 23 06 03 15 21 22
  20392682.383    -1980616.894 9  -1538492.50148  20392681.920    20392688.6314
  20977711.427    -6610989.295 9  -5133875.59547  20977711.093    20977717.0854
  22082735.067    -3456498.502 8  -2684947.82046  22082735.231    22082742.7754
  20602751.274    -3230688.946 9  -2214110.51548  20602750.862    20602757.6234
  21305078.136     3260378.760 9   2536789.32647  21305078.041    21305085.1474
  24380906.421    -3626130.939 7  -2812165.47945  24380906.080    24380914.9584
  20612182.424    -4252656.145 9  -3305907.41147  20612181.784    20612188.7914
  23867222.019    -6864364.323 8  -5323966.83145  23867221.576    23867231.5104
  22805393.144    -1254725.860 8   -968547.62846  22805392.375    22805400.4324
 01  7 19 16 40 30.0000000  0  9 17 18 26 23 06 03 15 21 22
  20391555.151    -1986540.559 9  -1543108.35048  20391554.690    20391561.4004
  20966140.791    -6671793.330 9  -5181255.32647  20966140.453    20966146.4304
  22080297.500    -3469307.792 8  -2694929.08246  22080297.668    22080305.2944
  20600085.649    -3244697.031 9  -2225025.89248  20600085.228    20600091.9794
  21318106.271     3328841.748 9   2590137.05247  21318106.182    21318113.2734
  24361441.288    -3728419.924 7  -2891871.10745  24361441.175    24361449.9804
  20605464.514    -4287958.913 9  -3333416.05147  20605463.884    20605470.9154
  23849748.874    -6956186.018 8  -5395516.09445  23849748.522    23849758.2994
  22808257.510    -1239673.996 8   -956818.95546  22808256.742    22808264.7654
 01  7 19 16 41  0.0000000  0  9 17 18 26 23 06 03 15 21 22
  20390479.248    -1992194.471 9  -1547514.00648  20390478.795    20390485.5144
  20954655.148    -6732150.909 9  -5228287.17347  20954654.794    20954660.7464
  22077979.757    -3481487.908 8  -2704420.06946  22077979.902    22077987.5364
  20597510.287    -3258230.538 9  -2235571.47848  20597509.911    20597516.6254
  21331211.374     3397709.368 9   2643800.07147  21331211.270    21331218.3884
  24341995.389    -3830609.897 8  -2971499.63245  24341995.207    24342003.8404
  20598800.188    -4322980.135 9  -3360705.30847  20598799.578    20598806.5424
  23832310.564    -7047825.349 8  -5466923.26145  23832310.105    23832319.8394
  22811225.638    -1224075.444 8   -944664.27146  22811224.958    22811233.0394
 01  7 19 16 41 30.0000000  0  9 17 18 26 23 06 03 15 21 22
  20389454.728    -1997578.592 9  -1551709.43148  20389454.244    20389460.9644
  20943254.616    -6792060.956 9  -5274970.29047  20943254.277    20943260.2444
  22075781.925    -3493038.053 8  -2713420.16046  22075782.064    22075789.5724
  20595025.186    -3271290.101 9  -2245747.75148  20595024.761    20595031.4434
  21344393.338     3466980.304 9   2697777.35847  21344393.224    21344400.3194
  24322568.944    -3932698.843 8  -3051049.39645  24322568.536    24322576.9914
  20592189.517    -4357719.512 9  -3387774.93947  20592188.904    20592195.8324
  23814906.874    -7139280.995 8  -5538187.30445  23814906.504    23814916.4524
  22814297.580    -1207931.773 8   -932084.81446  22814296.911    22814305.0614
 01  7 19 16 42  0.0000000  0  9 17 18 26 23 06 03 15 21 22
  20388481.584    -2002692.497 9  -1555694.30248  20388481.098    20388487.8354
  20931939.533    -6851522.027 9  -5321303.55347  20931939.190    20931945.1714
  22073704.134    -3503956.966 8  -2721928.39646  22073704.223    22073711.7564
  20592630.208    -3283875.825 9  -2255554.80248  20592629.779    20592636.4484
  21357651.863     3536653.999 9   2752068.48247  21357651.725    21357658.8514
  24303161.797    -4034684.470 8  -3130518.65045  24303161.381    24303169.7704
  20585632.501    -4392176.646 9  -3414624.64647  20585631.964    20585638.8324
  23797538.470    -7230551.695 8  -5609307.22445  23797537.998    23797548.1754
  22817473.301    -1191244.156 8   -919081.51346  22817472.493    22817480.5504
 01  7 19 16 42 30.0000000  0  9 17 18 26 23 06 03 15 21 22
  20387559.978    -2007535.791 9  -1559468.30548  20387559.496    20387566.2374
  20920710.157    -6910532.644 9  -5367285.81747  20920709.814    20920715.7404
  22071746.680    -3514243.297 8  -2729943.71746  22071746.818    22071754.3224
  20590325.386    -3295987.853 9  -2264992.74048  20590324.925    20590331.5934
  21370986.785     3606729.669 9   2806672.83447  21370986.664    21370993.8794
  24283774.556    -4136564.242 8  -3209905.43645  24283774.173    24283782.7724
  20579129.393    -4426350.834 9  -3441253.87847  20579128.796    20579135.7044
  23780205.508    -7321635.241 8  -5680281.32045  23780205.216    23780215.5734
  22820752.287    -1174012.935 8   -905654.64046  22820751.482    22820759.5724
 01  7 19 16 43  0.0000000  0  9 17 18 26 23 06 03 15 21 22
  20386689.820    -2012108.498 9  -1563031.46148  20386689.329    20386696.1044
  20909566.594    -6969092.218 9  -5412916.61147  20909566.258    20909572.1184
  22069909.783    -3523896.456 8  -2737465.63846  22069909.889    22069917.3464
  20588110.520    -3307626.954 9  -2274062.16948  20588110.068    20588116.7424
  21384397.992     3677205.802 8   2861589.24847  21384397.869    21384405.1054
  24264407.850    -4238336.160 7  -3289208.15845  24264407.451    24264416.0834
  20572680.091    -4460242.201 9  -3467662.72647  20572679.450    20572686.4094
  23762908.520    -7412530.957 8  -5751109.04545  23762908.221    23762918.6434
  22824134.412    -1156239.192 8   -891805.00646  22824133.671    22824141.8094
 01  7 19 16 43 30.0000000  0  9 17 18 26 23 06 03 15 21 22
  20385870.972    -2016411.496 9  -1566384.45648  20385870.476    20385877.2604
  20898508.951    -7027200.439 9  -5458195.70747  20898508.634    20898514.4334
  22068193.331    -3532916.501 8  -2744494.23046  22068193.428    22068200.8334
  20585985.401    -3318794.371 9  -2282764.04348  20585984.969    20585991.6274
  21397885.059     3748080.626 9   2916816.31747  21397884.942    21397892.2314
  24245061.934    -4339999.004 8  -3368425.89645  24245061.563    24245070.2854
  20566284.515    -4493851.198 9  -3493851.54747  20566283.878    20566290.8184
  23745647.430    -7503238.470 8  -5821790.13245  23745647.021    23745657.5014
  22827619.531    -1137925.080 8   -877534.32846  22827618.829    22827626.9154
 01  7 19 16 44  0.0000000  0  9 17 18 26 23 06 03 15 21 22
  20385103.681    -2020443.478 9  -1569526.27048  20385103.227    20385110.0064
  20887537.605    -7084855.154 9  -5503121.41947  20887537.299    20887543.0894
  22066597.714    -3541301.348 8  -2751027.86046  22066597.802    22066605.2594
  20583950.189    -3329489.577 9  -2291097.96648  20583949.758    20583956.4144
  21411447.967     3819354.132 8   2972354.04747  21411447.853    21411455.2284
  24225737.277    -4441549.312 7  -3447555.97545  24225737.122    24225745.8294
  20559942.939    -4527176.295 9  -3519819.14447  20559942.278    20559949.2314
  23728422.336    -7593755.596 8  -5892322.84845  23728421.946    23728432.5914
  22831207.395    -1119071.137 8   -862842.99046  22831206.694    22831214.6974
 01  7 19 16 44 30.0000000  0  9 17 18 26 23 06 03 15 21 22
  20384387.945    -2024204.957 9  -1572457.29848  20384387.462    20384394.2464
  20876652.599    -7142056.238 9  -5547693.65947  20876652.254    20876658.0784
  22065123.000    -3549050.888 8  -2757066.45246  22065123.103    22065130.5824
  20582004.593    -3339713.772 9  -2299064.86648  20582004.175    20582010.8534
  21425086.444     3891024.555 8   3028201.07347  21425086.321    21425093.6854
  24206434.351    -4542985.811 7  -3526597.34845  24206434.154    24206442.9474
  20553655.341    -4560217.741 9  -3545565.71247  20553654.691    20553661.6564
  23711233.675    -7684081.168 8  -5962706.31745  23711233.455    23711244.2194
  22834897.617    -1099679.209 8   -847732.45346  22834896.870    22834904.9424
 01  7 19 16 45  0.0000000  0  9 17 18 26 23 06 03 15 21 22
  20383723.695    -2027695.610 9  -1575177.29748  20383723.242    20383730.0054
  20865854.106    -7198802.409 9  -5591911.41447  20865853.780    20865859.6464
  22063769.325    -3556164.212 8  -2762609.28046  22063769.460    22063776.8784
  20580148.547    -3349467.318 9  -2306665.02748  20580148.120    20580154.7954
  21438800.242     3963090.893 9   3084356.58747  21438800.127    21438807.4564
  24187153.385    -4644305.884 7  -3605548.02445  24187153.353    24187162.2014
  20547421.809    -4592974.998 9  -3571090.83747  20547421.176    20547428.1384
  23694082.036    -7774214.016 8  -6032939.60545  23694081.728    23694092.2694
  22838689.946    -1079749.972 8   -832203.22546  22838689.275    22838697.5244
 01  7 19 16 45 30.0000000  0  9 17 18 26 23 06 03 15 21 22
  20383110.858    -2030916.231 9  -1577686.88148  20383110.406    20383117.1564
  20855142.240    -7255093.424 9  -5635774.51047  20855141.896    20855147.8124
  22062536.872    -3562641.352 8  -2767656.38246  22062536.984    22062544.3294
  20578381.831    -3358751.614 9  -2313899.53848  20578381.393    20578388.0744
  21452589.106     4035551.188 9   3140819.08747  21452588.992    21452596.2464
  24167895.030    -4745508.566 7  -3684407.18645  24167894.895    24167903.9764
  20541242.295    -4625448.677 9  -3596394.99447  20541241.644    20541248.6234
  23676967.238    -7864153.246 8  -6103022.02045  23676966.907    23676977.3594
  22842584.349    -1059285.315 8   -816256.79146  22842583.618    22842591.8854
 01  7 19 16 46  0.0000000  0  9 17 18 26 23 06 03 15 21 22
  20382549.467    -2033866.525 9  -1579985.82348  20382548.995    20382555.7144
  20844517.214    -7310928.213 9  -5679282.10947  20844516.891    20844522.8054
  22061425.563    -3568481.538 8  -2772207.14146  22061425.673    22061432.9614
  20576704.314    -3367567.070 9  -2320768.72248  20576703.884    20576710.5304
  21466452.675     4108404.267 8   3197587.65447  21466452.524    21466459.7694
  24148659.793    -4846591.384 7  -3763172.98245  24148659.341    24148668.3654
  20535116.797    -4657638.241 9  -3621477.76047  20535116.155    20535123.1584
  23659889.543    -7953897.323 8  -6172952.38045  23659889.120    23659899.4974
  22846580.344    -1038286.672 8   -799894.26446  22846579.642    22846587.8894
 01  7 19 16 46 30.0000000  0  9 17 18 26 23 06 03 15 21 22
  20382039.493    -2036546.582 9  -1582074.19148  20382039.038    20382045.7394
  20833979.139    -7366306.113 9  -5722433.69547  20833978.827    20833984.6934
  22060435.518    -3573684.130 8  -2776261.09346  22060435.698    22060442.9094
  20575115.829    -3375914.527 9  -2327273.22948  20575115.404    20575122.0094
  21480390.732     4181648.769 8   3254661.22347  21480390.565    21480397.8074
  24129447.825    -4947552.316 7  -3841843.83745  24129447.252    24129455.9264
  20529045.349    -4689543.787 9  -3646339.21747  20529044.748    20529051.7454
  23642849.115    -8043445.940 8  -6242730.43545  23642848.617    23642858.8714
  22850677.535    -1016755.897 8   -783117.08446  22850676.846    22850685.1474
 01  7 19 16 47  0.0000000  0  9 17 18 26 23 06 03 15 21 22
  20381581.167    -2038955.234 9  -1583951.07148  20381580.715    20381587.3944
  20823528.368    -7421225.436 9  -5765227.95747  20823528.051    20823533.8834
  22059567.115    -3578247.538 8  -2779816.98246  22059567.259    22059574.5594
  20573616.594    -3383793.375 9  -2333412.58648  20573616.142    20573622.7364
  21494403.189     4255284.507 8   3312039.64347  21494403.024    21494410.2434
  24110259.036    -5048388.163 7  -3920417.17645  24110258.626    24110267.3724
  20523028.321    -4721163.838 9  -3670978.20447  20523027.683    20523034.6314
  23625846.341    -8132796.047 8  -6312353.80145  23625845.857    23625856.0224
  22854875.956     -994693.145 8   -765925.37846  22854875.279    22854883.6944
 01  7 19 16 47 30.0000000  0  9 17 18 26 23 06 03 15 21 22
  20381174.451    -2041092.623 9  -1585616.57948  20381173.967    20381180.6674
  20813165.081    -7475685.298 9  -5807664.19147  20813164.716    20813170.4954
  22058820.506    -3582171.312 8  -2782874.43646  22058820.597    22058827.9244
  20572206.262    -3391204.633 9  -2339187.58848  20572205.798    20572212.3934
  21508489.837     4329309.961 8   3369721.74647  21508489.672    21508496.9274
  24091094.533    -5149096.833 7  -3998891.45045  24091094.313    24091103.0414
  20517065.526    -4752498.328 9  -3695394.67447  20517064.901    20517071.8164
  23608881.374    -8221947.404 8  -6381822.28345  23608880.872    23608890.9004
  22859175.410     -972099.453 8   -748319.95846  22859174.783    22859183.0654
 01  7 19 16 48  0.0000000  0  9 17 18 26 23 06 03 15 21 22
  20380819.275    -2042958.844 9  -1587070.79548  20380818.843    20380825.5694
  20802889.218    -7529685.183 9  -5849742.00347  20802888.850    20802894.6134
  22058195.468    -3585455.360 8  -2785433.42846  22058195.649    22058202.9974
  20570884.728    -3398149.327 9  -2344599.03448  20570884.283    20570890.8914
  21522650.294     4403723.553 8   3427706.29647  21522650.169    21522657.4634
  24071954.618    -5249676.649 7  -4077265.25545  24071954.453    24071963.2944
  20511157.100    -4783547.155 9  -3719588.55247  20511156.492    20511163.3864
  23591954.351    -8310898.925 8  -6451135.06745  23591953.860    23591963.8554
  22863575.564     -948976.674 8   -730302.26546  22863574.896    22863583.1814
 01  7 19 16 48 30.0000000  0  9 17 18 26 23 06 03 15 21 22
  20380515.842    -2044553.349 9  -1588313.27548  20380515.383    20380522.1334
  20792701.127    -7583223.872 9  -5891460.43447  20792700.733    20792706.5224
  22057692.553    -3588098.334 8  -2787492.84846  22057692.717    22057699.9864
  20569651.954    -3404627.612 9  -2349647.04448  20569651.497    20569658.1144
  21536884.526     4478524.778 8   3485992.88747  21536884.415    21536891.8374
  24052840.233    -5350124.583 7  -4155536.33745  24052839.746    24052848.8294
  20505303.244    -4814309.298 9  -3743559.04647  20505302.644    20505309.5734
  23575065.748    -8399648.359 8  -6520290.37446  23575065.292    23575075.2534
  22868076.052     -925326.007 8   -711873.23046  22868075.460    22868083.7384
 01  7 19 16 49  0.0000000  0  9 17 18 26 23 06 03 15 21 22
  20380263.933    -2045877.258 9  -1589344.90348  20380263.467    20380270.2344
  20782600.744    -7636301.528 9  -5932819.61647  20782600.335    20782606.1324
  22057311.438    -3590101.209 8  -2789053.51046  22057311.601    22057318.7334
  20568507.564    -3410641.462 9  -2354333.16048  20568507.109    20568513.7264
  21551192.098     4553710.939 8   3544579.43947  21551191.970    21551199.3634
  24033750.652    -5450439.905 7  -4233704.05445  24033750.281    24033759.2714
  20499503.783    -4844785.914 9  -3767307.05347  20499503.129    20499510.0584
  23558215.672    -8488195.830 8  -6589288.30645  23558215.118    23558225.1164
  22872676.653     -901150.368 8   -693035.13346  22872676.025    22872684.2214
 01  7 19 16 49 30.0000000  0  9 17 18 26 23 06 03 15 21 22
  20380063.685    -2046929.499 9  -1590164.84348  20380063.246    20380069.9894
  20772588.457    -7688916.132 9  -5973817.98047  20772588.077    20772593.8654
  22057052.409    -3591462.331 8  -2790114.11246  22057052.500    22057059.7344
  20567451.606    -3416190.524 9  -2358657.10448  20567451.180    20567457.7484
  21565572.786     4629281.863 8   3603465.79347  21565572.685    21565580.1124
  24014687.026    -5550619.228 7  -4311765.84445  24014686.868    24014695.7154
  20493758.849    -4874975.766 9  -3790831.60447  20493758.206    20493765.1064
  23541404.202    -8576539.578 8  -6658127.51645  23541403.745    23541413.6304
  22877377.122     -876449.748 8   -673787.94446  22877376.462    22877384.6894
 01  7 19 16 50  0.0000000  0  9 17 18 26 23 06 03 15 21 22
  20379915.152    -2047710.290 9  -1590773.26248  20379914.699    20379921.4444
  20762664.360    -7741067.499 9  -6014455.37447  20762664.007    20762669.7794
  22056915.480    -3592181.786 8  -2790674.71746  22056915.655    22056922.8684
  20566483.933    -3421275.866 9  -2362619.70148  20566483.460    20566490.0174
  21580026.370     4705235.834 8   3662650.63747  21580026.298    21580033.7314
  23995649.563    -5650661.044 7  -4389720.44045  23995649.607    23995658.3694
  20488068.461    -4904878.797 9  -3814132.66047  20488067.846    20488074.7404
  23524631.676    -8664678.476 8  -6726807.07746  23524631.357    23524641.2984
  22882177.071     -851225.696 8   -654132.90746  22882176.469    22882184.7544
 01  7 19 16 50 30.0000000  0  9 17 18 26 23 06 03 15 21 22
  20379818.324    -2048219.245 9  -1591169.85848  20379817.876    20379824.6224
  20752828.609    -7792754.594 9  -6054730.99547  20752828.246    20752834.0144
  22056900.943    -3592258.705 8  -2790734.61846  22056901.075    22056908.2324
  20565604.383    -3425897.881 9  -2366221.26848  20565603.919    20565610.4814
  21594552.645     4781571.706 8   3722133.06647  21594552.552    21594560.0604
  23976638.979    -5750562.699 7  -4467565.83845  23976639.038    23976647.7254
  20482432.762    -4934494.368 9  -3837209.72147  20482432.167    20482439.0984
  23507898.421    -8752611.333 8  -6795326.09646  23507898.091    23507908.1804
  22887076.603     -825479.650 8   -634071.12246  22887075.887    22887084.1064
 01  7 19 16 51  0.0000000  0  9 17 18 26 23 06 03 15 21 22
  20379772.981    -2048457.738 9  -1591355.70848  20379772.507    20379779.2254
  20743081.018    -7843978.410 9  -6094645.62748  20743080.704    20743086.4154
  22057008.338    -3591694.277 8  -2790294.77946  22057008.490    22057015.4994
  20564812.571    -3430058.959 9  -2369463.66548  20564812.097    20564818.6554
  21609151.088     4858286.676 8   3781910.89047  21609150.976    21609158.4704
  23957655.600    -5850323.477 7  -4545301.42745  23957655.310    23957663.9974
  20476851.537    -4963823.799 9  -3860063.82247  20476850.981    20476857.9004
  23491204.482    -8840338.180 8  -6863684.60146  23491204.158    23491214.2844
  22892074.689     -799215.320 8   -613605.47246  22892073.837    22892082.1444
 01  7 19 16 51 30.0000000  0  9 17 18 26 23 06 03 15 21 22
  20379779.453    -2048423.920 9  -1591329.36448  20379778.963    20379785.6784
  20733422.108    -7894736.355 9  -6134197.24748  20733421.801    20733427.4854
  22057238.126    -3590486.422 8  -2789353.56846  22057238.242    22057245.3054
  20564108.586    -3433758.101 9  -2372346.10748  20564108.144    20564114.7264
  21623821.678     4935381.033 8   3841984.35547  21623821.570    21623829.0774
  23938699.560    -5949939.310 7  -4622924.11545  23938699.233    23938707.7964
  20471325.242    -4992865.073 9  -3882693.37947  20471324.627    20471331.5354
  23474550.290    -8927856.163 8  -6931880.35046  23474549.977    23474560.0444
  22897171.362     -772432.147 8   -592735.52446  22897170.498    22897178.9224
 01  7 19 16 52  0.0000000  0  9 17 18 26 23 06 03 15 21 22
  20379837.627    -2048118.366 9  -1591091.27648  20379837.152    20379843.8234
  20723851.844    -7945028.340 9  -6173385.78348  20723851.546    20723857.1964
  22057590.187    -3588635.504 8  -2787911.27446  22057590.418    22057597.5124
  20563492.352    -3436996.536 9  -2374869.55848  20563491.901    20563498.5064
  21638564.109     5012852.731 8   3902351.84647  21638563.994    21638571.4934
  23919771.160    -6049408.696 7  -4700432.62745  23919770.827    23919779.4344
  20465853.663    -5021618.558 9  -3905098.68547  20465853.055    20465859.9144
  23457936.252    -9015164.682 8  -6999912.87746  23457935.799    23457945.6834
  22902366.389     -745131.808 8   -571462.59946  22902365.612    22902374.0924
 01  7 19 16 52 30.0000000  0  9 17 18 26 23 06 03 15 21 22
  20379947.589    -2047540.554 9  -1590641.04948  20379947.096    20379953.7724
  20714370.519    -7994853.086 9  -6212210.24348  20714370.200    20714375.8454
  22058064.994    -3586140.756 8  -2785967.29146  22058065.189    22058072.3544
  20562963.606    -3439774.870 9  -2377034.48748  20562963.177    20562969.8024
  21653378.161     5090700.751 8   3963012.56447  21653378.038    21653385.5424
  23900870.985    -6148729.134 7  -4777825.10745  23900870.851    23900879.4164
  20460436.990    -5050083.451 9  -3927279.10947  20460436.365    20460443.2454
  23441362.002    -9102262.287 8  -7067781.05246  23441361.634    23441371.5154
  22907659.722     -717315.641 8   -549787.73546  22907658.967    22907667.3714
 01  7 19 16 53  0.0000000  0  9 17 18 26 23 06 03 15 21 22
  20380109.322    -2046690.783 9  -1589978.89748  20380108.794    20380115.4504
  20704978.083    -8044210.468 9  -6250670.52248  20704977.762    20704983.4394
  22058662.255    -3583002.374 8  -2783521.78246  22058662.386    22058669.6714
  20562522.221    -3442094.303 9  -2378841.83548  20562521.822    20562528.4324
  21668263.460     5168923.459 8   4023965.26047  21668263.363    21668270.8924
  23881999.600    -6247898.604 7  -4855099.97845  23881999.536    23882008.2124
  20455075.204    -5078259.786 9  -3949234.68847  20455074.577    20455081.4414
  23424828.048    -9189148.077 8  -7135484.18946  23424827.699    23424837.6624
  22913050.818     -688986.078 8   -527712.82746  22913049.926    22913058.3094
 01  7 19 16 53 30.0000000  0  9 17 18 26 23 06 03 15 21 22
  20380322.976    -2045567.870 9  -1589103.91448  20380322.506    20380329.1544
  20695674.901    -8093098.763 9  -6288765.27448  20695674.583    20695680.2574
  22059382.128    -3579218.925 8  -2780573.63546  22059382.277    22059389.6334
  20562168.266    -3443954.664 9  -2380291.46248  20562167.817    20562174.4344
  21683220.034     5247520.355 8   4085209.53647  21683219.929    21683227.4584
  23863157.474    -6346913.798 8  -4932254.61145  23863157.500    23863166.2434
  20449768.627    -5106146.087 9  -3970964.26847  20449767.980    20449774.8504
  23408334.663    -9275820.018 8  -7203020.66946  23408334.458    23408344.5864
  22918539.337     -660143.844 8   -505238.41946  22918538.426    22918546.8934
 01  7 19 16 54  0.0000000  0  9 17 18 26 23 06 03 15 21 22
  20380588.480    -2044172.649 9  -1588016.74148  20380588.002    20380594.6974
  20686460.995    -8141518.082 9  -6326494.58948  20686460.661    20686466.3354
  22060224.564    -3574791.501 8  -2777123.67346  22060224.734    22060232.0304
  20561901.218    -3445357.842 9  -2381384.84248  20561900.782    20561907.3854
  21698247.365     5326489.063 8   4146743.52147  21698247.216    21698254.7874
  23844345.021    -6445773.518 7  -5009288.10245  23844345.133    23844353.7624
  20444517.082    -5133743.084 9  -3992468.41247  20444516.436    20444523.3054
  23391882.392    -9362278.660 8  -7270390.94246  23391881.967    23391892.0714
  22924124.898     -630791.185 8   -482366.28046  22924124.109    22924132.6634
 01  7 19 16 54 30.0000000  0  9 17 18 26 23 06 03 15 21 22
  20380905.786    -2042505.363 9  -1586717.56948  20380905.283    20380912.0114
  20677336.299    -8189468.525 9  -6363858.54748  20677335.988    20677341.6514
  22061189.754    -3569719.967 8  -2773171.81246  22061189.886    22061197.0554
  20561721.047    -3446304.825 9  -2382122.74348  20561720.597    20561727.1804
  21713345.140     5405828.069 8   4208566.06247  21713345.084    21713352.5564
  23825562.809    -6544475.674 7  -5086198.81445  23825562.756    23825571.3124
  20439320.557    -5161050.914 9  -4013747.23147  20439319.913    20439326.7734
  23375470.741    -9448522.475 8  -7337593.83246  23375470.309    23375480.2294
  22929807.376     -600929.745 8   -459097.69246  22929806.645    22929815.3104
 01  7 19 16 55  0.0000000  0  9 17 18 26 23 06 03 15 21 22
  20381274.998    -2040565.082 9  -1585205.67148  20381274.527    20381281.2554
  20668301.194    -8236948.401 9  -6400855.82848  20668300.873    20668306.5274
  22062277.653    -3564003.484 8  -2768717.39646  22062277.743    22062284.8844
  20561627.646    -3446795.781 9  -2382505.30048  20561627.172    20561633.7494
  21728513.233     5485536.462 8   4270676.41847  21728513.133    21728520.6554
  23806811.040    -6643017.344 8  -5162984.46945  23806810.808    23806819.3664
  20434179.206    -5188068.653 9  -4034800.00247  20434178.602    20434185.4614
  23359100.155    -9534549.351 8  -7404627.67146  23359099.842    23359109.8214
  22935586.369     -570560.779 8   -435433.62946  22935585.744    22935594.3244
 01  7 19 16 55 30.0000000  0  9 17 18 26 23 06 03 15 21 22
  20381696.006    -2038352.785 9  -1583481.81648  20381695.536    20381702.2624
  20659355.536    -8283958.134 9  -6437486.75848  20659355.196    20659360.8774
  22063487.956    -3557643.025 8  -2763761.18246  22063488.075    22063495.2444
  20561620.657    -3446832.712 9  -2382534.07048  20561620.167    20561626.7314
  21743751.168     5565611.873 8   4333072.77447  21743751.084    21743758.6014
  23788089.958    -6741397.231 8  -5239644.07145  23788089.589    23788098.2324
  20429093.044    -5214796.829 9  -4055627.14347  20429092.374    20429099.2634
  23342771.037    -9620359.769 8  -7471492.85546  23342770.676    23342780.6574
  22941461.596     -539687.462 8   -411376.55746  22941460.837    22941469.3294
 01  7 19 16 56  0.0000000  0  9 17 18 26 23 06 03 15 21 22
  20382169.017    -2035867.186 9  -1581544.99848  20382168.548    20382175.2554
  20650499.616    -8330496.118 9  -6473750.11148  20650499.297    20650504.9494
  22064821.038    -3550637.077 8  -2758301.99546  22064821.232    22064828.3854
  20561700.111    -3446415.231 9  -2382208.75348  20561699.612    20561706.1704
  21759058.898     5646054.075 8   4395754.93347  21759058.797    21759066.3594
  23769400.257    -6839612.014 7  -5316175.02645  23769399.937    23769408.5364
  20424062.204    -5241233.937 9  -4076227.47847  20424061.547    20424068.4844
  23326483.518    -9705951.403 8  -7538187.54646  23326483.162    23326493.0114
  22947432.572     -508310.103 8   -386926.73546  22947431.893    22947440.2814
 01  7 19 16 56 30.0000000  0  9 17 18 26 23 06 03 15 21 22
  20382694.023    -2033108.174 9  -1579395.13648  20382693.565    20382700.2604
  20641733.607    -8376561.899 9  -6509645.51248  20641733.266    20641738.9594
  22066276.962    -3542986.144 8  -2752340.22346  22066277.074    22066284.2064
  20561865.774    -3445544.538 9  -2381530.28848  20561865.267    20561871.8714
  21774436.024     5726861.457 8   4458721.65447  21774435.922    21774443.5304
  23750742.088    -6937659.758 7  -5392575.83245  23750742.014    23750750.6954
  20419086.739    -5267379.935 9  -4096600.97447  20419086.111    20419093.0634
  23310237.823    -9791323.039 8  -7604710.80846  23310237.369    23310247.3014
  22953499.216     -476430.322 8   -362085.39346  22953498.434    22953506.9334
 01  7 19 16 57  0.0000000  0  9 17 18 26 23 06 03 15 21 22
  20383271.138    -2030075.552 9  -1577032.06548  20383270.665    20383277.3534
  20633057.591    -8422154.504 9  -6545172.19748  20633057.242    20633062.9404
  22067855.729    -3534689.729 8  -2745875.44446  22067855.851    22067862.9624
  20562117.592    -3444221.205 9  -2380499.11148  20562117.083    20562123.6884
  21789882.399     5808032.810 8   4521971.98247  21789882.348    21789889.9564
  23732116.416    -7035537.796 7  -5468844.36245  23732116.358    23732125.0104
  20414166.819    -5293234.208 9  -4116747.15048  20414166.207    20414173.1524
  23294034.072    -9876473.282 8  -7671061.55046  23294033.726    23294043.5934
  22959660.933     -444049.406 8   -336853.58046  22959660.227    22959668.8054
 01  7 19 16 57 30.0000000  0  9 17 18 26 23 06 03 15 21 22
  20383900.234    -2026769.971 9  -1574456.29348  20383899.760    20383906.4264
  20624471.572    -8467274.266 9  -6580330.42948  20624471.226    20624476.9314
  22069557.180    -3525748.671 8  -2738908.35846  22069557.293    22069564.3474
  20562455.130    -3442447.198 9  -2379116.75848  20562454.639    20562461.2544
  21805397.693     5889565.670 8   4585504.00747  21805397.597    21805405.2314
  23713523.273    -7133244.660 7  -5544979.52545  23713523.230    23713531.9054
  20409302.369    -5318797.332 9  -4136666.45048  20409301.714    20409308.6434
  23277872.719    -9961402.077 8  -7737239.72546  23277872.325    23277881.9894
  22965917.642     -411170.494 8   -311233.71846  22965917.006    22965925.4194
 01  7 19 16 58  0.0000000  0  9 17 18 26 23 06 03 15 21 22
  20384581.220    -2023191.410 9  -1571667.81948  20384580.758    20384587.3934
  20615975.644    -8511920.795 9  -6615119.90448  20615975.307    20615980.9564
  22071381.209    -3516163.318 8  -2731439.23746  22071381.301    22071388.3714
  20562878.241    -3440223.641 9  -2377384.11348  20562877.776    20562884.3554
  21820981.343     5971458.429 8   4649316.46247  21820981.249    21820988.9364
  23694963.247    -7230778.070 8  -5620979.56845  23694963.148    23694971.8664
  20404493.275    -5344069.178 9  -4156358.78848  20404492.644    20404499.5694
  23261753.504   -10046108.519 8  -7803244.66646  23261753.084    23261762.7684
  22972268.652     -377795.844 8   -285227.56946  22972267.990    22972276.4344
 01  7 19 16 58 30.0000000  0  9 17 18 26 23 06 03 15 21 22
  20385314.394    -2019338.705 9  -1568665.71648  20385313.911    20385320.5514
  20607570.026    -8556092.856 9  -6649539.66648  20607569.666    20607575.2564
  22073327.910    -3505932.505 8  -2723467.18346  22073328.043    22073335.3714
  20563386.961    -3437550.251 9  -2375300.94248  20563386.504    20563393.1054
  21836633.457     6053710.512 8   4713408.92447  21836633.333    21836641.0824
  23676436.973    -7328134.638 7  -5696841.75745  23676436.744    23676445.4824
  20399739.842    -5369048.332 9  -4175823.05248  20399739.225    20399746.1924
  23245677.089   -10130590.260 8  -7869074.46946  23245676.683    23245686.3074
  22978713.848     -343925.783 8   -258835.37546  22978713.198    22978721.8254
 01  7 19 16 59  0.0000000  0  9 17 18 26 23 06 03 15 21 22
  20386099.574    -2015212.574 9  -1565450.55948  20386099.107    20386105.7294
  20599254.630    -8599790.530 9  -6683589.77748  20599254.303    20599259.8524
  22075397.338    -3495057.266 8  -2714992.97746  22075397.540    22075404.8834
  20563980.878    -3434428.891 9  -2372868.71248  20563980.443    20563987.0604
  21852353.507     6136319.692 8   4777779.64047  21852353.381    21852361.1464
  23657944.603    -7425312.955 8  -5772565.04845  23657944.256    23657953.0404
  20395042.008    -5393735.344 9  -4195059.67947  20395041.407    20395048.3834
  23229643.422   -10214847.314 8  -7934729.22146  23229642.953    23229652.5914
  22985253.185     -309562.589 8   -232058.93446  22985252.480    22985261.0154
 01  7 19 16 59 30.0000000  0  9 17 18 26 23 06 03 15 21 22
  20386936.767    -2010812.998 9  -1562022.33248  20386936.318    20386942.9554
  20591029.567    -8643013.429 9  -6717269.93648  20591029.227    20591034.7494
  22077589.590    -3483537.689 8  -2706016.67046  22077589.763    22077596.9804
  20564659.885    -3430860.661 9  -2370088.27248  20564659.472    20564666.0944
  21868141.167     6219284.342 8   4842427.33247  21868141.091    21868148.8404
  23639486.392    -7522310.803 7  -5848147.74645  23639486.264    23639494.9894
  20390399.840    -5418129.902 9  -4214068.42447  20390399.250    20390406.2504
  23213652.651   -10298879.019 8  -8000208.37246  23213652.183    23213661.7774
  22991885.842     -274708.360 8   -204899.85646  22991885.099    22991893.5864
 01  7 19 17  0  0.0000000  0  9 17 18 26 23 06 03 15 21 22
  20387826.162    -2006139.247 9  -1558380.45548  20387825.692    20387832.3934
  20582895.021    -8685760.705 9  -6750579.47448  20582894.679    20582900.2114
  22079904.357    -3471373.686 8  -2696538.20346  22079904.540    22079911.6484
  20565423.813    -3426846.165 9  -2366960.08748  20565423.404    20565430.0374
  21883996.286     6302603.095 8   4907350.95347  21883996.214    21884003.9444
  23621063.007    -7619125.529 7  -5923587.78045  23621062.999    23621071.6724
  20385813.547    -5442231.118 9  -4232848.58448  20385812.915    20385819.9204
  23197704.894   -10382683.544 8  -8065510.48246  23197704.623    23197714.1954
  22998611.401     -239365.095 8   -177359.70746  22998610.603    22998619.2014
 01  7 19 17  0 30.0000000  0  9 17 18 26 23 06 03 15 21 22
  20388767.697    -2001191.488 9  -1554525.06848  20388767.220    20388773.9564
  20574851.011    -8728031.912 9  -6783518.05648  20574850.667    20574856.2504
  22082341.588    -3458565.278 8  -2686557.61746  22082341.743    22082348.9444
  20566272.460    -3422386.381 9  -2363484.93048  20566272.046    20566278.6684
  21899918.596     6386274.496 8   4972549.36547  21899918.502    21899926.2084
  23602675.108    -7715754.809 8  -5998883.26045  23602674.859    23602683.7334
  20381283.123    -5466038.674 9  -4251399.92948  20381282.552    20381289.5184
  23181800.809   -10466259.760 8  -8130634.73346  23181800.504    23181809.9684
  23005429.764     -203534.738 8   -149440.01146  23005429.013    23005437.6554
 01  7 19 17  1  0.0000000  0  9 17 18 26 23 06 03 15 21 22
  20389761.446    -1995969.173 9  -1550455.74148  20389761.002    20389767.7634
  20566897.714    -8769826.429 9  -6816085.18948  20566897.403    20566903.0174
  22084901.562    -3445112.544 8  -2676074.97946  22084901.661    22084908.9274
  20567205.713    -3417482.288 9  -2359663.55648  20567205.280    20567211.8974
  21915907.623     6470297.178 8   5038021.50047  21915907.523    21915915.2674
  23584322.998    -7812196.001 8  -6074032.18845  23584322.603    23584331.6324
  20376808.691    -5489552.259 9  -4269722.19948  20376808.079    20376815.0134
  23165940.304   -10549606.982 8  -8195580.49846  23165939.954    23165949.4274
  23012340.592     -167218.524 8   -121141.74046  23012339.889    23012348.4994
 01  7 19 17  1 30.0000000  0  9 17 18 26 23 06 03 15 21 22
  20390807.331    -1990472.755 9  -1546172.82848  20390806.898    20390813.6914
  20559035.117    -8811144.227 9  -6848280.85048  20559034.816    20559040.4674
  22087584.049    -3431016.303 8  -2665090.89646  22087584.163    22087591.4104
  20568223.188    -3412135.320 9  -2355497.08448  20568222.756    20568229.3714
  21931963.115     6554669.020 8   5103765.70747  21931963.038    21931970.8124
  23566006.843    -7908447.296 8  -6149033.15145  23566006.563    23566015.5554
  20372390.156    -5512772.132 9  -4287815.59848  20372389.518    20372396.4194
  23150123.579   -10632724.442 8  -8260347.27946  23150123.213    23150132.5754
  23019343.362     -130418.663 8    -92466.59846  23019342.650    23019351.2444
 01  7 19 17  2  0.0000000  0  9 17 18 26 23 06 03 15 21 22
  20391905.351    -1984702.660 9  -1541676.65848  20391904.888    20391911.7204
  20551263.169    -8851985.720 9  -6880105.37248  20551262.907    20551268.5814
  22090388.824    -3416277.450 8  -2653606.06946  22090388.882    22090396.1534
  20569324.696    -3406347.021 9  -2350986.71548  20569324.273    20569330.8664
  21948084.782     6639388.027 8   5169780.42947  21948084.617    21948092.3734
  23547727.173    -8004506.951 8  -6223884.79645  23547726.918    23547735.8774
  20368027.394    -5535698.429 9  -4305680.24348  20368026.779    20368033.6634
  23134350.751   -10715611.610 8  -8324934.56146  23134350.243    23134359.6184
  23026437.736      -93138.023 8    -63416.82646  23026436.930    23026445.4584
 01  7 19 17  2 30.0000000  0  9 17 18 26 23 06 03 15 21 22
  20393055.805    -1978656.968 9  -1536965.73748  20393055.372    20393062.1914
  20543582.308    -8892348.723 9  -6911557.04448  20543582.044    20543587.7344
  22093316.020    -3400894.426 8  -2641619.29446  22093316.176    22093323.4234
  20570510.275    -3400116.956 9  -2346132.11548  20570509.832    20570516.3664
  21964272.456     6724454.270 8   5236065.73347  21964272.311    21964280.0104
  23529484.797    -8100371.022 8  -6298584.03045  23529484.587    23529493.5414
  20363720.910    -5558329.238 9  -4323314.63248  20363720.310    20363727.1534
  23118621.969   -10798265.503 8  -8389340.10446  23118621.591    23118631.0284
  23033623.585      -55377.353 8    -33993.00946  23033622.665    23033631.1694
 01  7 19 17  3  0.0000000  0  9 17 18 26 23 06 03 15 21 22
  20394258.717    -1972335.809 9  -1532040.16348  20394258.269    20394265.0634
  20535992.599    -8932233.214 9  -6942635.85348  20535992.328    20535997.9624
  22096365.732    -3384867.872 8  -2629131.07246  22096365.894    22096372.9904
  20571779.688    -3393446.529 9  -2340934.37648  20571779.214    20571785.7244
  21980525.687     6809865.649 8   5302619.96447  21980525.579    21980533.3654
  23511280.105    -8196037.520 8  -6373129.31145  23511279.899    23511288.8154
  20359470.697    -5580664.463 9  -4340718.69848  20359470.062    20359476.8714
  23102937.732   -10880686.112 8  -8453563.86446  23102937.360    23102946.8314
  23040900.093      -17138.618 8     -4196.65446  23040899.257    23040907.9454
 01  7 19 17  3 30.0000000  0  9 17 18 26 23 06 03 15 21 22
  20395513.930    -1965739.993 9  -1526900.56948  20395513.450    20395520.2164
  20528493.857    -8971639.526 9  -6973342.04848  20528493.550    20528499.1444
  22099537.691    -3368199.047 8  -2616142.36846  22099537.809    22099544.9344
  20573132.442    -3386337.529 9  -2335394.89348  20573131.987    20573138.5004
  21996844.176     6895619.692 8   5369441.22147  21996844.122    21996851.8654
  23493113.233    -8291504.752 8  -6447519.28845  23493112.997    23493122.0204
  20355276.618    -5602704.622 9  -4357892.83848  20355275.976    20355282.7314
  23087298.011   -10962872.670 8  -8517605.24246  23087297.647    23087307.1484
  23048267.166       21575.829 8     25970.37746  23048266.307    23048275.1734
 01  7 19 17  4  0.0000000  0  9 17 18 26 23 06 03 15 21 22
  20396821.428    -1958868.880 9  -1521546.45848  20396820.985    20396827.7184
  20521086.222    -9010567.047 9  -7003675.16248  20521085.928    20521091.4484
  22102831.883    -3350888.038 8  -2602653.27746  22102832.028    22102839.1604
  20574568.543    -3378790.746 9  -2329514.28348  20574568.113    20574574.6314
  22013227.686     6981715.236 8   5436528.56747  22013227.639    22013235.4314
  23474984.714    -8386769.999 8  -6521751.93045  23474984.696    23474993.5164
  20351138.822    -5624448.752 9  -4374836.31248  20351138.220    20351144.9454
  23071703.254   -11044823.711 8  -8581463.10546  23071702.793    23071712.2954
  23055724.448       60764.213 8     56506.69546  23055723.704    23055732.4194
 01  7 19 17  4 30.0000000  0  9 17 18 26 23 06 03 15 21 22
  20398181.346    -1951722.581 9  -1515977.91948  20398180.893    20398187.6434
  20513769.690    -9049015.784 9  -7033635.19148  20513769.373    20513774.8704
  22106248.261    -3332935.302 8  -2588664.14646  22106248.413    22106255.5844
  20576087.753    -3370807.382 9  -2323293.48148  20576087.301    20576093.8034
  22029675.843     7068150.519 8   5503880.63947  22029675.763    22029683.5854
  23456895.433    -8481831.071 8  -6595825.43545  23456895.249    23456903.9724
  20347057.465    -5645896.668 9  -4391548.96648  20347056.826    20347063.5364
  23056153.204   -11126538.747 8  -8645137.08046  23056152.857    23056162.3944
  23063271.594      100423.927 8     87410.28446  23063270.909    23063279.5014
 01  7 19 17  5  0.0000000  0  9 17 18 26 23 06 03 15 21 22
  20399593.598    -1944301.112 9  -1510194.95548  20399593.156    20399599.9074
  20506544.268    -9086985.413 9  -7063221.89548  20506543.985    20506549.4924
  22109786.528    -3314341.596 8  -2574175.55346  22109786.713    22109794.0084
  20577689.724    -3362388.732 9  -2316733.49548  20577689.272    20577695.7894
  22046188.213     7154923.696 8   5571496.01647  22046188.142    22046196.0314
  23438845.149    -8576685.685 8  -6669738.07045  23438844.975    23438853.6124
  20343032.395    -5667048.458 9  -4408030.87548  20343031.762    20343038.4904
  23040648.309   -11208017.193 8  -8708626.68846  23040647.952    23040657.5214
  23070907.973      140552.490 8    118679.23646  23070907.193    23070915.9364
 01  7 19 17  5 30.0000000  0  9 17 18 26 23 06 03 15 21 22
  20401058.259    -1936604.363 9  -1504197.48648  20401057.811    20401064.5554
  20499410.097    -9124475.774 9  -7092435.13748  20499409.784    20499415.2974
  22113446.558    -3295107.417 8  -2559187.89846  22113446.789    22113454.0694
  20579374.322    -3353536.146 9  -2309835.37348  20579373.886    20579380.3894
  22062764.584     7242032.854 8   5639373.18447  22062764.506    22062772.4644
  23420834.706    -8671331.452 8  -6743487.97545  23420834.543    23420843.0214
  20339063.685    -5687904.100 9  -4424282.01648  20339063.030    20339069.8164
  23025188.546   -11289258.090 8  -8771931.19146  23025188.214    23025197.8844
  23078633.161      181148.353 8    150312.30946  23078632.325    23078641.2704
 01  7 19 17  6  0.0000000  0  9 17 18 26 23 06 03 15 21 22
  20402575.422    -1928631.688 9  -1497985.01648  20402574.991    20402581.7524
  20492367.239    -9161486.150 9  -7121274.37048  20492366.940    20492372.4544
  22117228.603    -3275232.675 8  -2543701.09746  22117228.781    22117236.0764
  20581141.381    -3344250.127 9  -2302599.51048  20581140.923    20581147.4534
  22079404.771     7329477.069 8   5707511.45347  22079404.686    22079412.6944
  23402864.549    -8765765.807 8  -6817073.12245  23402864.254    23402872.6514
  20335151.452    -5708462.673 9  -4440301.68148  20335150.848    20335157.6584
  23009774.436   -11370260.108 8  -8835049.56046  23009774.065    23009783.6364
  23086447.015      222210.144 8    182308.42646  23086446.316    23086455.0264
 01  7 19 17  6 30.0000000  0  9 17 18 26 23 06 03 15 21 22
  20404145.059    -1920383.319 9  -1491557.71748  20404144.595    20404151.3714
  20485415.749    -9198016.633 9  -7149739.66048  20485415.402    20485420.9024
  22121132.384    -3254718.332 8  -2527715.89546  22121132.529    22121139.7864
  20582990.590    -3334532.345 9  -2295027.21048  20582990.152    20582996.7114
  22096108.187     7417254.263 8   5775909.17647  22096108.133    22096116.2624
  23384934.920    -8859986.712 8  -6890491.94745  23384934.547    23384942.8414
  20331295.861    -5728723.882 9  -4456089.63048  20331295.247    20331302.0804
  22994406.064   -11451022.036 8  -8897980.83846  22994405.574    22994415.0464
  23094349.164      263734.957 8    214665.32046  23094348.415    23094357.0224
 01  7 19 17  7  0.0000000  0  9 17 18 26 23 06 03 15 21 22
  20405767.132    -1911859.160 9  -1484915.51648  20405766.672    20405773.4684
  20478555.550    -9234066.875 9  -7177830.74048  20478555.231    20478560.7384
  22125157.731    -3233565.021 8  -2511232.78846  22125157.862    22125165.0664
  20584921.757    -3324384.038 9  -2287119.43848  20584921.305    20584927.8924
  22112874.604     7505362.406 8   5844564.77747  22112874.555    22112882.7834
  23367046.363    -8953991.742 8  -6963742.57545  23367046.081    23367054.2694
  20327496.892    -5748687.633 9  -4471645.79448  20327496.257    20327503.0914
  22979083.276   -11531543.412 8  -8960724.68546  22979082.872    22979092.2364
  23102338.617      305720.323 8    247381.12546  23102337.925    23102346.6444
 01  7 19 17  7 30.0000000  0  9 17 18 26 23 06 03 15 21 22
  20407441.998    -1903057.874 9  -1478057.37648  20407441.512    20407448.3304
  20471787.010    -9269635.757 9  -7205546.73048  20471786.687    20471792.1834
  22129304.812    -3211772.388 8  -2494251.52446  22129304.971    22129312.1414
  20586934.852    -3313805.312 9  -2278876.27648  20586934.392    20586940.9574
  22129703.982     7593800.989 8   5913477.86046  22129703.905    22129712.1864
  23349199.450    -9047777.655 8  -7036822.45045  23349199.226    23349207.3654
  20323754.804    -5768352.515 9  -4486969.07648  20323754.188    20323761.0034
  22963806.589   -11611822.440 8  -9023279.68646  22963806.208    22963815.5174
  23110415.612      348165.436 8    280455.16646  23110414.973    23110423.7664
 01  7 19 17  8  0.0000000  0  9 17 18 26 23 06 03 15 21 22
  20409169.365    -1893980.404 9  -1470984.02247  20409168.866    20409175.6984
  20465109.902    -9304724.195 9  -7232888.34448  20465109.560    20465115.0334
  22133573.178    -3189341.823 8  -2476773.18646  22133573.316    22133580.5564
  20589029.392    -3302798.372 9  -2270299.43748  20589028.942    20589035.5164
  22146595.710     7682567.304 8   5982646.32746  22146595.661    22146603.9364
  23331394.552    -9141343.007 8  -7109730.45145  23331394.232    23331402.4214
  20320069.425    -5787719.304 9  -4502060.07848  20320068.799    20320075.6084
  22948576.029   -11691859.405 8  -9085646.06646  22948575.692    22948584.9024
  23118579.807      391067.516 8    313885.29546  23118579.051    23118587.7574
 01  7 19 17  8 30.0000000  0  9 17 18 26 23 06 03 15 21 22
  20410949.276    -1884626.800 9  -1463695.50247  20410948.794    20410955.6224
  20458524.205    -9339332.022 9  -7259855.46048  20458523.869    20458529.3844
  22137962.677    -3166274.298 8  -2458798.51446  22137962.817    22137970.1774
  20591205.134    -3291364.543 9  -2261389.96248  20591204.726    20591211.3074
  22163549.487     7771659.436 8   6052068.66747  22163549.454    22163557.7684
  23313632.020    -9234685.531 8  -7182464.83045  23313631.709    23313639.8234
  20316440.844    -5806787.678 9  -4516918.54848  20316440.201    20316447.0394
  22933391.862   -11771653.106 8  -9147822.89446  22933391.454    22933400.5344
  23126830.241      434424.242 8    347669.69746  23126829.489    23126838.2404
 01  7 19 17  9  0.0000000  0  9 17 18 26 23 06 03 15 21 22
  20412781.942    -1874995.773 9  -1456190.81447  20412781.475    20412788.3394
  20452030.160    -9373458.221 9  -7286447.28248  20452029.854    20452035.3704
  22142473.505    -3142569.394 8  -2440327.16446  22142473.754    22142480.9984
  20593462.093    -3279504.027 9  -2252148.00248  20593461.693    20593468.2904
  22180565.205     7861076.690 8   6121744.36246  22180565.084    22180573.3964
  23295912.501    -9327801.580 8  -7255022.75545  23295912.276    23295920.2294
  20312869.218    -5825556.287 9  -4531543.43648  20312868.604    20312875.5004
  22918254.116   -11851201.521 8  -9209808.59546  22918253.774    22918262.8724
  23135166.773      478233.860 8    381807.02046  23135166.118    23135175.0624
 01  7 19 17  9 30.0000000  0  9 17 18 26 23 06 03 15 21 22
  20414667.317    -1865088.028 9  -1448470.49247  20414666.820    20414673.6894
  20445627.695    -9407103.493 9  -7312664.35448  20445627.357    20445632.8594
  22147105.391    -3118228.894 8  -2421360.51946  22147105.608    22147112.7334
  20595799.879    -3267218.931 9  -2242575.19748  20595799.485    20595806.0734
  22197642.269     7950816.401 8   6191671.32546  22197642.132    22197650.3604
  23278236.309    -9420689.723 8  -7327403.09445  23278236.232    23278244.1534
  20309354.604    -5844025.596 9  -4545935.10148  20309354.017    20309360.9154
  22903163.055   -11930505.160 8  -9271603.56446  22903162.681    22903171.7724
  23143589.245      522493.257 8    416294.81446  23143588.557    23143597.5664
 01  7 19 17 10  0.0000000  0  9 17 18 26 23 06 03 15 21 22
  20416605.373    -1854903.256 9  -1440534.31147  20416604.938    20416611.8054
  20439316.879    -9440267.013 9  -7338506.03548  20439316.556    20439322.0494
  22151858.208    -3093253.015 8  -2401898.76746  22151858.427    22151865.4464
  20598218.308    -3254510.103 9  -2232672.21448  20598217.891    20598224.4734
  22214780.358     8040877.161 8   6261848.43946  22214780.277    22214788.3694
  23260604.034    -9513347.341 8  -7399603.77145  23260603.959    23260612.0954
  20305897.096    -5862195.068 9  -4560093.13048  20305896.520    20305903.4104
  22888118.987   -12009562.321 8  -9333206.46946  22888118.595    22888127.5744
  23152096.859      567200.830 8    451131.83846  23152096.117    23152105.0764
 01  7 19 17 10 30.0000000  0  9 17 18 26 23 06 03 15 21 22
  20418596.292    -1844441.065 9  -1432381.95847  20418595.840    20418602.6924
  20433097.690    -9472949.011 9  -7363972.50448  20433097.361    20433102.8674
  22156731.764    -3067642.675 8  -2381942.64446  22156731.934    22156738.9804
  20600717.124    -3241378.936 9  -2222440.13448  20600716.691    20600723.2474
  22231979.334     8131257.168 8   6332274.31746  22231979.171    22231987.1534
  23243016.175    -9605771.976 8  -7471622.90945  23243016.035    23243024.3484
  20302496.678    -5880064.395 9  -4574017.28048  20302496.084    20302502.9654
  22873121.815   -12088372.723 8  -9394617.07646  22873121.408    22873130.3904
  23160689.422      612354.808 8    486316.71046  23160688.669    23160697.5754
 01  7 19 17 11  0.0000000  0  9 17 18 26 23 06 03 15 21 22
  20420639.934    -1833701.698 9  -1424013.62447  20420639.475    20420646.3344
  20426970.120    -9505149.672 9  -7389063.91348  20426969.783    20426975.3114
  22161725.718    -3041398.825 8  -2361492.90746  22161725.956    22161733.0444
  20603296.000    -3227826.820 9  -2211880.04348  20603295.565    20603302.1064
  22249238.536     8221954.322 8   6402947.32746  22249238.382    22249246.2904
  23225473.096    -9697961.510 8  -7543458.86745  23225472.780    23225481.1814
  20299153.404    -5897633.468 9  -4587707.45748  20299152.809    20299159.6674
  22858171.555   -12166935.453 8  -9455834.71646  22858171.287    22858180.3544
  23169366.402      657952.228 8    521847.10846  23169365.601    23169374.4574
 01  7 19 17 11 30.0000000  0  9 17 18 26 23 06 03 15 21 22
  20422736.507    -1822684.248 9  -1415428.60447  20422736.044    20422742.8994
  20420934.309    -9536868.075 9  -7413779.53148  20420933.962    20420939.5004
  22166840.317    -3014521.567 8  -2340549.60746  22166840.525    22166847.7334
  20605954.878    -3213854.352 9  -2200992.39948  20605954.445    20605960.9774
  22266558.000     8312967.837 8   6473866.85146  22266557.793    22266565.6664
  23207975.288    -9789912.892 8  -7615109.23645  23207974.893    23207983.4404
  20295867.444    -5914901.232 9  -4601162.85548  20295866.884    20295873.6844
  22843269.100   -12245248.660 8  -9516857.91046  22843268.764    22843277.8244
  23178127.421      703991.176 8    557721.56346  23178126.647    23178135.5574
 01  7 19 17 12  0.0000000  0  9 17 18 26 23 06 03 15 21 22
  20424885.911    -1811389.118 9  -1406627.21547  20424885.456    20424892.3214
  20414990.114    -9568104.843 9  -7438119.85348  20414989.797    20414995.3454
  22172075.196    -2987012.425 8  -2319113.91146  22172075.381    22172082.6004
  20608693.381    -3199463.459 9  -2189778.71748  20608692.929    20608699.4754
  22283937.060     8404295.026 8   6545030.81146  22283936.842    22283944.7304
  23190522.980    -9881624.044 8  -7686572.41746  23190522.815    23190531.3414
  20292638.821    -5931867.967 9  -4614383.68048  20292638.229    20292644.9994
  22828414.090   -12323312.170 8  -9577686.54746  22828413.768    22828422.7024
  23186971.879      750468.921 8    593937.91246  23186971.134    23186980.1044
 01  7 19 17 12 30.0000000  0  9 17 18 26 23 06 03 15 21 22
  20427088.220    -1799815.842 9  -1397609.08347  20427087.761    20427094.6644
  20409137.704    -9598859.429 9  -7462084.44648  20409137.378    20409142.9374
  22177430.261    -2958871.899 8  -2297186.21146  22177430.464    22177437.6234
  20611511.311    -3184655.172 9  -2178239.79048  20611510.878    20611517.4464
  22301375.430     8495934.546 8   6616438.13746  22301375.259    22301383.2224
  23173117.034    -9973092.608 8  -7757846.58446  23173116.915    23173125.3884
  20289467.546    -5948532.983 9  -4627369.39748  20289466.974    20289473.7324
  22813606.827   -12401125.151 8  -9638319.94646  22813606.379    22813615.3434
  23195899.556      797384.081 8    630495.13246  23195898.753    23195907.8714
 01  7 19 17 13  0.0000000  0  9 17 18 26 23 06 03 15 21 22
  20429343.448    -1787964.573 9  -1388374.33247  20429342.990    20429349.8994
  20403376.942    -9629132.291 9  -7485673.67348  20403376.616    20403382.1474
  22182905.152    -2930101.270 8  -2274767.50746  22182905.364    22182912.4904
  20614408.315    -3169431.125 9  -2166376.89748  20614407.882    20614414.4934
  22318872.801     8587884.143 8   6688087.08346  22318872.646    22318880.7674
  23155757.808   -10064316.367 8  -7828929.96945  23155757.493    23155766.0374
  20286353.695    -5964896.353 9  -4640120.06748  20286353.100    20286359.8744
  22798847.133   -12478687.046 8  -9698757.71646  22798846.747    22798855.7034
  23204910.025      844733.875 8    667391.01246  23204909.295    23204918.3344
 01  7 19 17 13 30.0000000  0  9 17 18 26 23 06 03 15 21 22
  20431651.679    -1775834.849 9  -1378922.61047  20431651.232    20431658.1524
  20397707.918    -9658923.124 9  -7508887.28748  20397707.601    20397713.1084
  22188499.785    -2900701.084 8  -2251858.26246  22188499.971    22188507.1134
  20617384.275    -3153792.307 9  -2154190.80748  20617383.852    20617390.4694
  22336428.884     8680142.360 8   6759976.51846  22336428.812    22336436.9694
  23138445.784   -10155292.446 8  -7899820.37246  23138445.288    23138453.8374
  20283297.322    -5980957.632 9  -4652635.34148  20283296.736    20283303.4954
  22784135.451   -12555996.538 8  -9758998.80046  22784135.152    22784144.1944
  23214002.796      892515.905 8    704623.69146  23214002.101    23214010.9064
 01  7 19 17 14  0.0000000  0  9 17 18 26 23 06 03 15 21 22
  20434012.840    -1763426.623 9  -1369253.87747  20434012.418    20434019.3204
  20392130.634    -9688231.953 9  -7531725.31648  20392130.322    20392135.7764
  22194213.922    -2870672.575 8  -2228459.41546  22194214.115    22194221.3004
  20620438.948    -3137739.968 9  -2141682.49248  20620438.517    20620445.1344
  22354043.563     8772707.257 8   6832104.93246  22354043.378    22354051.5944
  23121180.972   -10246018.669 8  -7970516.08346  23121180.720    23121189.2404
  20280298.570    -5996716.364 9  -4664914.86548  20280297.952    20280304.6944
  22769472.055   -12633052.978 8  -9819042.70846  22769471.703    22769480.7964
  23223177.275      940727.405 8    742191.03546  23223176.449    23223185.3764
 01  7 19 17 14 30.0000000  0  9 17 18 26 23 06 03 15 21 22
  20436427.202    -1750739.074 9  -1359367.47947  20436426.776    20436433.6884
  20386645.208    -9717058.158 9  -7554187.27648  20386644.859    20386650.3224
  22200047.581    -2840015.979 8  -2204571.14946  22200047.836    22200054.9824
  20623572.170    -3121274.917 9  -2128852.58448  20623571.728    20623578.3294
  22371716.107     8865577.668 8   6904471.38046  22371716.003    22371724.4464
  23103964.499   -10336492.044 8  -8041014.77446  23103964.268    23103972.6754
  20277357.558    -6012171.603 9  -4676957.89548  20277356.948    20277363.6984
  22754857.084   -12709855.082 8  -9878888.43046  22754856.671    22754865.7964
  23232433.128      989367.231 8    780092.13046  23232432.371    23232441.3284
 01  7 19 17 15  0.0000000  0  9 17 18 26 23 06 03 15 21 22
  20438894.581    -1737773.219 9  -1349264.21847  20438894.118    20438901.0064
  20381251.325    -9745402.968 9  -7576274.12048  20381250.994    20381256.4524
  22206000.519    -2808733.709 8  -2180195.34046  22206000.725    22206007.8664
  20626783.459    -3104399.669 9  -2115703.03548  20626783.015    20626789.5954
  22389446.249     8958750.356 8   6977073.38146  22389446.238    22389454.7394
  23086796.485   -10426711.568 8  -8111315.63246  23086796.074    23086804.3654
  20274474.083    -6027324.179 9  -4688765.08948  20274473.484    20274480.2734
  22740290.278   -12786403.533 8  -9938536.49046  22740289.865    22740298.9994
  23241769.916     1038431.921 8    818324.29246  23241769.178    23241778.0804
 01  7 19 17 15 30.0000000  0  9 17 18 26 23 06 03 15 21 22
  20441415.027    -1724528.204 9  -1338943.43147  20441414.593    20441421.4474
  20375949.175    -9773265.655 9  -7597985.28448  20375948.844    20375954.3164
  22212072.388    -2776825.845 8  -2155332.04746  22212072.582    22212079.7384
  20630072.636    -3087114.885 9  -2102234.36748  20630072.198    20630078.7664
  22407233.931     9052224.415 8   7049910.22146  22407233.864    22407242.3944
  23069677.016   -10516673.778 8  -8181416.00746  23069676.845    23069685.0774
  20271648.445    -6042173.001 9  -4700335.59248  20271647.840    20271654.6744
  22725772.058   -12862696.697 8  -9997985.61746  22725771.666    22725780.8174
  23251187.176     1087919.789 8    856886.22546  23251186.389    23251195.4074
 01  7 19 17 16  0.0000000  0  9 17 18 26 23 06 03 15 21 22
  20443988.682    -1711003.573 9  -1328404.76847  20443988.251    20443995.1004
  20370738.782    -9800646.269 9  -7619320.80848  20370738.461    20370743.9534
  22218263.050    -2744293.432 8  -2129982.10946  22218263.296    22218270.4464
  20633439.555    -3069421.698 9  -2088447.47048  20633439.067    20633445.6424
  22425078.590     9145998.219 8   7122980.62846  22425078.531    22425087.0474
  23052607.351   -10606375.941 8  -8251313.74146  23052607.122    23052615.2754
  20268880.683    -6056717.620 9  -4711669.05548  20268880.066    20268886.9444
  22711302.687   -12938733.240 8 -10057234.79046  22711302.352    22711311.4614
  23260684.236     1137828.181 8    895775.81646  23260683.574    23260692.7434
 01  7 19 17 16 30.0000000  0  9 17 18 26 23 06 03 15 21 22
  20446615.524    -1697199.729 9  -1317648.53347  20446615.053    20446621.8974
  20365620.054    -9827545.273 9  -7640281.05548  20365619.755    20365625.2674
  22224572.386    -2711137.853 8  -2104146.59246  22224572.588    22224579.7044
  20636883.767    -3051322.232 9  -2074343.99048  20636883.273    20636889.8604
  22442979.894     9240069.208 8   7196282.59346  22442979.788    22442988.3084
  23035587.484   -10695816.243 8  -8321007.42746  23035587.184    23035595.2144
  20266170.785    -6070958.245 9  -4722765.63548  20266170.162    20266177.0684
  22696882.355   -13014513.058 8 -10116283.92246  22696882.025    22696890.9724
  23270261.075     1188154.139 8    934990.79246  23270260.354    23270269.5644
 01  7 19 17 17  0.0000000  0  9 17 18 26 23 06 03 15 21 22
  20449295.455    -1683116.597 9  -1306674.67047  20449295.008    20449301.8674
  20360592.916    -9853962.746 9  -7660866.08248  20360592.655    20360598.1484
  22231000.090    -2677360.587 8  -2077826.63746  22231000.239    22231007.2244
  20640405.022    -3032817.919 9  -2059925.03848  20640404.515    20640411.1164
  22460937.301     9334435.300 8   7269814.51446  22460937.226    22460945.7254
  23018617.846   -10784992.523 8  -8390495.39346  23018617.553    23018625.4484
  20263518.770    -6084894.479 9  -4733625.02748  20263518.158    20263525.0424
  22682510.883   -13090035.247 8 -10175132.28146  22682510.555    22682519.4424
  23279916.812     1238895.586 8    974529.52146  23279916.030    23279925.3454
 01  7 19 17 17 30.0000000  0  9 17 18 26 23 06 03 15 21 22
  20452028.658    -1668753.448 9  -1295482.61047  20452028.196    20452035.0604
  20355657.565    -9879898.380 9  -7681075.64948  20355657.292    20355662.7424
  22237545.823    -2642962.120 8  -2051022.61646  22237546.057    22237552.9764
  20644003.148    -3013909.459 9  -2045191.17048  20644002.665    20644009.2734
  22478950.472     9429095.091 8   7343575.28146  22478950.476    22478958.9784
  23001698.952   -10873901.601 8  -8459775.14546  23001698.705    23001706.5094
  20260924.845    -6098525.496 9  -4744246.58848  20260924.244    20260931.1154
  22668188.648   -13165298.852 8 -10233779.16246  22668188.380    22668197.1324
  23289651.308     1290050.837 8   1014390.71346  23289650.610    23289659.9104
 01  7 19 17 18  0.0000000  0  9 17 18 26 23 06 03 15 21 22
  20454815.258    -1654109.637 9  -1284071.85547  20454814.816    20454821.7004
  20350813.913    -9905352.056 9  -7700909.66748  20350813.615    20350819.0774
  22244209.682    -2607943.291 8  -2023735.19446  22244209.914    22244216.9084
  20647677.981    -2994597.820 9  -2030143.13648  20647677.530    20647684.1424
  22497019.434     9524047.272 8   7417563.87346  22497019.317    22497027.8704
  22984831.505   -10962540.742 8  -8528844.55046  22984831.203    22984839.0284
  20258389.179    -6111850.477 9  -4754629.67848  20258388.569    20258395.4354
  22653915.998   -13240302.456 8 -10292223.44446  22653915.691    22653924.3704
  23299464.220     1341617.427 8   1054572.39746  23299463.527    23299472.6514
 01  7 19 17 18 30.0000000  0  9 17 18 26 23 06 03 15 21 22
  20457654.996    -1639186.651 9  -1272443.55847  20457654.541    20457661.4594
  20346061.634    -9930325.477 9  -7720369.46548  20346061.335    20346066.8034
  22250991.081    -2572306.788 8  -1995966.48346  22250991.270    22250998.3344
  20651428.995    -2974886.071 9  -2014783.32648  20651428.573    20651435.1904
  22515143.237     9619288.244 8   7491777.53246  22515143.121    22515151.6774
  22968015.601   -11050909.066 8  -8597702.93846  22968015.174    22968023.0474
  20255911.436    -6124870.798 9  -4764775.37448  20255910.865    20255917.7294
  22639692.649   -13315047.044 8 -10350465.88946  22639692.227    22639700.8304
  23309354.715     1393590.914 8   1095071.15046  23309353.880    23309362.8864
 01  7 19 17 19  0.0000000  0  9 17 18 26 23 06 03 15 21 22
  20460548.328    -1623982.392 9  -1260596.08247  20460547.867    20460554.7914
  20341401.108    -9954816.714 9  -7739453.52748  20341400.771    20341406.2424
  22257890.035    -2536052.123 8  -1967716.09546  22257890.243    22257897.4464
  20655256.267    -2954773.655 9  -1999111.30548  20655255.834    20655262.4664
  22533321.992     9714817.956 8   7566216.17446  22533321.896    22533330.4634
  22951251.854   -11139002.239 8  -8666346.92346  22951251.559    22951259.3594
  20253492.160    -6137584.166 9  -4774681.88548  20253491.590    20253498.4534
  22625518.920   -13389529.859 8 -10408504.34346  22625518.510    22625527.0934
  23319322.308     1445971.213 8   1135886.90346  23319321.639    23319330.5104
 01  7 19 17 19 30.0000000  0  9 17 18 26 23 06 03 15 21 22
  20463494.969    -1608497.678 9  -1248530.07347  20463494.527    20463501.4394
  20336832.119    -9978827.118 9  -7758162.92248  20336831.754    20336837.2304
  22264906.288    -2499181.471 8  -1938985.72146  22264906.506    22264913.6654
  20659159.301    -2934263.132 9  -1983129.07648  20659158.842    20659165.4874
  22551555.032     9810633.512 8   7640877.52746  22551554.993    22551563.6694
  22934540.812   -11226819.045 8  -8734775.55446  22934540.538    22934548.2804
  20251131.106    -6149991.492 9  -4784349.92948  20251130.534    20251137.3854
  22611394.881   -13463751.450 8 -10466339.26046  22611394.478    22611403.0634
  23329366.758     1498755.137 8   1177017.16046  23329366.126    23329374.9014
 01  7 19 17 20  0.0000000  0  9 17 18 26 23 06 03 15 21 22
  20466495.155    -1592731.808 9  -1236244.97747  20466494.671    20466501.5994
  20332354.685   -10002356.080 9  -7776497.15748  20332354.334    20332359.7844
  22272039.601    -2461695.462 8  -1909775.85346  22272039.758    22272047.0104
  20663137.914    -2913355.341 9  -1966837.28248  20663137.468    20663144.0984
  22569842.416     9906733.724 8   7715760.71146  22569842.224    22569850.9634
  22917883.065   -11314356.151 8  -8802986.22846  22917882.650    22917890.5394
  20248828.513    -6162091.485 9  -4793778.48548  20248827.968    20248834.8124
  22597320.792   -13537710.317 8 -10523969.44346  22597320.451    22597329.0474
  23339487.543     1551940.543 8   1218460.29046  23339486.930    23339495.9044
 01  7 19 17 20 30.0000000  0  9 17 18 26 23 06 03 15 21 22
  20469548.987    -1576683.888 9  -1223740.10547  20469548.536    20469555.4154
  20327968.942   -10025403.370 9  -7794456.06948  20327968.570    20327974.0204
  22279289.760    -2423594.885 8  -1880087.11446  22279289.939    22279297.2824
  20667191.997    -2892051.089 9  -1950236.56148  20667191.521    20667198.1604
  22588183.528    10003117.041 8   7790864.48046  22588183.405    22588192.1084
  22901278.682   -11401610.525 8  -8870976.59646  22901278.615    22901286.5124
  20246584.615    -6173883.349 9  -4802966.94348  20246584.071    20246590.8984
  22583296.882   -13611405.646 8 -10581394.29146  22583296.559    22583305.2114
  23349684.324     1605525.074 8   1260214.41446  23349683.700    23349692.9104
 01  7 19 17 21  0.0000000  0  9 17 18 26 23 06 03 15 21 22
  20472656.167    -1560355.558 9  -1211016.73247  20472655.725    20472662.5814
  20323674.426   -10047970.849 9  -7812041.09748  20323674.083    20323679.5344
  22286656.346    -2384882.885 8  -1849921.92146  22286656.588    22286663.8564
  20671320.937    -2870353.400 9  -1933329.26348  20671320.493    20671327.0984
  22606577.953    10099779.752 8   7866185.96246  22606577.822    22606586.4944
  22884728.837   -11488581.495 8  -8938746.11646  22884728.512    22884736.4874
  20244399.028    -6185368.662 9  -4811916.53348  20244398.475    20244405.2694
  22569323.051   -13684838.174 8 -10638614.34346  22569322.703    22569331.3424
  23359956.475     1659504.597 8   1302276.32946  23359955.749    23359965.0974
 01  7 19 17 21 30.0000000  0  9 17 18 26 23 06 03 15 21 22
  20475816.935    -1543746.013 9  -1198074.23547  20475816.467    20475823.2784
  20319471.290   -10070058.357 9  -7829252.12148  20319470.973    20319476.3994
  22294139.463    -2345560.157 8  -1819280.80546  22294139.598    22294146.7294
  20675524.620    -2848263.195 9  -1916116.11148  20675524.123    20675530.7014
  22625025.316    10196720.602 8   7941724.18646  22625025.210    22625033.7154
  22868233.285   -11575265.939 8  -9006292.39346  22868232.982    22868240.9304
  20242272.028    -6196546.343 9  -4820626.40748  20242271.437    20242278.2254
  22555399.363   -13758006.933 8 -10695628.86846  22555399.072    22555407.7084
  23370303.347     1713877.606 8   1344644.86146  23370302.566    23370312.0794
 01  7 19 17 22  0.0000000  0  9 17 18 26 23 06 03 15 21 22
  20479031.048    -1526855.808 9  -1184913.03947  20479030.572    20479037.3814
  20315359.343   -10091666.646 9  -7846089.72948  20315359.050    20315364.4724
  22301738.253    -2305628.809 8  -1788165.44846  22301738.398    22301745.3514
  20679802.494    -2825782.610 9  -1898598.77048  20679802.021    20679808.5884
  22643525.145    10293936.784 8   8017476.94046  22643525.024    22643533.4344
  22851792.622   -11661662.294 8  -9073614.17446  22851792.313    22851800.2274
  20240203.471    -6207416.656 9  -4829096.77948  20240202.899    20240209.6584
  22541526.056   -13830911.345 8 -10752437.40846  22541525.756    22541534.3904
  23380724.498     1768640.769 8   1387317.39746  23380723.751    23380733.2214
 01  7 19 17 22 30.0000000  0  9 17 18 26 23 06 03 15 21 22
  20482298.844    -1509683.647 9  -1171532.13647  20482298.350    20482305.1134
  20311338.733   -10112794.920 9  -7862553.29848  20311338.433    20311343.8534
  22309452.648    -2265088.986 8  -1756575.96946  22309452.798    22309459.8094
  20684154.636    -2802912.081 9  -1880777.57248  20684154.168    20684160.7134
  22662077.190    10391427.694 8   8093443.77346  22662077.110    22662085.4854
  22835407.363   -11747767.094 8  -9140708.75946  22835407.087    22835415.0784
  20238193.751    -6217977.957 9  -4837326.35748  20238193.170    20238199.9324
  22527703.432   -13903549.856 8 -10809038.74846  22527703.066    22527711.7024
  23391219.686     1823792.580 8   1430292.74846  23391218.976    23391228.2364
 01  7 19 17 23  0.0000000  0  9 17 18 26 23 06 03 15 21 22
  20485620.699    -1492227.019 9  -1157929.57647  20485620.240    20485627.0324
  20307409.832   -10133441.298 9  -7878641.36648  20307409.513    20307414.9394
  22317282.895    -2223940.126 8  -1724511.94646  22317283.106    22317290.1824
  20688581.137    -2779650.848 9  -1862651.93448  20688580.664    20688587.2114
  22680681.608    10489193.408 8   8169624.73946  22680681.471    22680689.8204
  22819078.338   -11833575.587 8  -9207572.47346  22819078.251    22819086.2734
  20236243.211    -6228228.177 9  -4845313.52748  20236242.621    20236249.3614
  22513931.908   -13975919.803 8 -10865430.82746  22513931.520    22513940.1164
  23401788.601     1879332.083 8   1473570.24146  23401787.750    23401797.0304
 01  7 19 17 23 30.0000000  0  9 17 18 26 23 06 03 15 21 22
  20488996.171    -1474488.724 9  -1144107.52547  20488995.693    20489002.5014
  20303572.042   -10153608.939 9  -7894356.38848  20303571.720    20303577.1524
  22325228.397    -2182186.567 8  -1691976.73546  22325228.596    22325235.7194
  20693081.091    -2756003.339 9  -1844225.30148  20693080.608    20693087.1364
  22699337.147    10587229.149 8   8246016.12146  22699337.076    22699345.5984
  22802805.907   -11919088.154 8  -9274205.58246  22802805.676    22802813.7114
  20234351.412    -6238169.582 9  -4853060.06548  20234350.830    20234357.5534
  22500211.129   -14048023.293 8 -10921615.27246  22500210.708    22500219.3054
  23412430.076     1935254.296 8   1517145.93146  23412429.432    23412438.6694
 01  7 19 17 24  0.0000000  0  9 17 18 26 23 06 03 15 21 22
  20492425.167    -1456469.252 9  -1130066.37747  20492424.700    20492431.5134
  20299825.196   -10173298.755 9  -7909699.08048  20299824.864    20299830.2884
  22333288.568    -2139830.411 8  -1658971.96146  22333288.686    22333295.8744
  20697654.160    -2731971.717 9  -1825499.35748  20697653.683    20697660.2064
  22718043.637    10685532.169 8   8322615.76046  22718043.596    22718052.2004
  22786590.039   -12004302.977 8  -9340606.69646  22786589.862    22786597.7664
  20232518.345    -6247802.478 9  -4860566.21248  20232517.749    20232524.4784
  22486541.036   -14119860.420 8 -10977592.16946  22486540.562    22486549.0934
  23423144.057     1991556.350 8   1561017.57646  23423143.475    23423152.6244
 01  7 19 17 24 30.0000000  0  9 17 18 26 23 06 03 15 21 22
  20495907.913    -1438167.178 9  -1115805.02847  20495907.449    20495914.2644
  20296169.439   -10192509.933 9  -7924668.81048  20296169.105    20296174.4924
  22341463.215    -2096871.900 8  -1625497.81846  22341463.407    22341470.6454
  20702300.312    -2707556.111 9  -1806474.20748  20702299.796    20702306.3064
  22736800.766    10784101.620 8   8399423.01146  22736800.770    22736809.4204
  22770431.511   -12089216.569 8  -9406773.06446  22770431.288    22770439.1474
  20230744.241    -6257125.299 9  -4867830.74148  20230743.648    20230750.3854
  22472921.909   -14191428.924 8 -11033359.74546  22472921.460    22472929.9954
  23433930.201     2048236.695 8   1605183.99846  23433929.458    23433938.6824
 01  7 19 17 25  0.0000000  0  9 17 18 26 23 06 03 15 21 22
  20499444.598    -1419581.890 9  -1101322.99547  20499444.130    20499450.9264
  20292604.753   -10211242.412 9  -7939265.52648  20292604.452    20292609.7904
  22349752.315    -2053312.109 8  -1591555.13946  22349752.508    22349759.7564
  20707019.268    -2682757.530 9  -1787150.63748  20707018.789    20707025.3244
  22755608.420    10882935.968 8   8476436.68146  22755608.350    22755617.1614
  22754330.722   -12173826.080 8  -9472702.51046  22754330.645    22754338.4254
  20229029.321    -6266137.238 9  -4874853.02648  20229028.745    20229035.4844
  22459353.943   -14262728.060 8 -11088917.43847  22459353.543    22459362.1454
  23444787.664     2105292.698 8   1649643.14046  23444786.862    23444796.0924
 01  7 19 17 25 30.0000000  0  9 17 18 26 23 06 03 15 21 22
  20503035.127    -1400713.580 9  -1086620.42347  20503034.644    20503041.4294
  20289131.107   -10229496.808 9  -7953489.70948  20289130.807    20289136.0974
  22358155.596    -2009153.073 8  -1557145.49246  22358155.771    22358162.9344
  20711810.761    -2657578.035 9  -1767530.24848  20711810.282    20711816.7944
  22774465.824    10982032.669 8   8553654.77546  22774465.766    22774474.7154
  22738288.388   -12258129.518 8  -9538393.44846  22738288.321    22738296.0054
  20227373.501    -6274838.575 9  -4881633.28048  20227372.921    20227379.6664
  22445837.361   -14333757.587 8 -11144265.05447  22445836.990    22445845.6044
  23455716.047     2162721.207 8   1694392.53046  23455715.265    23455724.4944
 01  7 19 17 26  0.0000000  0  9 17 18 26 23 06 03 15 21 22
  20506679.554    -1381562.022 9  -1071697.14047  20506679.082    20506685.8724
  20285748.345   -10247273.330 9  -7967341.52748  20285748.029    20285753.3224
  22366672.521    -1964396.281 8  -1522270.05346  22366672.724    22366679.7934
  20716674.486    -2632019.064 9  -1747614.15748  20716674.005    20716680.5084
  22793372.811    11081389.920 8   8631075.89646  22793372.766    22793381.9704
  22722304.983   -12342124.158 8  -9603843.76046  22722304.656    22722312.2944
  20225776.858    -6283228.946 9  -4888171.22148  20225776.266    20225783.0364
  22432372.183   -14404516.831 8 -11199402.04746  22432371.862    22432380.4724
  23466714.874     2220520.249 8   1739430.65945  23466714.152    23466723.3704
 01  7 19 17 26 30.0000000  0  9 17 18 26 23 06 03 15 21 22
  20510377.920    -1362126.883 9  -1056552.88047  20510377.461    20510384.2474
  20282456.361   -10264572.719 9  -7980821.55348  20282456.018    20282461.3694
  22375302.903    -1919043.254 8  -1486930.03646  22375303.060    22375310.1474
  20721610.097    -2606082.203 9  -1727403.61548  20721609.608    20721616.1484
  22812329.100    11181005.770 8   8708698.50446  22812328.994    22812338.3454
  22706380.389   -12425807.648 8  -9669051.63546  22706380.180    22706387.8034
  20224239.510    -6291307.798 9  -4894466.42148  20224238.921    20224245.7064
  22418958.554   -14475005.459 8 -11254328.18146  22418958.218    22418966.7844
  23477783.785     2278687.308 8   1784755.60046  23477782.940    23477792.3254
 01  7 19 17 27  0.0000000  0  9 17 18 26 23 06 03 15 21 22
  20514130.285    -1342408.178 9  -1041187.66147  20514129.804    20514136.5704
  20279255.103   -10281395.241 9  -7993929.99548  20279254.764    20279260.1204
  22384046.388    -1873095.870 8  -1451126.90246  22384046.547    22384053.6654
  20726617.313    -2579769.052 9  -1706899.86248  20726616.832    20726623.3724
  22831334.201    11280877.916 8   8786520.84346  22831334.066    22831343.4544
  22690515.610   -12509177.674 8  -9734015.24346  22690515.303    22690522.9804
  20222761.505    -6299074.725 9  -4900518.56448  20222760.874    20222767.6774
  22405596.546   -14545222.850 8 -11309042.95246  22405596.209    22405604.7454
  23488921.940     2337219.348 8   1830364.92145  23488921.178    23488930.7014
 01  7 19 17 27 30.0000000  0  9 17 18 26 23 06 03 15 21 22
  20517936.685    -1322405.496 9  -1025601.15747  20517936.218    20517942.9634
  20276144.586   -10297741.202 9  -8006667.08848  20276144.208    20276149.5714
  22392902.684    -1826555.454 8  -1414861.65746  22392902.886    22392910.0644
  20731695.876    -2553080.928 9  -1686103.92348  20731695.406    20731701.9824
  22850387.741    11381004.570 8   8864541.50546  22850387.615    22850397.0434
  22674710.711   -12592231.331 8  -9798732.32946  22674710.675    22674718.3644
  20221342.954    -6306529.389 9  -4906327.38448  20221342.336    20221349.1204
  22392286.433   -14615167.961 8 -11363545.56846  22392286.073    22392294.5724
  23500129.156     2396113.515 8   1876256.39645  23500128.330    23500137.8374
 01  7 19 17 28  0.0000000  0  9 17 18 26 23 06 03 15 21 22
  20521797.151    -1302118.610 9  -1009793.19947  20521796.696    20521803.4194
  20273124.651   -10313610.866 9  -8019033.03848  20273124.268    20273129.6664
  22401871.582    -1779423.687 8  -1378135.62146  22401871.787    22401878.9644
  20736845.501    -2526019.308 9  -1665016.94548  20736845.061    20736851.6334
  22869489.511    11481383.920 8   8942759.05146  22869489.341    22869498.6944
  22658966.900   -12674966.340 8  -9863201.12746  22658966.714    22658974.3504
  20219983.937    -6313671.201 9  -4911892.42748  20219983.317    20219990.0764
  22379028.231   -14684840.213 8 -11417835.55547  22379027.832    22379036.2024
  23511404.794     2455367.519 8   1922428.24945  23511404.084    23511413.4864
 01  7 19 17 28 30.0000000  0  9 17 18 26 23 06 03 15 21 22
  20525711.580    -1281548.157 9   -993764.27947  20525711.136    20525717.8584
  20270195.103   -10329005.696 9  -8031028.99248  20270194.726    20270200.1014
  22410952.563    -1731703.094 8  -1340950.76346  22410952.730    22410959.9024
  20742065.721    -2498586.589 9  -1643640.80448  20742065.307    20742071.8834
  22888638.871    11582012.849 8   9021171.06246  22888638.615    22888647.9614
  22643283.860   -12757380.953 8  -9927420.25946  22643283.721    22643291.3484
  20218684.308    -6320500.692 9  -4917214.10848  20218683.716    20218690.4724
  22365821.867   -14754239.880 8 -11471913.15547  22365821.504    22365829.7294
  23522748.411     2514978.169 8   1968878.02145  23522747.710    23522757.1254
 01  7 19 17 29  0.0000000  0  9 17 18 26 23 06 03 15 21 22
  20529680.228    -1260692.940 9   -977513.46147  20529679.778    20529686.4804
  20267356.076   -10343925.003 9  -8042654.40848  20267355.692    20267361.0344
  22420145.399    -1683394.377 8  -1303307.64446  22420145.576    22420152.7454
  20747356.569    -2470783.125 9  -1621975.76548  20747356.144    20747362.6774
  22907835.356    11682890.466 8   9099776.87846  22907835.186    22907844.3944
  22627662.389   -12839471.899 8  -9991387.19046  22627662.295    22627669.9184
  20217444.405    -6327016.553 9  -4922291.39148  20217443.795    20217450.5524
  22352667.576   -14823365.596 8 -11525777.27247  22352667.241    22352675.4004
  23534159.681     2574943.765 8   2015604.37645  23534158.991    23534168.4184
 01  7 19 17 29 30.0000000  0  9 17 18 26 23 06 03 15 21 22
  20533702.877    -1239553.617 9   -961041.26747  20533702.424    20533709.1194
  20264607.259   -10358369.982 9  -8053910.21448  20264606.905    20264612.2194
  22429449.627    -1634500.040 8  -1265208.17546  22429449.825    22429457.0364
  20752717.570    -2442611.291 9  -1600023.69148  20752717.113    20752723.6084
  22927078.680    11784013.873 8   9178574.20746  22927078.583    22927087.6194
  22612102.848   -12921237.475 8 -10055100.58646  22612102.717    22612110.3474
  20216264.028    -6333219.356 9  -4927124.73648  20216263.422    20216270.1934
  22339565.492   -14892217.584 8 -11579428.09447  22339565.141    22339573.2774
  23545637.799     2635260.255 8   2062604.16445  23545636.994    23545646.4264
 01  7 19 17 30  0.0000000  0  9 17 18 26 23 06 03 15 21 22
  20537779.830    -1218129.319 9   -944347.02047  20537779.361    20537786.0774
  20261948.750   -10372340.740 9  -8064796.49948  20261948.355    20261953.6444
  22438865.258    -1585021.402 8  -1226653.39646  22438865.406    22438872.4754
  20758148.362    -2414072.240 9  -1577785.47148  20758147.943    20758154.4314
  22946368.531    11885381.515 8   9257561.84846  22946368.390    22946377.2414
  22596605.740   -13002674.762 8 -10118558.15646  22596605.705    22596613.3574
  20215143.444    -6339108.102 9  -4931713.36248  20215142.818    20215149.5924
  22326515.705   -14960794.774 8 -11632864.78447  22326515.275    22326523.4494
  23557182.010     2695925.370 8   2109875.55845  23557181.362    23557190.4984
 01  7 19 17 30 30.0000000  0  9 17 18 26 23 06 03 15 21 22
  20541910.958    -1196420.003 9   -927430.67447  20541910.501    20541917.2334
  20259380.312   -10385837.841 9  -8075313.70248  20259379.933    20259385.2224
  22448391.686    -1534960.200 8  -1187644.67046  22448391.782    22448398.8264
  20763648.732    -2385167.555 9  -1555262.34348  20763648.295    20763654.8034
  22965704.354    11986991.154 8   9336738.04546  22965704.213    22965712.9474
  22581171.831   -13083781.180 8 -10181757.90646  22581171.610    22581179.3084
  20214082.725    -6344682.380 9  -4936056.94948  20214082.092    20214088.8424
  22313518.288   -15029096.355 8 -11686086.72547  22313517.893    22313526.0424
  23568792.165     2756937.016 8   2157417.03045  23568791.505    23568800.5694
 01  7 19 17 31  0.0000000  0  9 17 18 26 23 06 03 15 21 22
  20546096.510    -1174424.830 9   -910291.58347  20546096.054    20546102.7694
  20256902.086   -10398860.995 9  -8085461.60148  20256901.699    20256906.9624
  22458028.560    -1484317.610 8  -1148182.93046  22458028.671    22458035.8214
  20769218.567    -2355898.033 9  -1532454.92448  20769218.100    20769224.6234
  22985085.890    12088841.396 8   9416101.74846  22985085.796    22985094.4074
  22565801.187   -13164553.643 8 -10244697.43646  22565801.071    22565808.7304
  20213081.950    -6349941.312 9  -4940154.80548  20213081.345    20213088.0684
  22300573.495   -15097121.402 8 -11739093.18647  22300573.135    22300581.2234
  23580467.812     2818293.122 8   2205226.91945  23580467.053    23580476.5404
 01  7 19 17 31 30.0000000  0  9 17 18 26 23 06 03 15 21 22
  20550336.429    -1152144.015 9   -892929.91447  20550335.948    20550342.6804
  20254513.854   -10411411.080 9  -8095240.87248  20254513.492    20254518.7204
  22467775.611    -1433095.885 8  -1108269.93546  22467775.752    22467782.9584
  20774857.366    -2326265.823 9  -1509364.89348  20774856.936    20774863.4644
  23004512.722    12190929.726 8   9495650.95646  23004512.637    23004521.2754
  22550494.674   -13244990.168 8 -10307375.19546  22550494.468    22550502.1084
  20212141.234    -6354884.927 9  -4944006.95748  20212140.616    20212147.3284
  22287681.422   -15164869.683 8 -11791883.98747  22287681.079    22287689.1624
  23592208.378     2879990.340 8   2253302.60045  23592207.684    23592217.3534
 01  7 19 17 32  0.0000000  0  9 17 18 26 23 06 03 15 21 22
  20554630.663    -1129577.775 9   -875345.83547  20554630.176    20554636.8934
  20252215.369   -10423489.534 9  -8104652.64048  20252215.023    20252220.2504
  22477632.571    -1381297.558 8  -1067907.61246  22477632.709    22477639.9134
  20780564.774    -2296273.117 9  -1485993.95148  20780564.345    20780570.8994
  23023984.455    12293253.547 8   9575383.64546  23023984.268    23023992.9414
  22535252.280   -13325089.261 8 -10369790.03046  22535252.080    22535259.7124
  20211260.464    -6359513.523 9  -4947613.64648  20211259.826    20211266.5194
  22274842.032   -15232341.310 8 -11844459.20047  22274841.598    22274849.6824
  23604013.446     2942024.859 8   2301641.08445  23604012.561    23604022.1534
 01  7 19 17 32 30.0000000  0  9 17 18 26 23 06 03 15 21 22
  20558979.246    -1106725.910 9   -857539.19047  20558978.735    20558985.4464
  20250006.679   -10435096.380 9  -8113696.92348  20250006.332    20250011.5704
  22487599.043    -1328923.977 8  -1027097.06146  22487599.129    22487606.3164
  20786340.606    -2265921.052 9  -1462342.99148  20786340.126    20786346.6734
  23043500.663    12395811.262 8   9655298.60046  23043500.437    23043509.1484
  22520074.703   -13404847.818 8 -10431939.50146  22520074.507    22520082.1574
  20210439.759    -6363826.431 9  -4950974.34348  20210439.114    20210445.8134
  22262055.344   -15299535.393 8 -11896818.15847  22262054.930    22262062.9614
  23615882.070     3004394.620 7   2350240.82045  23615881.276    23615890.5354
 01  7 19 17 33  0.0000000  0  9 17 18 26 23 06 03 15 21 22
  20563382.352    -1083587.528 9   -839509.29447  20563381.857    20563388.5654
  20247887.641   -10446231.713 9  -8122373.79248  20247887.329    20247892.5574
  22497674.700    -1275976.700 8   -985839.47346  22497674.704    22497681.9104
  20792184.594    -2235210.819 9  -1438412.94048  20792184.101    20792190.6514
  23063060.813    12498601.042 8   9735394.40646  23063060.646    23063069.4544
  22504962.479   -13484263.073 8 -10493821.47646  22504962.309    22504969.8134
  20209679.282    -6367822.630 9  -4954088.25548  20209678.661    20209685.3664
  22249321.637   -15366451.158 8 -11948960.23547  22249321.196    22249329.2054
  23627813.992     3067097.617 8   2399100.21445  23627813.225    23627822.5794
 01  7 19 17 33 30.0000000  0  9 17 18 26 23 06 03 15 21 22
  20567839.947    -1060162.806 9   -821256.27547  20567839.441    20567846.1224
  20245858.235   -10456896.407 9  -8130683.92848  20245857.914    20245863.1054
  22507858.953    -1222457.940 8   -944136.57446  22507859.013    22507866.1264
  20798096.335    -2204144.277 9  -1414205.24848  20798095.858    20798102.4114
  23082664.682    12601620.438 8   9815669.12346  23082664.524    23082673.4184
  22489916.004   -13563332.914 8 -10555434.28846  22489915.686    22489923.2664
  20208979.031    -6371502.156 9  -4956955.40948  20208978.425    20208985.1404
  22236640.867   -15433088.386 8 -12000885.27547  22236640.454    22236648.4924
  23639808.966     3130130.879 8   2448216.96245  23639808.251    23639817.6124
 01  7 19 17 34  0.0000000  0  9 17 18 26 23 06 03 15 21 22
  20572352.143    -1036451.381 9   -802779.85047  20572351.597    20572358.2974
  20243918.264   -10467091.094 9  -8138627.82548  20243917.927    20243923.1064
  22518151.625    -1168369.561 8   -901989.80746  22518151.718    22518158.7774
  20804075.565    -2172723.061 9  -1389721.18348  20804075.108    20804081.6524
  23102311.924    12704867.418 8   9896121.15446  23102311.822    23102320.6884
  22474935.578   -13642054.812 8 -10616775.98146  22474935.346    22474942.9994
  20208339.218    -6374864.536 9  -4959575.43548  20208338.608    20208345.3044
  22224013.201   -15499446.539 8 -12052592.86147  22224012.807    22224020.9034
  23651866.236     3193491.192 7   2497588.53645  23651865.494    23651874.7824
 01  7 19 17 34 30.0000000  0  9 17 18 26 23 06 03 15 21 22
  20576918.886    -1012452.711 9   -784079.60047  20576918.396    20576925.1124
  20242067.666   -10476815.880 9  -8146205.56448  20242067.338    20242072.5484
  22528552.494    -1113712.965 8   -859400.26546  22528552.607    22528559.5124
  20810122.139    -2140948.292 9  -1364961.62348  20810121.663    20810128.2354
  23122002.218    12808340.354 8   9976749.26346  23122002.081    23122011.0184
  22460021.966   -13720425.879 8 -10677844.28646  22460021.750    22460029.4944
  20207759.866    -6377909.212 9  -4961947.89448  20207759.209    20207765.9054
  22211438.858   -15565524.685 8 -12104082.26947  22211438.501    22211446.5214
  23663984.960     3257176.033 7   2547212.97845  23663984.185    23663993.6444
 01  7 19 17 35  0.0000000  0  9 17 18 26 23 06 03 15 21 22
  20581540.256     -988167.252 9   -765155.87547  20581539.787    20581546.5024
  20240306.233   -10486072.016 9  -8153418.13048  20240305.918    20240311.1624
  22539060.987    -1058490.840 8   -816370.07246  22539061.013    22539067.9854
  20816235.545    -2108822.137 9  -1339928.25448  20816235.060    20816241.6404
  23141734.917    12912036.473 8  10057551.30246  23141734.780    23141743.9584
  22445175.529   -13798444.250 8 -10738637.78546  22445175.279    22445182.9814
  20207240.886    -6380636.306 9  -4964072.89548  20207240.269    20207246.9454
  22198917.864   -15631322.692 8 -12155353.37747  22198917.509    22198925.4684
  23676164.844     3321182.496 7   2597088.05445  23676164.033    23676173.7334
 01  7 19 17 35 30.0000000  0  9 17 18 26 23 06 03 15 21 22
  20586216.292     -963594.471 9   -746008.26947  20586215.809    20586222.5294
  20238633.954   -10494860.038 9  -8160265.92548  20238633.606    20238638.8434
  22549676.515    -1002704.938 8   -772900.58146  22549676.614    22549683.7904
  20822415.578    -2076345.865 9  -1314622.06248  20822415.122    20822421.6864
  23161509.706    13015953.847 8  10138525.73046  23161509.680    23161519.0184
  22430396.643   -13876107.320 8 -10799154.42046  22430396.460    22430404.0864
  20206782.487    -6383045.142 9  -4965949.89748  20206781.856    20206788.5374
  22186450.226   -15696840.239 8 -12206405.94747  22186449.850    22186457.8514
  23688405.584     3385508.289 8   2647211.95945  23688404.829    23688414.8494
 01  7 19 17 36  0.0000000  0  9 17 18 26 23 06 03 15 21 22
  20590947.047     -938734.268 9   -726636.68447  20590946.574    20590953.3084
  20237050.673   -10503180.371 9  -8166749.28648  20237050.321    20237055.5334
  22560399.075     -946357.249 8   -728993.32846  22560399.241    22560406.5064
  20828661.829    -2043521.352 9  -1289044.51548  20828661.418    20828667.9594
  23181326.517    13120090.355 8  10219670.89646  23181326.511    23181335.7444
  22415686.051   -13953412.827 8 -10859392.43646  22415685.724    22415693.2454
  20206384.700    -6385135.546 9  -4967578.77448  20206384.082    20206390.7744
  22174036.049   -15762076.688 8 -12257239.49247  22174035.705    22174043.7174
  23700706.529     3450150.289 8   2697582.25845  23700705.872    23700715.9664
 01  7 19 17 36 30.0000000  0  9 17 18 26 23 06 03 15 21 22
  20595732.372     -913587.246 9   -707041.61447  20595731.892    20595738.6494
  20235556.052   -10511034.538 9  -8172869.40448  20235555.706    20235560.9104
  22571228.058     -889450.682 8   -684650.57146  22571228.214    22571235.4874
  20834973.999    -2010350.822 9  -1263197.34048  20834973.558    20834980.1014
  23201184.562    13224443.185 8  10300984.62146  23201184.494    23201193.6814
  22401043.662   -14030359.087 8 -10919350.52546  22401043.380    22401050.8044
  20206047.386    -6386907.958 9  -4968959.86848  20206046.775    20206053.4534
  22161675.388   -15827032.353 8 -12307854.23947  22161675.031    22161682.9694
  23713067.151     3515104.357 8   2748195.71745  23713066.435    23713076.3654
 01  7 19 17 37  0.0000000  0  9 17 18 26 23 06 03 15 21 22
  20600572.446     -888152.419 9   -687222.27947  20600572.001    20600578.7384
  20234150.213   -10518422.345 9  -8178626.12148  20234149.869    20234155.0454
  22582163.101     -831986.378 8   -639873.21546  22582163.284    22582170.6444
  20841351.875    -1976835.039 9  -1237081.14148  20841351.403    20841357.9324
  23221083.300    13329011.016 8  10382465.88745  23221083.278    23221092.4074
  22386470.197   -14106943.059 8 -10979026.31146  22386469.899    22386477.2824
  20205770.829    -6388361.054 9  -4970092.14548  20205770.246    20205776.9224
  22149368.408   -15891706.306 8 -12358249.46147  22149368.012    22149375.9124
  23725486.674     3580368.840 8   2799051.05245  23725486.038    23725495.7894
 01  7 19 17 37 30.0000000  0  9 17 18 26 23 06 03 15 21 22
  20605467.335     -862429.838 9   -667178.71847  20605466.842    20605473.5824
  20232832.901   -10525345.032 9  -8184020.40148  20232832.551    20232837.6854
  22593203.874     -773966.890 8   -594663.24546  22593204.060    22593211.4554
  20847795.036    -1942976.114 9  -1210697.55748  20847794.532    20847801.0684
  23241022.453    13433791.174 8  10464112.61445  23241022.435    23241031.5964
  22371966.071   -14183162.465 8 -11038418.01946  22371965.781    22371973.0784
  20205555.070    -6389495.008 9  -4970975.73148  20205554.466    20205561.1354
  22137115.034   -15956098.053 8 -12408424.78347  22137114.645    22137122.5574
  23737964.868     3645940.939 8   2850146.11845  23737964.119    23737973.7494
 01  7 19 17 38  0.0000000  0  9 17 18 26 23 06 03 15 21 22
  20610416.950     -836419.363 9   -646910.83447  20610416.486    20610423.2534
  20231603.866   -10531803.376 9  -8189052.86748  20231603.522    20231608.6834
  22604349.985     -715394.187 8   -549022.21146  22604350.184    22604357.5184
  20854303.185    -1908775.623 9  -1184047.82348  20854302.677    20854309.2194
  23261001.622    13538781.409 8  10545923.01646  23261001.613    23261010.8404
  22357531.848   -14259014.862 8 -11097523.74146  22357531.553    22357538.7604
  20205400.083    -6390309.428 9  -4971610.34548  20205399.483    20205406.1314
  22124915.383   -16020207.788 8 -12458380.37247  22124914.950    22124922.8484
  23750500.879     3711817.953 8   2901478.74945  23750500.270    23750509.8614
 01  7 19 17 38 30.0000000  0  9 17 18 26 23 06 03 15 21 22
  20615421.562     -810120.126 9   -626417.93547  20615421.111    20615427.8724
  20230463.219   -10537797.100 9  -8193723.28348  20230462.922    20230468.0954
  22615601.085     -656269.591 8   -502951.10746  22615601.304    22615608.5064
  20860876.133    -1874234.464 9  -1157132.63148  20860875.666    20860882.2004
  23281020.469    13643980.485 8  10627896.13846  23281020.465    23281029.8374
  22343167.859   -14334497.311 8 -11156341.19846  22343167.647    22343174.8874
  20205306.125    -6390803.164 9  -4971995.07048  20205305.528    20205312.1834
  22112769.607   -16084033.984 8 -12508115.00147  22112769.198    22112777.0714
  23763094.436     3777997.174 8   2953046.86845  23763093.743    23763103.4694
 01  7 19 17 39  0.0000000  0  9 17 18 26 23 06 03 15 21 22
  20620481.081     -783532.095 9   -605700.00647  20620480.658    20620487.4444
  20229410.886   -10543327.145 9  -8198032.39748  20229410.571    20229415.7554
  22626956.832     -596595.649 8   -456451.94146  22626956.984    22626964.1034
  20867513.597    -1839354.492 9  -1129953.43248  20867513.131    20867519.6534
  23301078.561    13749385.857 8  10710030.02645  23301078.499    23301088.0724
  22328874.755   -14409607.649 8 -11214868.70246  22328874.562    22328881.8304
  20205273.184    -6390976.136 9  -4972129.84748  20205272.581    20205279.2334
  22100677.873   -16147576.475 8 -12557628.57247  22100677.430    22100685.2974
  23775744.750     3844475.436 7   3004848.01645  23775744.036    23775754.0174
 01  7 19 17 39 30.0000000  0  9 17 18 26 23 06 03 15 21 22
  20625595.612     -756655.225 9   -584757.00747  20625595.177    20625601.9614
  20228446.593   -10548394.502 9  -8201980.97248  20228446.268    20228451.4664
  22638416.550     -536374.540 8   -409526.41246  22638416.710    22638423.7684
  20874215.175    -1804137.431 9  -1102511.55548  20874214.682    20874221.2204
  23321175.394    13854995.371 8  10792322.97446  23321175.426    23321185.1904
  22314653.010   -14484343.598 8 -11273104.46646  22314652.797    22314660.0424
  20205301.357    -6390828.079 9  -4972014.46948  20205300.741    20205307.3804
  22088640.050   -16210834.838 8 -12606920.74647  22088639.663    22088647.5684
  23788451.511     3911250.127 8   3056880.14845  23788450.848    23788460.7834
 01  7 19 17 40  0.0000000  0  9 17 18 26 23 06 03 15 21 22
  20630765.185     -729489.006 9   -563588.54747  20630764.749    20630771.5184
  20227570.263   -10552999.550 9  -8205569.30148  20227569.915    20227575.1314
  22649980.010     -475608.193 8   -362176.03046  22649980.135    22649987.1914
  20880980.608    -1768584.795 9  -1074808.20048  20880980.118    20880986.6614
  23341310.856    13960807.145 8  10874773.52345  23341310.847    23341320.7654
  22300502.944   -14558702.229 8 -11331046.21946  22300502.763    22300510.0844
  20205390.744    -6390358.410 9  -4971648.49348  20205390.129    20205396.7614
  22076656.544   -16273808.026 8 -12655990.71647  22076656.199    22076664.1094
  23801214.541     3978319.006 8   3109141.50445  23801213.772    23801223.5184
 01  7 19 17 40 30.0000000  0  9 17 18 26 23 06 03 15 21 22
  20635989.840     -702033.343 9   -542194.53447  20635989.392    20635996.1764
  20226781.786   -10557143.197 9  -8208798.10248  20226781.441    20226786.6134
  22661646.919     -414298.781 8   -314402.49346  22661646.959    22661654.0434
  20887809.580    -1732698.194 9  -1046844.61548  20887809.131    20887815.6674
  23361484.192    14066818.830 8  10957379.83345  23361484.291    23361494.4344
  22286425.193   -14632681.260 8 -11388692.18046  22286424.939    22286432.3544
  20205541.392    -6389566.742 9  -4971031.59948  20205540.775    20205547.3754
  22064727.255   -16336496.561 8 -12704838.87647  22064726.928    22064734.8074
  23814032.898     4045678.988 8   3161629.70845  23814032.238    23814041.7684
 01  7 19 17 41  0.0000000  0  9 17 18 26 23 06 03 15 21 22
  20641269.494     -674288.641 9   -520575.29747  20641269.027    20641275.8234
  20226080.849   -10560826.827 9  -8211668.45248  20226080.486    20226085.6254
  22673416.341     -352449.169 8   -266208.02546  22673416.381    22673423.6994
  20894701.718    -1696479.840 9  -1018622.52248  20894701.249    20894707.7604
  23381695.388    14173027.612 8  11040139.72546  23381695.279    23381705.4974
  22272419.909   -14706279.211 8 -11446041.20046  22272419.695    22272427.1344
  20205753.289    -6388453.304 9  -4970163.97648  20205752.648    20205759.2644
  22052852.140   -16398900.344 8 -12753465.15447  22052851.768    22052859.6114
  23826905.562     4113325.981 7   3214341.58545  23826904.947    23826914.6974
 01  7 19 17 41 30.0000000  0  9 17 18 26 23 06 03 15 21 22
  20646604.387     -646253.424 9   -498729.68747  20646603.953    20646610.7534
  20225467.470   -10564049.993 9  -8214179.99448  20225467.100    20225472.2494
  22685288.284     -290060.251 8   -217593.31846  22685288.352    22685295.9194
  20901656.967    -1659929.994 9   -990142.12848  20901656.444    20901662.9484
  23401943.734    14279432.815 8  11123052.68546  23401943.631    23401953.9994
  22258487.948   -14779492.352 8 -11503090.36346  22258487.650    22258495.1254
  20206026.751    -6387016.295 9  -4969044.22848  20206026.079    20206032.7264
  22041031.517   -16461017.861 8 -12801868.36847  22041031.162    22041038.9504
  23839832.678     4181258.621 7   3267276.00645  23839832.137    23839841.9954
 01  7 19 17 42  0.0000000  0  9 17 18 26 23 06 03 15 21 22
  20651994.435     -617928.654 9   -476658.44647  20651993.972    20652000.7844
  20224941.373   -10566814.734 9  -8216334.32248  20224940.995    20224946.1154
  22697262.491     -227135.557 8   -168561.12546  22697262.552    22697270.0804
  20908674.663    -1623051.645 9   -961405.75248  20908674.146    20908680.6374
  23422228.660    14386030.843 8  11206115.89145  23422228.558    23422239.0954
  22244629.291   -14852319.737 8 -11559838.93246  22244629.033    22244636.5384
  20206361.494    -6385257.104 9  -4967673.42048  20206360.837    20206367.4834
  22029265.213   -16522850.275 8 -12850049.42147  22029264.807    22029272.5934
  23852813.873     4249473.299 7   3320430.21545  23852813.171    23852822.9054
 01  7 19 17 42 30.0000000  0  9 17 18 26 23 06 03 15 21 22
  20657439.575     -589314.174 9   -454361.45747  20657439.092    20657445.9234
  20224502.391   -10569121.582 9  -8218131.85448  20224501.989    20224507.1254
  22709338.268     -163677.069 8   -119112.98446  22709338.362    22709345.9264
  20915754.545    -1585846.271 9   -932414.55348  20915754.065    20915760.5774
  23442550.083    14492819.646 8  11289327.76045  23442549.950    23442560.4754
  22230844.667   -14924758.451 8 -11616284.65046  22230844.377    22230851.8664
  20206757.700    -6383174.942 9  -4966050.96148  20206757.063    20206763.6994
  22017553.262   -16584396.640 8 -12898007.58147  22017552.885    22017560.7224
  23865847.992     4317967.359 7   3373802.11945  23865847.169    23865857.0814
 01  7 19 17 43  0.0000000  0  9 17 18 26 23 06 03 15 21 22
  20662940.054     -560409.034 9   -431837.97647  20662939.565    20662946.3744
  20224150.443   -10570970.821 9  -8219572.80848  20224150.062    20224155.2094
  22721515.374      -99686.533 8    -69250.25346  22721515.502    22721523.0294
  20922896.504    -1548314.985 9   -903169.40248  20922896.031    20922902.5464
  23462907.437    14599797.653 8  11372687.04146  23462907.337    23462917.9264
  22217134.421   -14996805.799 8 -11672425.39946  22217134.258    22217141.6774
  20207215.552    -6380768.971 9  -4964176.17548  20207214.906    20207221.5324
  22005896.023   -16645655.888 8 -12945742.00947  22005895.606    22005903.4284
  23878934.140     4386738.015 7   3427389.55145  23878933.509    23878943.8804
 01  7 19 17 43 30.0000000  0  9 17 18 26 23 06 03 15 21 22
  20668495.775     -531213.834 9   -409088.47947  20668495.238    20668502.0614
  20223885.300   -10572364.005 9  -8220658.39048  20223884.946    20223890.0854
  22733793.083      -35167.035 8    -18975.34746  22733793.172    22733800.7364
  20930100.040    -1510460.167 9   -873672.13948  20930099.564    20930106.1094
  23483300.408    14706961.910 8  11456191.46346  23483300.239    23483310.8524
  22203499.230   -15068460.121 8 -11728259.89646  22203498.918    22203506.2594
  20207734.930    -6378039.688 9  -4962049.45848  20207734.297    20207740.9124
  21994293.312   -16706628.626 8 -12993253.18447  21994292.908    21994300.6374
  23892072.898     4455781.402 7   3481189.45945  23892072.122    23892082.5044
 01  7 19 17 44  0.0000000  0  9 17 18 26 23 06 03 15 21 22
  20674106.611     -501728.512 9   -386112.91147  20674106.124    20674112.9254
  20223706.747   -10573302.144 9  -8221389.40548  20223706.409    20223711.5314
  22746171.080       29879.235 8     31710.03146  22746171.173    22746178.7014
  20937364.875    -1472283.432 9   -843924.04448  20937364.384    20937370.9354
  23503728.358    14814310.351 8  11539839.40445  23503728.237    23503738.7114
  22189939.107   -15139718.996 8 -11783786.26146  22189938.865    22189946.0894
  20208315.894    -6374986.684 9  -4959670.48848  20208315.234    20208321.8444
  21982745.175   -16767314.781 8 -13040541.04647  21982744.742    21982752.4344
  23905263.121     4525095.096 7   3535200.01845  23905262.321    23905272.5054
 01  7 19 17 44 30.0000000  0  9 17 18 26 23 06 03 15 21 22
  20679772.811     -471952.497 9   -362910.83047  20679772.321    20679779.1254
  20223614.740   -10573785.684 9  -8221766.17548  20223614.423    20223619.5264
  22758648.961       95450.073 8     82804.16346  22758649.045    22758656.3984
  20944690.666    -1433786.174 9   -813926.18848  20944690.193    20944696.7144
  23524190.927    14921841.057 8  11623629.37545  23524190.872    23524201.2134
  22176454.723   -15210579.950 8 -11839002.55846  22176454.490    22176461.6644
  20208958.654    -6371609.042 9  -4957038.55548  20208958.000    20208964.6094
  21971251.681   -16827713.402 8 -13087604.86047  21971251.269    21971258.8964
  23918504.170     4594676.778 7   3589419.42745  23918503.295    23918513.5454
 01  7 19 17 45  0.0000000  0  9 17 18 26 23 06 03 15 21 22
  20685494.443     -441885.204 9   -339481.78247  20685493.950    20685500.7594
  20223609.129   -10573815.244 9  -8221789.20248  20223608.777    20223613.8694
  22771226.237      161543.711 8    134305.68846  22771226.338    22771233.6054
  20952077.228    -1394969.669 9   -783679.57148  20952076.759    20952083.2374
  23544687.881    15029552.002 8  11707559.78245  23544687.791    23544698.0554
  22163046.471   -15281040.362 8 -11893906.74246  22163046.252    22163053.5364
  20209663.232    -6367906.309 9  -4954153.31048  20209662.572    20209669.2044
  21959813.098   -16887823.666 9 -13134443.98547  21959812.628    21959820.2334
  23931795.405     4664523.730 7   3643845.56745  23931794.693    23931805.1344
 01  7 19 17 45 30.0000000  0  9 17 18 26 23 06 03 15 21 22
  20691271.482     -411526.618 9   -315825.74347  20691271.001    20691277.7984
  20223689.733   -10573391.848 9  -8221459.27548  20223689.351    20223694.4334
  22783902.424      228157.481 8    186212.50046  22783902.602    22783909.8444
  20959524.154    -1355835.808 9   -753185.65948  20959523.704    20959530.1714
  23565218.921    15137440.814 8  11791628.77445  23565218.698    23565228.7284
  22149714.934   -15351098.195 8 -11948497.23446  22149714.642    22149721.9424
  20210429.734    -6363878.401 9  -4951014.68348  20210429.091    20210435.7044
  21948429.198   -16947646.012 9 -13181058.74847  21948428.729    21948436.3324
  23945136.921     4734632.464 7   3698475.65545  23945136.107    23945146.4834
 01  7 19 17 46  0.0000000  0  9 17 18 26 23 06 03 15 21 22
  20697103.981     -380876.660 9   -291942.67847  20697103.523    20697110.3094
  20223856.308   -10572516.298 9  -8220777.02648  20223855.956    20223861.0564
  22796677.120      295289.006 8    238522.73746  22796677.239    22796684.5504
  20967031.169    -1316386.235 9   -722445.74348  20967030.727    20967037.1794
  23585783.137    15245505.216 7  11875834.60745  23585782.892    23585792.9544
  22136460.474   -15420750.913 8 -12002772.04746  22136460.168    22136467.4874
  20211258.182    -6359524.761 9  -4947622.24048  20211257.528    20211264.1504
  21937100.195   -17007179.977 8 -13227448.80847  21937099.712    21937107.3464
  23958527.437     4804999.973 7   3753307.42145  23958526.767    23958536.9244
 01  7 19 17 46 30.0000000  0  9 17 18 26 23 06 03 15 21 22
  20702992.158     -349934.372 9   -267831.82147  20702991.667    20702998.4604
  20224108.931   -10571188.837 9  -8219742.63848  20224108.541    20224113.6754
  22809549.945      362936.748 8    291235.23646  22809550.157    22809557.4604
  20974598.109    -1276621.857 9   -691460.52648  20974597.648    20974604.0714
  23606380.315    15353743.791 7  11960176.11245  23606380.153    23606390.3884
  22123283.586   -15489995.422 8 -12056728.77946  22123283.300    22123290.6664
  20212148.845    -6354844.442 9  -4943975.23848  20212148.211    20212154.8194
  21925826.198   -17066424.483 9 -13273613.30747  21925825.747    21925833.4304
  23971966.795     4875624.607 8   3808339.52945  23971966.134    23971976.3594
 01  7 19 17 47  0.0000000  0  9 17 18 26 23 06 03 15 21 22
  20708936.000     -318699.415 9   -243492.91047  20708935.502    20708942.2584
  20224447.337   -10569410.172 9  -8218356.66248  20224446.987    20224452.1004
  22822520.733      431098.330 8    344348.12646  22822520.868    22822528.1384
  20982224.681    -1236544.185 9   -660231.18948  20982224.189    20982230.6494
  23627010.315    15462154.486 7  12044651.75745  23627010.021    23627020.5124
  22110184.915   -15558829.212 8 -12110365.45946  22110184.598    22110192.0274
  20213101.777    -6349836.799 9  -4940073.18048  20213101.131    20213107.7564
  21914607.437   -17125379.177 9 -13319551.98547  21914607.013    21914614.6834
  23985454.606     4946503.651 8   3863569.87145  23985453.975    23985464.4944
 01  7 19 17 47 30.0000000  0  9 17 18 26 23 06 03 15 21 22
  20714935.038     -287174.320 9   -218927.91747  20714934.519    20714941.3134
  20224870.938   -10567184.179 9  -8216622.12048  20224870.584    20224875.7034
  22835588.150      499768.624 8    397857.40046  22835588.351    22835595.6624
  20989909.989    -1196157.580 9   -628761.12348  20989909.518    20989915.9564
  23647672.079    15570732.338 7  12129257.62545  23647671.797    23647682.4064
  22097164.378   -15627252.636 8 -12163682.38646  22097164.062    22097171.4774
  20214116.523    -6344504.323 9  -4935918.01048  20214115.889    20214122.5064
  21903443.361   -17184046.536 9 -13365266.76047  21903442.982    21903450.6064
  23998990.202     5017631.128 7   3918993.77645  23998989.445    23998999.8124
 01  7 19 17 48  0.0000000  0  9 17 18 26 23 06 03 15 21 22
  20720989.794     -255356.250 9   -194134.62547  20720989.338    20720996.1054
  20225380.099   -10564508.742 9  -8214537.35648  20225379.711    20225384.8164
  22848752.625      568947.985 8    451763.37646  22848752.777    22848760.0184
  20997654.329    -1155460.980 9   -597049.49548  20997653.827    20997660.2964
  23668365.663    15679477.873 7  12213994.14845  23668365.561    23668376.0954
  22084222.819   -15695260.758 8 -12216675.69746  22084222.571    22084229.8844
  20215193.669    -6338843.902 9  -4931507.28848  20215193.023    20215199.6304
  21892334.601   -17242423.432 9 -13410755.20347  21892334.192    21892341.7754
  24012572.473     5089006.645 8   3974610.97145  24012571.932    24012582.1174
 01  7 19 17 48 30.0000000  0  9 17 18 26 23 06 03 15 21 22
  20727100.289     -223245.617 9   -169113.36147  20727099.797    20727106.6114
  20225974.418   -10561385.643 9  -8212103.77148  20225974.020    20225979.1104
  22862013.285      638633.347 8    506063.61046  22862013.447    22862020.7104
  21005457.108    -1114456.749 9   -565098.15448  21005456.645    21005463.1544
  23689090.553    15788388.322 7  12298859.13945  23689090.553    23689101.2394
  22071360.677   -15762852.119 8 -12269344.26846  22071360.385    22071367.6454
  20216333.148    -6332855.819 9  -4926841.25748  20216332.534    20216339.1264
  21881281.169   -17300510.017 9 -13456017.42647  21881280.734    21881288.2464
  24026201.549     5160626.831 8   4030418.80945  24026200.947    24026210.9414
 01  7 19 17 49  0.0000000  0  9 17 18 26 23 06 03 15 21 22
  20733266.391     -190842.234 9   -143863.98947  20733265.929    20733272.7614
  20226653.684   -10557816.096 9  -8209322.31148  20226653.289    20226658.3974
  22875369.883      708822.251 8    560756.23346  22875370.031    22875377.3104
  21013318.156    -1073146.647 9   -532908.47748  21013317.713    21013324.1944
  23709846.703    15897461.227 7  12383850.77445  23709846.614    23709857.4104
  22058578.116   -15830024.464 8 -12321686.32746  22058577.874    22058585.1424
  20217535.114    -6326539.869 9  -4921919.73648  20217534.462    20217541.0374
  21870282.896   -17358306.506 9 -13501053.60847  21870282.409    21870289.9524
  24039876.703     5232489.165 8   4086415.34245  24039876.040    24039886.0004
 01  7 19 17 49 30.0000000  0  9 17 18 26 23 06 03 15 21 22
  20739488.151     -158146.733 9   -118386.98047  20739487.681    20739494.5094
  20227417.636   -10553801.655 9  -8206194.17648  20227417.230    20227422.3434
  22888821.684      779511.340 8    615838.61446  22888821.848    22888829.0414
  21021237.034    -1031533.038 9   -500482.29248  21021236.551    21021242.9954
  23730633.079    16006693.581 7  12468966.63345  23730632.974    23730643.9254
  22045875.645   -15896776.181 8 -12373700.62546  22045875.418    22045882.6494
  20218799.300    -6319896.552 9  -4916743.12848  20218798.657    20218805.2274
  21859339.645   -17415813.135 9 -13545863.91647  21859339.185    21859346.8084
  24053597.139     5304589.809 8   4142597.55545  24053596.591    24053606.5824
 01  7 19 17 50  0.0000000  0  9 17 18 26 23 06 03 15 21 22
  20745765.718     -125157.845 9    -92681.36647  20745765.236    20745772.0674
  20228266.286   -10549342.109 9  -8202719.20348  20228265.853    20228270.9614
  22902368.355      850699.318 8    671309.73846  22902368.520    22902375.6924
  21029213.491     -989616.583 9   -467820.13448  21029212.979    21029219.4624
  23751449.496    16116084.228 8  12554205.83345  23751449.424    23751460.5624
  22033253.860   -15963104.051 8 -12425384.64546  22033253.596    22033260.8384
  20220126.052    -6312924.259 9  -4911310.17448  20220125.419    20220131.9854
  21848451.770   -17473029.017 9 -13590447.67647  21848451.352    21848458.9504
  24067362.746     5376926.354 8   4198963.60145  24067361.932    24067372.0084
 01  7 19 17 50 30.0000000  0  9 17 18 26 23 06 03 15 21 22
  20752098.993      -91876.379 9    -66747.76947  20752098.511    20752105.3494
  20229199.227   -10544439.376 9  -8198898.89348  20229198.807    20229203.9314
  22916009.280      922382.777 8    727166.94146  22916009.436    22916016.6704
  21037247.011     -947399.840 9   -434923.99048  21037246.557    21037253.0674
  23772295.420    16225630.193 7  12639566.06645  23772295.313    23772306.5804
  22020712.895   -16029006.790 8 -12476737.40446  22020712.678    22020719.9194
  20221515.328    -6305623.692 9  -4905621.43348  20221514.687    20221521.2644
  21837619.225   -17529954.450 9 -13634805.10747  21837618.811    21837626.3424
  24081171.863     5449495.027 7   4255510.50245  24081171.113    24081181.4984
 01  7 19 17 51  0.0000000  0  9 17 18 26 23 06 03 15 21 22
  20758488.222      -58300.832 9    -40585.01447  20758487.738    20758494.5914
  20230216.549   -10539093.264 8  -8194733.08748  20230216.133    20230221.2814
  22929744.336      994560.275 8    783409.13046  22929744.468    22929751.5464
  21045337.646     -904883.240 9   -401794.18448  21045337.216    21045343.7414
  23793170.805    16335330.292 7  12725046.39845  23793170.790    23793182.0814
  22008253.504   -16094480.887 8 -12527756.14746  22008253.343    22008260.5874
  20222967.348    -6297993.246 9  -4899675.63048  20222966.702    20222973.3124
  21826842.183   -17586587.806 9 -13678934.94747  21826841.782    21826849.3164
  24095024.918     5522294.515 7   4312237.28445  24095024.282    24095034.6854
 01  7 19 17 51 30.0000000  0  9 17 18 26 23 06 03 15 21 22
  20764933.352      -24431.440 9    -14193.29647  20764932.866    20764939.7434
  20231317.940   -10533305.284 8  -8190222.97548  20231317.530    20231322.6944
  22943572.671     1067228.975 8    840034.07146  22943572.856    22943579.8894
  21053484.951     -862068.959 9   -368432.42348  21053484.506    21053491.0434
  23814075.057    16445181.956 8  12810644.80545  23814075.058    23814086.2924
  21995876.224   -16159524.466 8 -12578439.41946  21995875.852    21995883.1224
  20224482.112    -6290033.029 9  -4893472.87348  20224481.463    20224488.0874
  21816120.674   -17642930.053 9 -13722837.94547  21816120.204    21816127.6974
  24108921.804     5595321.732 7   4369141.53945  24108920.991    24108931.4344
 01  7 19 17 52  0.0000000  0  9 17 18 26 23 06 03 15 21 22
  20771434.157        9730.668 9     12426.51447  20771433.706    20771440.6024
  20232503.015   -10527077.566 9  -8185370.20948  20232502.640    20232507.8114
  22957493.836     1140385.263 8    897038.95446  22957494.018    22957501.1194
  21061688.389     -818959.640 9   -334840.75748  21061687.937    21061694.4794
  23835007.483    16555181.788 7  12896358.68245  23835007.507    23835018.8964
  21983580.819   -16224136.260 8 -12628786.24546  21983580.584    21983587.8784
  20226059.508    -6281743.675 9  -4887013.64948  20226058.881    20226065.5094
  21805454.346   -17698981.834 9 -13766514.61147  21805453.868    21805461.3004
  24122861.057     5668572.241 7   4426219.76045  24122860.282    24122870.7964
 01  7 19 17 52 30.0000000  0  9 17 18 26 23 06 03 15 21 22
  20777991.052       44187.067 9     39275.64147  20777990.566    20777997.4934
  20233771.846   -10520409.795 9  -8180174.54348  20233771.471    20233776.6204
  22971507.642     1214027.824 8    954422.74046  22971507.786    22971514.9844
  21069947.907     -775555.703 9   -301019.51847  21069947.449    21069953.9894
  23855967.653    16665328.784 7  12982187.23545  23855967.667    23855979.2044
  21971368.441   -16288312.973 8 -12678794.04746  21971368.168    21971375.4684
  20227699.846    -6273123.705 9  -4880296.79848  20227699.205    20227705.8294
  21794843.522   -17754741.449 9 -13809963.61347  21794843.084    21794850.4854
  24136842.078     5742043.898 7   4483470.29545  24136841.592    24136852.0774
 01  7 19 17 53  0.0000000  0  9 17 18 26 23 06 03 15 21 22
  20784603.824       78937.560 9     66353.93247  20784603.358    20784610.2914
  20235124.103   -10513303.561 9  -8174637.22048  20235123.745    20235128.8524
  22985613.280     1288153.758 8   1012183.18346  22985613.401    22985620.7154
  21078263.042     -731859.123 9   -266970.25647  21078262.592    21078269.1464
  23876955.540    16775620.320 7  13068128.41445  23876955.548    23876967.3124
  21959239.201   -16352052.616 8 -12728461.29147  21959238.905    21959246.2334
  20229403.077    -6264173.163 9  -4873322.35748  20229402.466    20229409.0484
  21784288.293   -17810208.884 9 -13853184.94647  21784287.911    21784295.3544
  24150864.969     5815733.827 8   4540890.90045  24150864.374    24150874.7804
 01  7 19 17 53 30.0000000  0  9 17 18 26 23 06 03 15 21 22
  20791272.673      113982.561 9     93661.71347  20791272.212    20791279.1644
  20236559.672   -10505759.634 9  -8168758.83648  20236559.331    20236564.4324
  22999810.455     1362760.785 8   1070318.50546  22999810.562    22999818.0474
  21086633.651     -687871.399 9   -232694.11747  21086633.208    21086639.7344
  23897970.267    16886054.367 7  13154180.57645  23897970.448    23897982.6234
  21947193.690   -16415352.784 8 -12777786.08247  21947193.364    21947200.5814
  20231169.324    -6254891.530 9  -4866089.92348  20231168.693    20231175.2704
  21773788.757   -17865384.361 9 -13896178.77747  21773788.340    21773795.8384
  24164929.110     5889639.552 7   4598479.66645  24164928.328    24164938.5444
 01  7 19 17 54  0.0000000  0  9 17 18 26 23 06 03 15 21 22
  20797997.384      149321.263 9    121198.34847  20797996.946    20798003.9024
  20238078.161   -10497779.839 8  -8162540.81548  20238077.840    20238082.9634
  23014098.658     1437845.282 8   1128825.84646  23014098.780    23014106.1364
  21095059.166     -643595.234 9   -198193.22947  21095058.705    21095065.2204
  23919011.831    16996627.710 7  13240341.32145  23919012.022    23919024.2824
  21935231.793   -16478212.513 8 -12826767.67247  21935231.585    21935238.6944
  20232998.467    -6245279.285 9  -4858599.87148  20232997.847    20233004.4054
  21763344.631   -17920268.036 9 -13938945.23647  21763344.260    21763351.7934
  24179033.451     5963757.254 7   4656233.63045  24179032.574    24179042.6284
 01  7 19 17 54 30.0000000  0  9 17 18 26 23 06 03 15 21 22
  20804778.215      184954.481 9    148964.47547  20804777.742    20804784.7214
  20239679.492   -10489364.616 8  -8155983.50148  20239679.182    20239684.2864
  23028477.369     1513405.319 8   1187703.75546  23028477.456    23028484.7664
  21103539.388     -599031.447 9   -163468.22047  21103538.934    21103545.4464
  23940079.797    17107338.815 7  13326609.39645  23940079.917    23940092.1614
  21923354.597   -16540628.742 8 -12875403.66647  21923354.218    21923361.3084
  20234890.758    -6235335.464 9  -4850851.44848  20234890.137    20234896.6914
  21752956.288   -17974859.043 9 -13981483.63947  21752955.922    21752963.4514
  24193177.232     6038084.258 7   4714150.65745  24193176.613    24193186.6764
 01  7 19 17 55  0.0000000  0  9 17 18 26 23 06 03 15 21 22
  20811615.114      220882.658 9    176960.43247  20811614.659    20811621.6084
  20241363.569   -10480514.956 8  -8149087.66448  20241363.246    20241368.3374
  23042945.906     1589438.528 8   1246950.37046  23042946.031    23042953.4994
  21112074.088     -554181.607 9   -128520.31547  21112073.585    21112080.0984
  23961173.432    17218185.629 7  13412983.19345  23961173.405    23961185.8974
  21911561.859   -16602599.151 8 -12923692.26547  21911561.602    21911568.6994
  20236846.173    -6225059.616 9  -4842844.30448  20236845.553    20236852.0994
  21742623.638   -18029157.585 9 -14023794.14947  21742623.245    21742630.7844
  24207360.357     6112617.530 7   4772228.44845  24207359.794    24207370.1374
 01  7 19 17 55 30.0000000  0  9 17 18 26 23 06 03 15 21 22
  20818508.226      257106.240 9    205186.58447  20818507.777    20818514.7144
  20243130.153   -10471231.443 8  -8141853.75748  20243129.813    20243134.9234
  23057504.321     1665942.707 8   1306563.97146  23057504.421    23057511.8104
  21120662.937     -509046.871 9    -93350.40647  21120662.450    21120668.9874
  23982292.418    17329166.165 7  13499461.18245  23982292.434    23982305.0744
  21899854.631   -16664120.936 8 -12971631.28247  21899854.317    21899861.4574
  20238864.920    -6214450.988 9  -4834577.85948  20238864.316    20238870.8524
  21732346.683   -18083162.907 9 -14065876.17847  21732346.310    21732353.8694
  24221582.210     6187355.125 7   4830465.42845  24221581.719    24221592.3484
 01  7 19 17 56  0.0000000  0  9 17 18 26 23 06 03 15 21 22
  20825457.368      293624.268 9    233642.17947  20825456.936    20825463.8804
  20244978.802   -10461516.581 8  -8134283.73848  20244978.463    20244983.6134
  23072151.726     1742913.927 8   1366541.50946  23072151.742    23072158.8934
  21129305.473     -463630.216 9    -57960.82747  21129304.986    21129311.4974
  24003436.539    17440277.016 7  13586040.72045  24003436.525    24003448.8854
  21888232.883   -16725193.294 8 -13019220.11347  21888232.632    21888239.7304
  20240946.864    -6203510.528 9  -4826052.83248  20240946.215    20240952.7824
  21722125.278   -18136875.986 9 -14107730.48447  21722124.966    21722132.5444
  24235842.269     6262292.932 7   4888858.40545  24235841.697    24235852.5824
 01  7 19 17 56 30.0000000  0  9 17 18 26 23 06 03 15 21 22
  20832462.778      330437.540 9    262327.82847  20832462.306    20832469.1974
  20246909.530   -10451370.656 9  -8126377.82648  20246909.206    20246914.3694
  23086887.253     1820350.294 8   1426881.52346  23086887.321    23086894.5914
  21138001.483     -417932.569 9    -22352.28947  21138000.976    21138007.4714
  24024605.324    17551516.674 8  13672720.63645  24024605.330    24024617.4454
  21876697.247   -16785813.405 8 -13066456.53347  21876696.958    21876704.0454
  20243092.154    -6192237.147 9  -4817268.39048  20243091.510    20243098.0694
  21711959.816   -18190295.821 9 -14149356.28747  21711959.493    21711967.0384
  24250140.265     6337428.582 7   4947405.54745  24250139.715    24250150.3014
 01  7 19 17 57  0.0000000  0  9 17 18 26 23 06 03 15 21 22
  20839524.248      367545.502 9    291243.10047  20839523.738    20839530.6294
  20248921.928   -10440795.646 9  -8118137.56248  20248921.593    20248926.7264
  23101710.790     1898248.360 8   1487581.27646  23101710.898    23101718.1874
  21146750.446     -371956.372 9     13473.29347  21146749.940    21146756.4704
  24045798.127    17662882.079 8  13759498.51245  24045798.049    24045810.0554
  21865247.861   -16845980.109 8 -13113339.66347  21865247.614    21865254.6854
  20245300.715    -6180631.103 9  -4808224.73048  20245300.070    20245306.6254
  21701849.911   -18243423.686 9 -14190754.58347  21701849.552    21701857.1114
  24264475.297     6412757.768 7   5006103.48445  24264474.674    24264485.2594
 01  7 19 17 57 30.0000000  0  9 17 18 26 23 06 03 15 21 22
  20846641.998      404949.397 9    320388.96747  20846641.530    20846648.3554
  20251016.065   -10429791.308 9  -8109562.75448  20251015.674    20251020.7724
  23116622.082     1976606.686 8   1548639.67746  23116622.125    23116629.3924
  21155552.394     -325702.062 9     49515.59047  21155551.926    21155558.4294
  24067014.445    17774372.155 8  13846373.53445  24067014.362    24067026.2824
  21853885.522   -16905689.860 8 -13159866.72747  21853885.260    21853892.2754
  20247572.840    -6168691.104 9  -4798920.84948  20247572.207    20247578.7654
  21691795.874   -18296258.005 9 -14231924.14347  21691795.512    21691803.0164
  24278846.747     6488278.980 7   5064951.06445  24278846.065    24278856.8544
 01  7 19 17 58  0.0000000  0  9 17 18 26 23 06 03 15 21 22
  20853815.851      442648.123 9    349764.57747  20853815.394    20853822.2034
  20253191.333   -10418360.242 9  -8100655.43448  20253190.938    20253196.0184
  23131619.942     2055421.365 8   1610053.68846  23131620.053    23131627.3764
  21164406.699     -279172.671 9     85772.23247  21164406.226    21164412.6854
  24088253.854    17885983.506 8  13933343.06745  24088253.728    24088265.4624
  21842610.243   -16964941.758 8 -13206037.02447  21842609.976    21842617.0244
  20249908.276    -6156418.316 9  -4789357.65748  20249907.671    20249914.1994
  21681797.544   -18348799.743 9 -14272865.72647  21681797.144    21681804.5754
  24293253.856     6563988.555 7   5123945.48645  24293253.160    24293264.2854
 01  7 19 17 58 30.0000000  0  9 17 18 26 23 06 03 15 21 22
  20861046.186      480643.208 9    379371.11847  20861045.669    20861052.4254
  20255447.874   -10406502.122 9  -8091415.34248  20255447.465    20255452.5354
  23146704.492     2134691.027 8   1671822.21945  23146704.580    23146711.9424
  21173313.257     -232368.522 9    122242.97747  21173312.771    21173319.2084
  24109515.927    17997714.945 7  14020406.15845  24109515.849    24109527.6144
  21831422.708   -17023732.590 8 -13251848.02647  21831422.391    21831429.5374
  20252307.404    -6143810.941 9  -4779533.74048  20252306.780    20252313.3144
  21671855.182   -18401047.359 9 -14313578.11447  21671854.767    21671862.1634
  24307696.752     6639884.745 7   5183085.27745  24307695.912    24307706.7104
 01  7 19 17 59  0.0000000  0 10 31 17 18 26 23 06 03 15 21 22
  24427388.256     -673819.453 7   -507782.60044  24427387.352    24427396.2414
  20868332.736      518934.374 9    409208.36147  20868332.274    20868338.9934
  20257785.343   -10394218.683 9  -8081843.83248  20257784.897    20257789.9684
  23161874.928     2214412.468 8   1733942.77745  23161874.988    23161882.4704
  21182271.667     -185291.781 9    158926.12847  21182271.209    21182277.6454
  24130800.430    18109563.864 7  14107560.76145  24130800.463    24130812.1214
  21820323.101   -17082060.640 8 -13297298.45047  21820322.915    21820330.0564
  20254770.176    -6130869.077 9  -4769449.18348  20254769.565    20254776.0844
  21661968.762   -18453000.928 9 -14354061.37847  21661968.321    21661975.6954
  24322174.116     6715963.707 7   5242367.46945  24322173.458    24322183.7174
 01  7 19 17 59 30.0000000  0 11 31 17 14 18 26 23 06 03 15 21 22
  24408151.098     -774906.584 7   -586551.75345  24408152.278    24408160.5984
  20875675.008      557518.051 9    439273.54447  20875674.541    20875681.2744
  24651497.865    -2011402.990 7  -1532315.71945  24651497.204    24651510.2314
  20260202.841   -10381514.625 9  -8071944.57148  20260202.424    20260207.4864
  23177130.177     2294579.410 8   1796410.47345  23177130.316    23177137.8594
  21191280.913     -137947.692 9    195817.60147  21191280.482    21191286.9554
  24152106.229    18221524.376 7  14194802.35945  24152106.334    24152117.6704
  21809311.535   -17139927.361 8 -13342389.37247  21809311.238    21809318.3694
  20257295.975    -6117595.966 9  -4759106.50948  20257295.366    20257301.8894
  21652137.456   -18504664.571 9 -14394318.73047  21652137.037    21652144.4324
  24336685.129     6792218.641 7   5301786.78045  24336684.513    24336694.3644
 01  7 19 18  0  0.0000000  0 11 31 17 14 18 26 23 06 03 15 21 22
  24388955.843     -875781.137 7   -665155.21545  24388955.517    24388965.2644
  20883073.616      596398.052 9    469569.62647  20883073.169    20883079.8984
  24629571.715    -2126620.012 7  -1622094.80645  24629571.792    24629585.2424
  20262700.833   -10368387.587 9  -8061715.71148  20262700.424    20262705.4664
  23192470.503     2375192.703 7   1859225.98445  23192470.636    23192478.0784
  21200341.470      -90334.352 9    232918.87847  21200341.039    21200347.4894
  24173433.629    18333597.716 7  14282131.83945  24173433.440    24173444.5374
  21798388.696   -17197327.168 8 -13387116.49047  21798388.460    21798395.4854
  20259885.512    -6103987.946 9  -4748502.87648  20259884.903    20259891.4424
  21642362.165   -18556034.278 9 -14434347.03747  21642361.735    21642369.1254
  24351229.768     6868650.555 7   5361344.00945  24351229.006    24351239.2634
 01  7 19 18  0 30.0000000  0 11 31 17 14 18 26 23 06 03 15 21 22
  24369800.956     -976440.023 7   -743590.64245  24369801.308    24369810.3494
  20890528.680      635574.412 8    500096.63447  20890528.208    20890534.9644
  24607647.408    -2241831.227 7  -1711869.38045  24607647.590    24607661.1124
  20265279.101   -10354838.646 9  -8051158.10148  20265278.689    20265283.7194
  23207895.137     2456249.657 8   1922387.19445  23207895.308    23207902.7234
  21209452.948      -42453.209 9    270228.84047  21209452.521    21209458.9884
  24194782.101    18445781.739 7  14369547.52845  24194782.040    24194792.7574
  21787555.098   -17254258.093 8 -13431478.21547  21787554.810    21787561.8544
  20262538.877    -6090044.561 9  -4737637.91148  20262538.257    20262544.7804
  21632642.682   -18607110.390 9 -14474146.57547  21632642.253    21632649.6534
  24365807.281     6945256.887 7   5421037.26345  24365806.394    24365816.9104
 01  7 19 18  1  0.0000000  0 11 31 17 14 18 26 23 06 03 15 21 22
  24350687.966    -1076880.183 7   -821855.64545  24350687.970    24350697.4474
  20898040.304      675048.135 9    530855.35347  20898039.818    20898046.5804
  24585724.995    -2357033.346 7  -1801636.86345  24585725.147    24585738.7014
  20267937.492   -10340868.378 9  -8040272.18548  20267937.149    20267942.2174
  23223403.753     2537748.234 8   1985892.53946  23223403.972    23223411.4624
  21218615.226        5694.845 9    307746.77947  21218614.829    21218621.3034
  24216151.385    18558074.997 7  14457048.39745  24216150.928    24216161.6014
  21776811.299   -17310717.127 8 -13475472.25847  21776811.018    21776818.0384
  20265256.292    -6075764.685 9  -4726510.74348  20265255.655    20265262.1814
  21622979.224   -18657891.998 9 -14513716.62447  21622978.803    21622986.2354
  24380417.689     7022035.238 8   5480864.44545  24380417.017    24380427.5834
 01  7 19 18  1 30.0000000  0 11 31 17 14 18 26 23 06 03 15 21 22
  24331617.195    -1177098.403 7   -899947.72145  24331616.932    24331626.3844
  20905608.613      714819.932 9    561846.33747  20905608.139    20905614.9194
  24563805.355    -2472223.070 7  -1891394.67845  24563805.082    24563818.3924
  20270676.025   -10326477.168 9  -8029058.26648  20270675.703    20270680.8014
  23238996.162     2619686.308 8   2049740.33346  23238996.397    23239003.8224
  21227828.128       54108.651 9    345471.79747  21227827.691    21227834.1664
  24237540.618    18670475.802 7  14544633.04044  24237540.339    24237550.5664
  21766157.669   -17366701.673 8 -13519096.58447  21766157.473    21766164.5054
  20268037.844    -6061147.412 9  -4715120.67248  20268037.210    20268043.7484
  21613372.027   -18708378.052 9 -14553056.37047  21613371.574    21613379.0204
  24395060.995     7098982.786 7   5540823.45245  24395060.002    24395070.1224
 01  7 19 18  2  0.0000000  0 11 31 17 14 18 26 23 06 03 15 21 22
  24312589.055    -1277092.532 7   -977865.15945  24312588.615    24312598.1584
  20913233.654      754889.426 9    593069.29447  20913233.130    20913239.9404
  24541888.306    -2587398.465 7  -1981141.39445  24541887.635    24541900.7164
  20273494.349   -10311666.772 9  -8017517.71048  20273494.052    20273499.1444
  23254671.638     2702060.783 8   2113928.17646  23254671.846    23254679.2184
  21237091.161      102786.061 9    383402.22147  21237090.688    21237097.1684
  24258950.085    18782981.148 7  14632299.21744  24258949.688    24258959.8984
  21755594.794   -17422210.214 8 -13562349.96547  21755594.555    21755601.6014
  20270883.638    -6046192.900 9  -4703467.82148  20270882.990    20270889.5214
  21603820.883   -18758569.240 9 -14592166.35647  21603820.446    21603827.8994
  24409735.232     7176096.189 7   5600911.72145  24409734.173    24409744.2674
 01  7 19 18  2 30.0000000  0 11 31 17 14 18 26 23 06 03 15 21 22
  24293603.792    -1376861.445 7  -1055607.13445  24293603.288    24293612.5364
  20920914.993      795255.179 9    624523.09647  20920914.512    20920921.3104
  24519974.241    -2702558.174 7  -2070875.88545  24519973.386    24519986.1174
  20276391.879   -10296440.068 9  -8005652.75448  20276391.606    20276396.7044
  23270429.279     2784867.191 8   2178452.61046  23270429.387    23270436.8324
  21246403.706      151723.998 9    421535.65647  21246403.281    21246409.7894
  24280378.543    18895587.333 7  14720043.92745  24280378.244    24280388.6544
  21745122.635   -17477242.228 8 -13605232.01347  21745122.345    21745129.3414
  20273793.271    -6030902.524 9  -4691553.25648  20273792.635    20273799.1824
  21594325.640   -18808467.021 9 -14631047.71347  21594325.200    21594332.5684
  24424439.981     7253371.321 7   5661126.06045  24424439.013    24424449.6054
 01  7 19 18  3  0.0000000  0 11 31 17 14 18 26 23 06 03 15 21 22
  24274662.300    -1476400.548 7  -1133169.99645  24274661.722    24274670.7454
  20928653.161      835919.318 9    656209.40947  20928652.665    20928659.5184
  24498063.707    -2817697.828 8  -2160594.77145  24498062.874    24498075.1364
  20279368.862   -10280796.252 9  -7993462.77648  20279368.565    20279373.6384
  23286268.932     2868104.848 8   2243313.07646  23286268.992    23286276.5204
  21255765.969      200922.616 9    459872.22247  21255765.510    21255771.9524
  24301826.140    19008293.995 8  14807866.89345  24301825.945    24301836.2044
  21734741.868   -17531793.791 8 -13647739.71047  21734741.542    21734748.5434
  20276767.371    -6015273.827 9  -4679375.06548  20276766.687    20276773.2344
  21584886.657   -18858069.079 9 -14669698.62947  21584886.214    21584893.5274
  24439175.761     7330807.394 7   5721465.79845  24439174.711    24439185.3664
 01  7 19 18  3 30.0000000  0 11 31 17 14 18 26 23 06 03 15 21 22
  24255764.749    -1575708.509 7  -1210552.76045  24255764.054    24255773.0134
  20936447.881      876880.790 8    688127.41447  20936447.379    20936454.2634
  24476157.026    -2932815.956 7  -2250296.91145  24476156.351    24476168.2074
  20282424.721   -10264737.720 9  -7980949.64548  20282424.410    20282429.4864
  23302189.930     2951769.659 8   2308506.40746  23302189.989    23302197.3854
  21265177.208      250379.027 9    498409.66747  21265176.754    21265183.2254
  24323292.490    19121097.780 8  14895765.60645  24323292.294    24323302.6034
  21724452.530   -17585864.174 8 -13689872.44547  21724452.245    21724459.2824
  20279805.589    -5999307.991 9  -4666934.16848  20279804.903    20279811.4684
  21575503.671   -18907377.215 9 -14708120.51947  21575503.210    21575510.4654
  24453941.144     7408399.604 7   5781927.08145  24453940.009    24453951.0384
 01  7 19 18  4  0.0000000  0 11 31 17 14 18 26 23 06 03 15 21 22
  24236912.025    -1674782.201 7  -1287752.92045  24236910.777    24236919.7734
  20944299.222      918140.029 8    720277.44547  20944298.734    20944305.6754
  24454254.990    -3047909.450 7  -2339979.88245  24454254.472    24454266.1884
  20285559.278   -10248265.534 9  -7968114.19248  20285558.970    20285564.0374
  23318191.749     3035859.322 8   2374030.78546  23318191.732    23318199.1524
  21274637.322      300092.065 9    537147.07647  21274636.845    21274643.3124
  24344776.863    19233996.624 7  14983738.32145  24344776.681    24344787.2524
  21714255.184   -17639451.139 8 -13731628.49947  21714254.974    21714262.0194
  20282908.041    -5983004.342 9  -4654230.04348  20282907.375    20282913.9364
  21566176.675   -18956390.633 9 -14746312.76547  21566176.207    21566183.4604
  24468735.862     7486145.333 7   5842508.11145  24468734.698    24468745.6094
 01  7 19 18  4 30.0000000  0 11 31 17 14 18 26 23 06 03 15 21 22
  24218104.127    -1773619.758 7  -1364769.10045  24218102.387    24218111.7424
  20952207.081      959696.292 8    752658.91847  20952206.629    20952213.6014
  24432358.192    -3162976.535 7  -2429642.27145  24432357.701    24432369.1764
  20288772.212   -10231381.662 9  -7954957.94048  20288771.885    20288776.9494
  23334273.518     3120370.115 8   2439883.32046  23334273.579    23334280.9814
  21284145.690      350059.262 9    576082.52747  21284145.253    21284151.7734
  24366278.730    19346987.521 8  15071782.75645  24366278.536    24366289.3144
  21704150.186   -17692553.448 8 -13773006.90047  21704149.900    21704156.9884
  20286074.699    -5966363.454 9  -4641263.13748  20286074.053    20286080.6134
  21556905.607   -19005110.345 9 -14784276.14847  21556905.125    21556912.3904
  24483558.585     7564041.148 7   5903206.13145  24483557.775    24483568.7744
 01  7 19 18  5  0.0000000  0 11 31 17 14 18 26 23 06 03 15 21 22
  24199341.364    -1872218.039 7  -1441598.87745  24199339.686    24199348.9444
  20960171.669     1001550.418 8    785272.50047  20960171.175    20960178.2004
  24410466.902    -3278013.901 7  -2519281.52345  24410466.526    24410478.0334
  20292063.315   -10214086.768 9  -7941481.41148  20292062.987    20292068.0554
  23350435.002     3205299.948 8   2506062.37146  23350435.160    23350442.6424
  21293702.335      400279.679 9    615215.29247  21293701.907    21293708.4414
  24387797.628    19460068.748 7  15159897.59445  24387797.399    24387808.4954
  21694137.857   -17745168.412 8 -13814005.56747  21694137.601    21694144.6304
  20289305.761    -5949384.174 9  -4628032.53948  20289305.096    20289311.6784
  21547690.569   -19053535.636 9 -14822010.11547  21547690.075    21547697.3424
  24498409.558     7642084.901 8   5964019.36845  24498409.054    24498420.0654
 01  7 19 18  5 30.0000000  0 11 31 17 14 18 26 23 06 03 15 21 22
  24180624.787    -1970574.415 7  -1518240.12645  24180623.053    24180632.2964
  20968192.994     1043702.479 9    818118.23847  20968192.522    20968199.4964
  24388582.127    -3393019.138 7  -2608895.72945  24388581.507    24388593.0874
  20295432.400   -10196381.978 9  -7927685.48448  20295432.105    20295437.1614
  23366675.727     3290645.921 8   2572565.70046  23366675.926    23366683.3744
  21303306.895      450751.639 9    654544.06847  21303306.458    21303312.9874
  24409333.188    19573238.009 7  15248081.00445  24409332.850    24409344.5134
  21684218.627   -17797294.304 8 -13854623.13547  21684218.358    21684225.3514
  20292601.272    -5932066.129 9  -4614537.97648  20292600.635    20292607.1914
  21538531.565   -19101666.211 9 -14859514.43147  21538531.085    21538538.3574
  24513288.593     7720273.549 8   6024945.49945  24513288.123    24513298.9384
 01  7 19 18  6  0.0000000  0 11 31 17 14 18 26 23 06 03 15 21 22
  24161953.989    -2068686.492 7  -1594691.04845  24161952.968    24161962.1404
  20976270.978     1086152.629 8    851196.24047  20976270.540    20976277.4684
  24366704.221    -3507989.444 7  -2698482.71245  24366703.432    24366714.9394
  20298879.278   -10178268.482 9  -7913571.08948  20298878.988    20298884.0384
  23382995.291     3376405.249 8   2639391.09546  23382995.429    23383002.8804
  21312959.037      501473.633 9    694067.67147  21312958.556    21312965.1054
  24430884.967    19686493.155 7  15336331.32845  24430884.700    24430896.8554
  21674392.761   -17848929.203 8 -13894858.10847  21674392.520    21674399.4674
  20295961.325    -5914409.165 9  -4600779.32048  20295960.679    20295967.2144
  21529428.623   -19149502.128 9 -14896789.14647  21529428.177    21529435.4424
  24528194.613     7798603.787 7   6085981.95145  24528194.104    24528204.9004
 01  7 19 18  6 30.0000000  0 11 31 17 14 18 26 23 06 03 15 21 22
  24143330.442    -2166551.228 7  -1670949.22945  24143329.960    24143339.0134
  20984405.784     1128900.835 9    884506.49647  20984405.309    20984412.2364
  24344833.236    -3622922.391 7  -2788040.61645  24344832.294    24344843.5694
  20302403.682   -10159747.654 9  -7899139.29848  20302403.428    20302408.4214
  23399392.858     3462575.322 8   2706536.58245  23399392.968    23399400.6234
  21322658.373      552443.949 9    733784.77247  21322657.901    21322664.4484
  24452452.475    19799831.962 7  15424646.85245  24452452.429    24452464.8854
  21664660.847   -17900070.904 8 -13934708.78047  21664660.587    21664667.4574
  20299385.964    -5896412.798 9  -4586756.19248  20299385.308    20299391.8474
  21520381.699   -19197043.751 9 -14933834.54747  21520381.280    21520388.4994
  24543126.562     7877072.577 7   6147126.36845  24543126.178    24543136.9714
 01  7 19 18  7  0.0000000  0 11 31 17 14 18 26 23 06 03 15 21 22
  24124754.564    -2264165.955 7  -1747012.61745  24124754.510    24124763.5774
  20992597.354     1171947.551 9    918049.36347  20992596.877    20992603.7644
  24322969.586    -3737814.747 7  -2877566.89845  24322968.859    24322980.0424
  20306005.454   -10140820.645 9  -7884390.99248  20306005.145    20306010.1444
  23415868.194     3549153.295 8   2773999.89145  23415868.182    23415875.8464
  21332404.735      603661.110 9    773694.22847  21332404.214    21332410.7364
  24474035.568    19913252.475 7  15513026.02645  24474035.718    24474048.5264
  21655023.213   -17950717.376 8 -13974173.55647  21655022.920    21655029.6904
  20302875.195    -5878076.804 9  -4572468.41848  20302874.532    20302881.1024
  21511390.865   -19244290.933 9 -14970650.50447  21511390.434    21511397.6044
  24558084.300     7955677.655 7   6208377.02345  24558083.943    24558095.0824
 01  7 19 18  7 30.0000000  0 11 31 17 14 18 26 23 06 03 15 21 22
  24106226.934    -2361528.217 7  -1822879.22545  24106226.977    24106236.0934
  21000845.717     1215292.515 9    951824.62747  21000845.217    21000852.0994
  24301113.842    -3852664.237 7  -2967059.80045  24301113.580    24301124.3724
  20309684.196   -10121488.897 9  -7869327.30448  20309683.868    20309688.8834
  23432420.348     3636136.066 8   2841778.64145  23432420.443    23432428.1424
  21342197.681      655123.105 9    813794.45847  21342197.134    21342203.7074
  24495634.175    20026751.791 7  15601466.61445  24495634.214    24495647.1404
  21645480.118   -18000867.070 8 -14013251.22347  21645479.776    21645486.5554
  20306429.040    -5859401.345 9  -4557916.12448  20306428.382    20306434.9214
  21502456.055   -19291243.623 9 -15007236.99047  21502455.640    21502462.7984
  24573067.928     8034415.923 7   6269731.45245  24573067.319    24573078.6654
 01  7 19 18  8  0.0000000  0 11 31 17 14 18 26 23 06 03 15 21 22
  24087747.767    -2458636.341 7  -1898547.80345  24087747.709    24087756.9524
  21009150.630     1258934.890 9    985831.64147  21009150.108    21009156.9724
  24279266.769    -3967469.300 7  -3056518.09545  24279266.664    24279277.2604
  20313439.541   -10101754.561 9  -7853949.91148  20313439.199    20313444.2104
  23449048.832     3723519.859 7   2909869.86545  23449048.971    23449056.7764
  21352036.680      706827.434 9    854083.52247  21352036.163    21352042.7434
  24517247.575    20140326.842 7  15689966.19045  24517247.242    24517260.2994
  21636031.592   -18050519.033 8 -14051941.05547  21636031.297    21636038.0904
  20310047.412    -5840386.817 9  -4543099.62648  20310046.727    20310053.2754
  21493577.031   -19337902.990 9 -15043594.91147  21493576.637    21493583.8134
  24588076.210     8113283.191 7   6331186.34345  24588075.419    24588086.7504
 01  7 19 18  8 30.0000000  0 10 31 17 14 18 26 23 03 15 21 22
  24069317.812    -2555486.461 7  -1974015.39745  24069317.778    24069326.8744
  21017512.477     1302876.228 9   1020071.61047  21017511.969    21017518.7854
  24257428.915    -4082225.867 7  -3145938.59245  24257428.992    24257439.4934
  20317271.471   -10081617.686 9  -7838258.85748  20317271.116    20317276.1854
  23465753.388     3811303.334 8   2978272.51045  23465753.567    23465761.5244
  21361921.756      758773.819 9    894561.20347  21361921.240    21361927.8214
  21626678.411   -18099670.120 8 -14090240.58647  21626678.102    21626685.0004
  20313730.621    -5821031.579 9  -4528017.64048  20313729.937    20313736.4704
  21484754.242   -19384267.341 9 -15079722.95447  21484753.844    21484760.9794
  24603108.327     8192277.444 7   6392740.20145  24603107.842    24603118.9034
 01  7 19 18  9  0.0000000  0 10 31 17 14 18 26 23 03 15 21 22
  24050937.656    -2652076.853 8  -2049280.57645  24050937.193    24050946.1824
  21025931.055     1347115.708 9   1054543.89947  21025930.531    21025937.2974
  24235601.017    -4196932.275 7  -3235320.03345  24235600.793    24235611.2324
  20321179.502   -10061080.565 9  -7822255.92248  20321179.160    20321184.2964
  23482533.432     3899482.725 8   3046983.69845  23482533.600    23482541.4784
  21371852.474      810959.828 9    935225.60547  21371851.945    21371858.4924
  21617420.740   -18148319.301 8 -14128149.01247  21617420.391    21617427.4004
  20317478.502    -5801336.398 9  -4512670.75548  20317477.833    20317484.3614
  21475987.489   -19430337.454 9 -15115621.71147  21475987.004    21475994.1264
  24618163.467     8271395.250 7   6454390.36345  24618163.232    24618174.7214
 01  7 19 18  9 30.0000000  0 10 31 17 14 18 26 23 03 15 21 22
  24032607.061    -2748404.449 8  -2124340.97345  24032606.732    24032615.6984
  21034406.468     1391653.888 8   1089248.94447  21034405.894    21034412.6634
  24213783.277    -4311585.154 8  -3324659.76545  24213783.007    24213793.2844
  20325163.625   -10040144.132 9  -7805941.83148  20325163.292    20325168.3624
  23499388.180     3988055.587 7   3116001.47845  23499388.492    23499396.2634
  21381828.549      863384.287 9    976075.81147  21381827.999    21381834.5614
  21608259.008   -18196464.508 8 -14165664.74347  21608258.654    21608265.6704
  20321291.214    -5781300.558 9  -4497058.43248  20321290.523    20321297.0764
  21467276.505   -19476113.540 9 -15151291.36447  21467276.034    21467283.2154
  24633241.830     8350634.486 7   6516135.15745  24633241.522    24633253.5874
 01  7 19 18 10  0.0000000  0 10 31 17 14 18 26 23 03 15 21 22
  24014327.368    -2844466.620 8  -2199194.54745  24014326.827    24014335.7584
  21042938.659     1436490.815 8   1124186.77947  21042938.097    21042944.8394
  24191976.519    -4426181.776 8  -3413955.65545  24191975.964    24191986.2304
  20329223.538   -10018809.434 9  -7789317.40148  20329223.152    20329228.2044
  23516317.400     4077019.123 8   3185323.68645  23516317.721    23516325.5014
  21391849.693      916045.823 9   1017110.74847  21391849.161    21391855.7394
  21599193.533   -18244103.913 8 -14202786.34347  21599193.200    21599200.2074
  20325168.828    -5760923.498 9  -4481180.22048  20325168.149    20325174.6964
  21458621.553   -19521595.415 9 -15186731.76247  21458621.066    21458628.2804
  24648343.113     8429992.218 7   6577972.24645  24648342.657    24648355.0824
 01  7 19 18 10 30.0000000  0 10 31 17 14 18 26 23 03 15 21 22
  23996098.235    -2940262.039 8  -2273840.24045  23996097.557    23996106.5034
  21051527.399     1481625.045 8   1159356.27647  21051526.811    21051533.6134
  24170180.327    -4540721.182 7  -3503206.96245  24170179.903    24170190.1264
  20333358.610    -9997079.259 9  -7772384.81248  20333358.269    20333363.2974
  23533320.295     4166368.729 7   3254946.71245  23533320.431    23533328.3034
  21401915.336      968941.191 9   1058327.89747  21401914.823    21401921.4404
  21590224.258   -18291237.205 8 -14239513.56947  21590223.999    21590231.0324
  20329111.071    -5740206.860 9  -4465037.39548  20329110.380    20329116.9424
  21450022.274   -19566784.549 9 -15221944.04847  21450021.819    21450029.0424
  24663466.830     8509463.399 7   6639897.78645  24663466.185    24663477.8364
 01  7 19 18 11  0.0000000  0 10 31 17 14 18 26 23 03 15 21 22
  23977920.609    -3035787.097 8  -2348275.31645  23977919.742    23977928.6564
  21060172.947     1527057.694 8   1194758.30347  21060172.366    21060179.1984
  24148395.931    -4655199.435 7  -3592410.63245  24148395.414    24148405.4844
  20337568.984    -9974953.970 9  -7755144.34048  20337568.614    20337573.6154
  23550396.122     4256102.740 7   3324869.27645  23550396.140    23550404.0784
  21412025.402     1022069.885 9   1099726.85947  21412024.894    21412031.5304
  21581351.986   -18337861.242 8 -14275843.97947  21581351.761    21581358.7684
  20333118.228    -5719149.110 9  -4448628.77248  20333117.506    20333124.1104
  21441478.923   -19611679.914 9 -15256927.42747  21441478.483    21441485.7054
  24678611.782     8589046.149 7   6701910.24145  24678610.793    24678622.1744
 01  7 19 18 11 30.0000000  0 10 31 17 14 18 26 23 03 15 21 22
  23959794.732    -3131038.678 7  -2422497.27145  23959793.980    23959802.7414
  21068875.337     1572789.381 8   1230393.34947  21068874.782    21068881.6484
  24126623.699    -4769613.628 7  -3681564.40445  24126622.877    24126633.0974
  20341854.349    -9952434.504 9  -7737596.71948  20341853.928    20341858.9504
  23567544.714     4346218.717 7   3395089.45945  23567544.708    23567552.5844
  21422179.618     1075430.627 9   1141306.64047  21422179.084    21422185.7324
  21572577.029   -18383973.977 8 -14311775.97447  21572576.786    21572583.7734
  20337190.376    -5697749.714 9  -4431953.93748  20337189.676    20337196.2554
  21432991.574   -19656281.192 9 -15291681.64947  21432991.129    21432998.4334
  24693776.489     8668738.496 7   6764008.07645  24693775.755    24693787.2024
 01  7 19 18 12  0.0000000  0 10 31 17 14 18 26 23 03 15 21 22
  23941721.542    -3226013.725 7  -2496503.74045  23941720.802    23941729.6174
  21077634.686     1618820.434 8   1266261.66447  21077634.158    21077641.1214
  24104863.756    -4883960.751 7  -3770665.86245  24104863.071    24104873.5054
  20346214.461    -9929521.971 9  -7719742.80948  20346214.049    20346219.0824
  23584765.486     4436714.133 7   3465605.33345  23584765.457    23584773.3434
  21432377.816     1129022.376 9   1183066.43147  21432377.284    21432383.9404
  21563899.767   -18429573.195 8 -14347307.81247  21563899.513    21563906.5234
  20341327.692    -5676007.985 9  -4415012.34048  20341327.002    20341333.6024
  21424560.197   -19700588.356 9 -15326206.69447  21424559.756    21424567.0794
  24708961.803     8748537.906 7   6826189.37245  24708960.963    24708972.2684
 01  7 19 18 12 30.0000000  0 10 31 17 14 18 26 23 03 15 21 22
  23923701.339    -3320709.093 7  -2570292.29245  23923700.917    23923709.6954
  21086451.258     1665151.650 8   1302363.86747  21086450.744    21086457.7344
  24083117.143    -4998237.374 7  -3859712.39945  24083116.776    24083127.2554
  20350649.256    -9906217.013 9  -7701583.11748  20350648.829    20350653.8974
  23602057.793     4527587.006 7   3536415.30345  23602058.015    23602065.9774
  21442619.702     1182843.856 9   1225005.22947  21442619.214    21442625.8434
  21555320.651   -18474656.623 8 -14382437.75047  21555320.442    21555327.3674
  20345530.333    -5653922.849 9  -4397803.16148  20345529.683    20345536.2644
  21416185.007   -19744600.545 9 -15360501.88447  21416184.554    21416191.8184
  24724166.949     8828441.935 7   6888452.17245  24724166.166    24724177.1964
 01  7 19 18 13  0.0000000  0 10 31 17 14 18 26 23 03 15 21 22
  23905734.909    -3415123.344 7  -2643861.75645  23905734.286    23905743.2264
  21095324.671     1711781.734 8   1338698.95447  21095324.181    21095331.1564
  24061384.710    -5112442.070 7  -3948702.89345  24061384.241    24061394.4534
  20355158.243    -9882522.040 9  -7683119.51648  20355157.788    20355162.8904
  23619421.442     4618832.770 7   3607515.83045  23619421.604    23619429.4944
  21452904.769     1236892.234 9   1267120.83347  21452904.303    21452910.9284
  21546839.805   -18519224.060 8 -14417165.60747  21546839.524    21546846.4264
  20349798.179    -5631495.659 9  -4380327.44648  20349797.478    20349804.0724
  21407865.625   -19788318.848 9 -15394568.06647  21407865.203    21407872.4014
  24739391.407     8908445.761 7   6950792.72445  24739390.716    24739401.5474
 01  7 19 18 13 30.0000000  0 10 31 17 14 18 26 23 03 15 21 22
  23887822.247    -3509254.522 7  -2717210.70345  23887821.646    23887830.5224
  21104254.900     1758710.015 8   1375266.41347  21104254.369    21104261.3714
  24039666.181    -5226573.103 7  -4037635.98445  24039665.686    24039675.7304
  20359741.061    -9858439.357 9  -7664353.80648  20359740.635    20359745.7374
  23636855.095     4710447.842 8   3678904.14945  23636855.385    23636863.2314
  21463232.550     1291165.121 9   1309411.37547  21463232.104    21463238.7304
  21538457.212   -18563274.394 8 -14451490.53347  21538456.997    21538463.9324
  20354130.929    -5608726.859 9  -4362585.54348  20354130.249    20354136.8444
  21399601.981   -19831744.435 9 -15428406.16347  21399601.554    21399608.7164
  24754634.212     8988546.027 7   7013208.43545  24754633.404    24754644.4564
 01  7 19 18 14  0.0000000  0 10 31 17 14 18 26 23 03 15 21 22
  23869963.987    -3603098.375 7  -2790335.72945  23869963.708    23869972.3844
  21113242.188     1805938.297 8   1412067.63047  21113241.677    21113248.6284
  24017962.698    -5340625.686 7  -4126507.93145  24017962.131    24017971.9694
  20364397.726    -9833968.435 9  -7645285.57348  20364397.321    20364402.4434
  23654359.240     4802431.265 8   3750579.46845  23654359.337    23654367.2684
  21473603.144     1345662.972 9   1351877.21847  21473602.704    21473609.3574
  21530173.798   -18606804.017 8 -14485409.71147  21530173.541    21530180.4634
  20358529.105    -5585614.366 9  -4344575.82648  20358528.434    20358535.0284
  21391394.363   -19874875.654 9 -15462014.88347  21391393.916    21391401.0994
  24769895.111     9068742.138 7   7075698.80545  24769894.259    24769905.4744
 01  7 19 18 14 30.0000000  0 10 31 17 14 18 26 23 03 15 21 22
  23852160.939    -3696653.607 7  -2863235.84645  23852160.553    23852169.1484
  21122286.307     1853465.283 8   1449101.60247  21122285.816    21122292.7514
  23996274.140    -5454598.617 7  -4215317.77745  23996273.546    23996283.6184
  20369127.734    -9809112.103 9  -7625917.01848  20369127.317    20369132.4604
  23671932.431     4894778.512 8   3822538.32545  23671932.602    23671940.4704
  21484016.038     1400382.665 9   1394515.92147  21484015.565    21484022.2144
  21521989.487   -18649812.866 8 -14518923.09047  21521989.257    21521996.1704
  20362992.420    -5562159.572 9  -4326299.38248  20362991.734    20362998.3304
  21383242.477   -19917714.118 9 -15495395.49047  21383242.000    21383249.1574
  24785173.476     9149029.568 7   7138260.32145  24785172.323    24785183.5884
 01  7 19 18 15  0.0000000  0 10 31 17 14 18 26 23 03 15 21 22
  23834413.416    -3789916.831 7  -2935908.43845  23834413.219    23834421.6764
  21131387.420     1901291.806 8   1486368.98547  21131386.905    21131393.8364
  23974601.246    -5568488.520 8  -4304062.98245  23974600.790    23974611.0184
  20373930.957    -9783871.016 9  -7606248.64848  20373930.561    20373935.6964
  23689574.631     4987487.561 8   3894779.08145  23689574.658    23689582.5374
  21494470.984     1455323.541 9   1437326.96847  21494470.478    21494477.1554
  21513904.763   -18692298.250 8 -14552028.56947  21513904.544    21513911.5004
  20367521.121    -5538361.196 9  -4307755.21048  20367520.449    20367527.0144
  21375146.398   -19960259.210 9 -15528547.49147  21375145.914    21375153.0624
  24800468.268     9229405.780 7   7200891.03245  24800467.394    24800478.3234
 01  7 19 18 15 30.0000000  0 10 31 17 14 18 26 23 03 15 21 22
  23816722.058    -3882885.039 7  -3008351.13645  23816721.807    23816730.1634
  21140545.615     1949418.038 8   1523869.90247  21140545.085    21140551.9714
  23952944.662    -5682292.577 7  -4392741.29545  23952944.293    23952954.8264
  20378807.199    -9758246.317 9  -7586281.36148  20378806.796    20378811.9224
  23707284.815     5080555.731 8   3967299.68045  23707284.938    23707292.9054
  21504967.661     1510484.162 9   1480309.25247  21504967.201    21504973.8604
  21505919.984   -18734258.464 8 -14584724.83047  21505919.761    21505926.6924
  20372115.312    -5514218.732 9  -4288942.91948  20372114.658    20372121.2104
  21367106.198   -20002510.658 9 -15561470.68247  21367105.760    21367112.8934
  24815779.697     9309867.930 7   7263588.74945  24815778.794    24815789.3414
 01  7 19 18 16  0.0000000  0 10 31 17 14 18 26 23 03 15 21 22
  23799087.425    -3975556.249 7  -3080562.39345  23799086.985    23799095.2844
  21149760.750     1997843.380 8   1561603.89047  21149760.215    21149767.0354
  23931304.878    -5796008.861 8  -4481351.20045  23931304.613    23931315.1694
  20383755.983    -9732240.242 9  -7566016.90148  20383755.570    20383760.7504
  23725062.937     5173979.526 8   4040097.38445  23725062.940    23725070.9014
  21515505.808     1565862.225 9   1523460.96547  21515505.345    21515512.0224
  21498035.393   -18775692.652 8 -14617011.21547  21498035.180    21498042.0314
  20376774.839    -5489732.894 9  -4269863.06448  20376774.173    20376780.6954
  21359121.688   -20044469.609 9 -15594165.95147  21359121.268    21359128.3594
  24831107.279     9390413.152 7   7326351.13145  24831106.262    24831116.3534
 01  7 19 18 16 30.0000000  0  9 31 17 14 18 26 23 03 15 21
  23781509.807    -4067926.383 7  -3152539.04045  23781509.234    23781517.7454
  21159032.997     2046569.325 8   1599572.11447  21159032.497    21159039.3004
  23909682.987    -5909632.972 8  -4569889.27645  23909682.592    23909693.0224
  20388777.411    -9705852.385 9  -7545454.95048  20388777.003    20388782.2174
  23742908.182     5267757.289 8   4113170.90946  23742908.326    23742916.2544
  21526085.319     1621457.705 9   1566782.09347  21526084.841    21526091.5324
  21490251.497   -18816597.792 8 -14648885.33847  21490251.229    21490258.0844
  20381500.039    -5464901.942 9  -4250514.29448  20381499.361    20381505.8814
  21351193.160   -20086134.312 9 -15626631.93847  21351192.737    21351199.8244
 01  7 19 18 17  0.0000000  0  9 31 17 14 18 26 23 03 15 21
  23763989.862    -4159993.359 7  -3224279.48545  23763989.343    23763998.0414
  21168362.354     2095595.450 8   1637774.25247  21168361.828    21168368.6374
  23888078.936    -6023162.620 7  -4658353.75645  23888078.438    23888088.6884
  20393871.118    -9679084.763 9  -7524597.07248  20393870.717    20393875.9424
  23760820.458     5361885.844 8   4186517.78546  23760820.476    23760828.4374
  21536705.826     1677268.582 9   1610271.06947  21536705.329    21536712.0264
  21482568.382   -18856972.573 8 -14680346.20047  21482568.167    21482575.0104
  20386290.831    -5439726.121 9  -4230896.78748  20386290.175    20386296.6894
  21343320.457   -20127505.619 9 -15658869.29847  21343320.047    21343327.0844
 01  7 19 18 17 30.0000000  0  9 31 17 14 18 26 23 03 15 21
  23746527.848    -4251756.416 7  -3295783.11245  23746527.232    23746536.1594
  21177748.521     2144920.037 8   1676208.95347  21177748.020    21177754.8314
  23866492.968    -6136597.219 7  -4746744.14745  23866492.381    23866502.5704
  20399036.473    -9651940.824 9  -7503445.96348  20399036.051    20399041.2604
  23778798.409     5456360.252 8   4260134.14546  23778798.560    23778806.4594
  21547366.712     1733291.495 9   1653925.26647  21547366.179    21547372.8704
  21474986.166   -18896817.308 8 -14711394.03447  21474985.897    21474992.7894
  20391146.968    -5414207.112 9  -4211011.86248  20391146.323    20391152.7994
  21335503.261   -20168585.380 9 -15690879.48547  21335502.839    21335509.8564
 01  7 19 18 18  0.0000000  0  9 31 17 14 18 26 23 03 15 21
  23729124.285    -4343212.094 7  -3367047.19745  23729123.800    23729132.6604
  21187191.600     2194543.769 8   1714876.75647  21187191.103    21187197.9544
  23844925.431    -6249933.224 7  -4835057.70845  23844925.003    23844935.2004
  20404273.311    -9624420.902 9  -7482001.87748  20404272.886    20404278.1254
  23796841.765     5551178.401 7   4334018.34945  23796841.859    23796849.7944
  21558067.693     1789525.580 9   1697744.01847  21558067.161    21558073.8594
  21467505.144   -18936129.660 8 -14742027.02747  21467504.975    21467511.8364
  20396068.636    -5388343.838 9  -4190858.68048  20396067.966    20396074.4694
  21327741.631   -20209372.643 9 -15722661.74247  21327741.202    21327748.2654
 01  7 19 18 18 30.0000000  0  9 31 17 14 18 26 23 03 15 21
  23711780.137    -4434357.397 7  -3438069.45945  23711779.426    23711788.1384
  21196691.766     2244467.057 8   1753777.97947  21196691.236    21196698.0994
  23823377.568    -6363167.337 7  -4923291.89245  23823376.840    23823387.2464
  20409581.575    -9596525.938 9  -7460265.55748  20409581.181    20409586.3804
  23814950.003     5646337.806 7   4408168.45945  23814950.143    23814958.1234
  21568808.681     1845969.673 9   1741726.40447  21568808.165    21568814.8714
  21460126.035   -18974907.968 9 -14772243.88847  21460125.784    21460132.5664
  20401055.882    -5362135.693 9  -4170436.77648  20401055.213    20401061.7204
  21320035.690   -20249867.240 9 -15754215.96147  21320035.267    21320042.3714
 01  7 19 18 19  0.0000000  0  9 31 17 14 18 26 23 03 15 21
  23694495.297    -4525190.134 8  -3508848.13245  23694494.503    23694503.2384
  21206248.766     2294689.383 8   1792912.21547  21206248.240    21206255.1624
  23801849.058    -6476297.503 7  -5011445.08945  23801848.623    23801859.0394
  20414960.783    -9568258.104 9  -7438238.68048  20414960.367    20414965.5504
  23833122.463     5741834.862 7   4482581.69245  23833122.663    23833130.5604
  21579589.178     1902621.678 9   1785870.80947  21579588.692    21579595.4024
  21452848.687   -19013151.234 9 -14802043.82247  21452848.402    21452855.1424
  20406108.680    -5335583.068 9  -4149746.43848  20406108.015    20406114.5494
  21312385.206   -20290070.543 9 -15785543.19047  21312384.803    21312391.8954
 01  7 19 18 19 30.0000000  0  9 31 17 14 18 26 23 03 15 21
  23677270.521    -4615707.344 8  -3579380.97645  23677269.717    23677278.3484
  21215862.768     2345211.104 8   1832279.74647  21215862.224    21215869.1594
  23780341.340    -6589320.736 8  -5099514.96345  23780340.922    23780351.3304
  20420410.805    -9539618.194 9  -7415921.87848  20420410.394    20420415.5804
  23851358.935     5837667.117 8   4557256.11345  23851359.167    23851366.8374
  21590409.057     1959480.681 9   1830176.50447  21590408.581    21590415.3244
  21445673.469   -19050857.214 9 -14831425.10147  21445673.189    21445679.8994
  20411227.171    -5308685.347 9  -4128787.18948  20411226.502    20411233.0464
  21304790.435   -20329981.604 9 -15816642.70147  21304790.001    21304797.0544
 01  7 19 18 20  0.0000000  0  9 31 17 14 18 26 23 03 15 21
  23660106.052    -4705906.435 8  -3649665.93445  23660105.549    23660113.9954
  21225533.707     2396032.259 8   1871880.60047  21225533.199    21225540.1254
  23758854.564    -6702234.190 7  -5187499.29045  23758854.108    23758864.6254
  20425931.229    -9510607.961 9  -7393316.51248  20425930.842    20425936.0354
  23869658.614     5933831.694 7   4632189.47745  23869658.590    23869666.3884
  21601268.062     2016545.009 9   1874642.19347  21601267.574    21601274.3454
  21438600.744   -19088024.450 8 -14860386.57747  21438600.456    21438607.1894
  20416411.344    -5281442.336 9  -4107558.88148  20416410.683    20416417.2374
  21297251.054   -20369601.128 9 -15847515.03947  21297250.640    21297257.7224
 01  7 19 18 20 30.0000000  0  9 31 17 14 18 26 23 03 15 21
  23643002.703    -4795784.801 8  -3719700.96245  23643002.300    23643010.7604
  21235261.695     2447153.118 8   1911714.98347  21235261.205    21235268.1674
  23737389.202    -6815035.231 8  -5275395.98845  23737388.648    23737399.0824
  20431522.050    -9481228.372 9  -7370423.34048  20431521.642    20431526.7844
  23888020.793     6030325.695 7   4707379.55845  23888020.867    23888028.5394
  21612165.836     2073813.225 9   1919266.74947  21612165.369    21612172.1724
  21431630.831   -19124651.569 8 -14888927.19047  21431630.531    21431637.2584
  20421661.245    -5253853.838 9  -4086061.36648  20421660.609    20421667.1804
  21289767.208   -20408928.834 9 -15878159.98947  21289766.821    21289773.8884
 01  7 19 18 21  0.0000000  0  9 31 17 14 18 26 23 03 15 21
  23625960.971    -4885340.099 8  -3789484.25845  23625960.608    23625968.9544
  21245046.572     2498573.082 8   1951782.44447  21245046.140    21245053.1094
  23715945.675    -6927721.327 8  -5363203.13145  23715945.093    23715955.5824
  20437182.721    -9451481.425 9  -7347243.91148  20437182.343    20437187.4764
  23906445.046     6127145.850 7   4782823.74645  23906444.993    23906452.9004
  21623102.120     2131283.415 9   1964048.70047  21623101.588    21623108.3784
  21424763.781   -19160737.530 8 -14917046.11047  21424763.545    21424770.3614
  20426976.869    -5225920.125 9  -4064294.84648  20426976.209    20426982.7864
  21282338.834   -20447965.323 9 -15908578.01147  21282338.434    21282345.4764
 01  7 19 18 21 30.0000000  0  9 31 17 14 18 26 23 03 15 21
  23608981.414    -4974568.399 8  -3859012.75445  23608980.993    23608989.2674
  21254888.591     2550293.348 8   1992083.89847  21254888.177    21254895.2114
  23694524.413    -7040288.749 8  -5450917.84745  23694523.943    23694534.3214
  20442913.267    -9421367.508 9  -7323778.53448  20442912.856    20442917.9724
  23924931.075     6224290.253 7   4858520.61145  23924931.204    23924938.8054
  21634076.682     2188955.063 9   2008987.62347  21634076.151    21634082.9164
  21418000.355   -19196279.902 8 -14944741.45747  21418000.027    21418006.8834
  20432358.418    -5197639.879 9  -4042258.30848  20432357.773    20432364.3524
  21274965.994   -20486709.894 9 -15938768.56847  21274965.588    21274972.6004
 01  7 19 18 22  0.0000000  0  9 31 17 14 18 26 23 03 15 21
  23592064.376    -5063468.062 8  -3928285.16945  23592064.024    23592072.1024
  21264787.629     2602312.981 8   2032618.63047  21264787.214    21264794.2994
  23673126.180    -7152735.667 8  -5538538.64345  23673125.876    23673136.1614
  20448713.124    -9390888.927 9  -7300029.00448  20448712.711    20448717.8534
  23943478.053     6321755.178 7   4934467.19745  23943477.904    23943485.7524
  21645089.160     2246825.826 9   2054081.70847  21645088.617    21645095.3674
  21411340.356   -19231278.165 8 -14972012.83647  21411340.108    21411346.9414
  20437805.835    -5169013.639 9  -4019952.16248  20437805.192    20437811.7604
  21267648.469   -20525163.754 9 -15968732.59447  21267648.044    21267655.0874
 01  7 19 18 22 30.0000000  0  9 31 17 14 18 26 23 03 15 21
  23575210.229    -5152036.651 8  -3997299.55345  23575209.812    23575217.9874
  21274743.626     2654631.848 8   2073386.54247  21274743.142    21274750.3044
  23651751.575    -7265059.502 8  -5626063.49145  23651751.244    23651761.6684
  20454582.080    -9360047.327 9  -7275996.59948  20454581.688    20454586.8414
  23962085.550     6419537.316 7   5010661.07245  23962085.413    23962093.1844
  21656139.128     2304893.879 9   2099329.52547  21656138.577    21656145.3344
  21404784.259   -19265730.814 8 -14998859.05047  21404783.957    21404790.8044
  20443319.022    -5140041.486 9  -3997376.47048  20443318.385    20443324.9954
  21260386.271   -20563326.761 9 -15998469.98347  21260385.851    21260392.9004
 01  7 19 18 23  0.0000000  0  9 31 17 14 18 26 23 03 15 21
  23558419.876    -5240270.923 8  -4066053.47645  23558419.316    23558427.5344
  21284756.664     2707250.529 8   2114388.05647  21284756.230    21284763.3474
  23630401.158    -7377256.901 8  -5713489.85645  23630400.694    23630411.1064
  20460520.029    -9328843.379 9  -7251681.84848  20460519.637    20460524.7764
  23980752.694     6517634.463 8   5087100.33045  23980752.651    23980760.5564
  21667226.513     2363158.603 8   2144730.58647  21667225.982    21667232.7154
  21398332.293   -19299635.900 9 -15025278.59947  21398332.033    21398338.8434
  20448898.205    -5110722.724 9  -3974530.69848  20448897.553    20448904.1664
  21253179.567   -20601198.309 9 -16027980.26647  21253179.130    21253186.1784
 01  7 19 18 23 30.0000000  0  9 31 17 14 18 26 23 03 15 21
  23541693.488    -5328168.382 8  -4134544.94145  23541692.895    23541701.1374
  21294826.785     2760168.961 8   2155623.14947  21294826.348    21294833.4134
  23609075.152    -7489325.260 8  -5800815.64945  23609074.678    23609085.1154
  20466526.624    -9297278.613 9  -7227085.93648  20466526.219    20466531.3714
  23999479.551     6616043.610 8   5163782.75545  23999479.476    23999487.4004
  21678351.082     2421618.439 9   2190283.68047  21678350.550    21678357.2754
  21391984.801   -19332992.141 9 -15051270.47347  21391984.587    21391991.3314
  20454543.393    -5081057.168 9  -3951414.69248  20454542.715    20454549.3564
  21246028.170   -20638778.919 9 -16057263.84147  21246027.741    21246034.7964
 01  7 19 18 24  0.0000000  0  9 31 17 14 18 26 23 03 15 21
  23525031.096    -5415728.027 7  -4202773.18145  23525030.791    23525039.0674
  21304953.686     2813385.534 8   2197090.55747  21304953.208    21304960.2394
  23587773.795    -7601263.625 8  -5888040.14745  23587773.354    23587783.8044
  20472601.238    -9265356.194 9  -7202211.33948  20472600.843    20472605.9874
  24018264.708     6714760.385 8   5240704.85245  24018264.661    24018272.6834
  21689512.180     2480270.379 9   2235986.46547  21689511.664    21689518.3904
  21385741.812   -19365799.716 9 -15076834.81647  21385741.549    21385748.2904
  20460254.318    -5051046.088 9  -3928029.44748  20460253.651    20460260.2864
  21238931.842   -20676070.484 9 -16086322.18547  21238931.424    21238938.4474
 01  7 19 18 24 30.0000000  0  9 31 17 14 18 26 23 03 15 21
  23508434.228    -5502944.723 8  -4270734.18745  23508433.940    23508442.2044
  21315137.707     2866902.737 8   2238792.22847  21315137.227    21315144.2574
  23566498.259    -7713066.398 8  -5975158.99245  23566497.893    23566508.3724
  20478744.211    -9233074.809 9  -7177057.02148  20478743.821    20478748.9394
  24037108.426     6813784.238 8   5317866.23845  24037108.396    24037116.3124
  21700710.021     2539115.352 9   2281839.66947  21700709.521    21700716.2344
  21379603.810   -19398055.005 9 -15101968.80447  21379603.578    21379610.3414
  20466031.467    -5020686.918 9  -3904372.96248  20466030.822    20466037.4584
  21231890.953   -20713070.896 9 -16115153.66147  21231890.488    21231897.5094
 01  7 19 18 25  0.0000000  0  9 31 17 14 18 26 23 03 15 21
  23491903.165    -5589817.549 8  -4338427.23445  23491902.514    23491910.7834
  21325378.572     2920718.689 8   2280726.69847  21325378.088    21325385.1264
  23545248.797    -7824732.497 8  -6062171.30845  23545248.433    23545258.9714
  20484954.815    -9200437.617 9  -7151625.45748  20484954.451    20484959.5634
  24056009.650     6913110.318 8   5395263.12845  24056009.691    24056017.6494
  21711944.015     2598150.018 9   2327840.68147  21711943.474    21711950.1704
  21373570.879   -19429758.391 9 -15126672.73947  21373570.635    21373577.3984
  20471874.559    -4989981.202 9  -3880446.44148  20471873.936    20471880.5924
  21224905.007   -20749782.009 9 -16143759.70347  21224904.544    21224911.5404
 01  7 19 18 25 30.0000000  0 10 31 17 14 18 26 23 03 15 29 21
  23475437.210    -5676346.770 7  -4405852.53245  23475436.454    23475444.8444
  21335675.754     2974830.496 8   2322891.69047  21335675.259    21335682.3224
  23524025.325    -7936262.537 8  -6149077.63645  23524024.927    23524035.2354
  20491232.310    -9167449.031 9  -7125920.07748  20491231.985    20491237.0924
  24074967.201     7012732.785 8   5472890.94745  24074967.327    24074975.3364
  21723213.282     2657369.982 9   2373986.08647  21723212.713    21723219.3604
  21367642.698   -19460911.459 9 -15150947.85547  21367642.429    21367649.1784
  20477783.083    -4958931.832 9  -3856252.14048  20477782.446    20477789.0884
  24447297.770    -1756467.265 7  -1344048.44445  24447298.788    24447311.3684
  21217973.617   -20786206.807 9 -16172142.64447  21217973.153    21217980.0744
 01  7 19 18 26  0.0000000  0 10 31 17 14 18 26 23 03 15 29 21
  23459037.833    -5762524.353 7  -4473003.85045  23459037.347    23459045.6694
  21346030.205     3029243.357 8   2365291.27547  21346029.751    21346036.7914
  23502829.274    -8047648.224 8  -6235871.48245  23502828.871    23502838.9664
  20497577.450    -9134105.270 9  -7099937.93948  20497577.123    20497582.2314
  24093981.757     7112654.254 8   5550751.77245  24093981.773    24093989.7734
  21734518.459     2716779.104 9   2420278.88547  21734517.906    21734524.5314
  21361820.395   -19491507.737 9 -15174789.11447  21361820.130    21361826.8714
  20483758.077    -4927533.299 9  -3831785.77048  20483757.440    20483764.0644
  24426156.403    -1867566.519 7  -1430619.09645  24426157.124    24426169.7504
  21211097.625   -20822340.390 9 -16200298.66347  21211097.133    21211104.0424
 01  7 19 18 26 30.0000000  0 10 31 17 14 18 26 23 03 15 29 21
  23442705.908    -5848347.825 7  -4539879.21045  23442705.613    23442714.0494
  21356441.957     3083957.318 8   2407925.48547  21356441.473    21356448.5644
  23481661.163    -8158887.114 8  -6322550.91645  23481660.695    23481670.7634
  20503989.894    -9100408.030 9  -7073680.36148  20503989.503    20503994.6014
  24113052.438     7212871.512 7   5628843.05545  24113052.501    24113060.5844
  21745859.402     2776375.958 9   2466717.97547  21745858.855    21745865.4564
  21356104.267   -19521546.104 9 -15198195.63047  21356104.007    21356110.7734
  20489799.490    -4895785.573 9  -3807047.29448  20489798.828    20489805.4584
  24405022.994    -1978625.904 7  -1517158.69345  24405023.234    24405035.8834
  21204276.892   -20858183.198 9 -16228228.10747  21204276.415    21204283.3594
 01  7 19 18 27  0.0000000  0 10 31 17 14 18 26 23 03 15 29 21
  23426441.781    -5933817.339 7  -4606478.76945  23426441.142    23426449.6014
  21366910.427     3138969.457 8   2450792.04447  21366909.956    21366917.1164
  23460520.877    -8269979.067 8  -6409115.88945  23460520.480    23460530.4294
  20510468.739    -9066361.398 9  -7047150.54048  20510468.378    20510473.4794
  24132178.458     7313378.896 7   5707160.46345  24132178.550    24132186.5454
  21757235.328     2836156.373 9   2513300.08747  21757234.760    21757241.3124
  21350494.021   -19551028.081 9 -15221168.59847  21350493.711    21350500.5354
  20495906.826    -4863691.310 9  -3782038.79448  20495906.179    20495912.7864
  24383896.825    -2089645.654 7  -1603667.43245  24383897.019    24383909.3344
  21197511.013   -20893737.865 9 -16255933.03047  21197510.579    21197517.5104
 01  7 19 18 27 30.0000000  0 10 31 17 14 18 26 23 03 15 29 21
  23410245.519    -6018929.135 7  -4672799.57545  23410244.735    23410253.3494
  21377435.865     3194280.950 8   2493891.86247  21377435.389    21377442.5734
  23439409.268    -8380920.337 8  -6495563.46345  23439408.925    23439418.7454
  20517014.098    -9031965.596 9  -7020348.63048  20517013.717    20517018.7934
  24151359.298     7414174.821 7   5785702.65445  24151359.262    24151367.5164
  21768646.073     2896120.033 9   2560024.99047  21768645.500    21768652.0354
  21344990.079   -19579951.217 9 -15243706.10647  21344989.801    21344996.6414
  20502080.366    -4831249.281 9  -3756759.30848  20502079.725    20502086.2934
  24362778.771    -2200622.260 7  -1690142.53945  24362779.019    24362791.0994
  21190800.208   -20929003.455 9 -16283412.69547  21190799.775    21190806.6834
 01  7 19 18 28  0.0000000  0 10 31 17 14 18 26 23 03 15 29 21
  23394117.797    -6103679.305 7  -4738838.64345  23394117.170    23394125.8434
  21388018.539     3249893.112 8   2537225.96647  21388018.043    21388025.2734
  23418327.277    -8491706.890 8  -6581890.42945  23418326.830    23418336.5174
  20523625.891    -8997220.673 9  -6993274.67648  20523625.490    20523630.5204
  24170594.552     7515257.499 7   5864468.30445  24170594.726    24170602.8794
  21780091.589     2956266.635 9   2606892.44247  21780091.007    21780097.5684
  21339593.109   -19608313.078 9 -15265806.25947  21339592.777    21339599.5724
  20508320.371    -4798457.979 9  -3731207.66348  20508319.736    20508326.2814
  24341669.608    -2311552.044 7  -1776581.15845  24341669.773    24341681.8434
  21184144.543   -20963979.000 9 -16310666.35247  21184144.122    21184151.0474
 01  7 19 18 28 30.0000000  0 10 31 17 14 18 26 23 03 15 29 21
  23378058.885    -6188068.354 7  -4804596.27945  23378058.417    23378067.0464
  21398657.806     3305802.686 8   2580791.81747  21398657.348    21398664.5774
  23397274.800    -8602339.052 8  -6668097.14645  23397274.274    23397283.4984
  20530303.158    -8962131.477 9  -6965932.45648  20530302.767    20530307.8014
  24189883.391     7616620.925 7   5943452.70945  24189883.562    24189891.6544
  21791571.102     3016591.765 9   2653899.00847  21791570.539    21791577.1014
  21334302.449   -19636115.580 9 -15287470.54547  21334302.120    21334308.9054
  20514626.276    -4765320.310 9  -3705386.12348  20514625.650    20514632.1914
  24320569.223    -2422435.652 7  -1862983.79945  24320569.270    24320581.3634
  21177543.506   -20998667.624 9 -16337696.43647  21177543.082    21177550.0124
 01  7 19 18 29  0.0000000  0 10 31 17 14 18 26 23 03 15 29 21
  23362069.957    -6272090.805 8  -4870068.25945  23362069.356    23362078.0224
  21409354.252     3362012.661 8   2624591.74547  21409353.803    21409361.0044
  23376252.679    -8712810.973 8  -6754178.97045  23376252.048    23376261.1584
  20537046.233    -8926696.238 9  -6938320.59148  20537045.839    20537050.8824
  24209225.880     7718265.375 7   6022656.06445  24209225.832    24209233.9714
  21803084.938     3077097.129 9   2701046.01747  21803084.389    21803090.9164
  21329119.017   -19663354.363 9 -15308695.56847  21329118.728    21329125.4964
  20520998.757    -4731833.070 9  -3679292.18648  20520998.099    20521004.6054
  24299478.471    -2533267.598 7  -1949346.20945  24299478.651    24299490.9114
  21170997.530   -21033066.841 9 -16364501.00247  21170997.114    21171004.0454
 01  7 19 18 29 30.0000000  0 10 31 17 14 18 26 23 03 15 29 21
  23346151.023    -6355745.476 8  -4935253.68045  23346150.556    23346158.9334
  21420107.633     3418521.775 8   2668624.76347  21420107.158    21420114.4124
  23355261.075    -8823121.132 8  -6840134.76845  23355260.410    23355269.4854
  20543854.700    -8890917.587 9  -6910441.14148  20543854.306    20543859.3324
  24228620.576     7820186.412 7   6102074.95045  24228620.416    24228627.2384
  21814632.464     3137779.885 9   2748331.25147  21814631.934    21814638.4784
  21324042.895   -19690029.686 9 -15329481.53747  21324042.592    21324049.2844
  20527437.451    -4697997.706 9  -3652926.99548  20527436.801    20527443.2894
  24278397.635    -2644046.638 7  -2035667.40645  24278397.856    24278410.2424
  21164506.382   -21067178.067 9 -16391081.16647  21164505.997    21164512.8804
 01  7 19 18 30  0.0000000  0 10 31 17 14 18 26 23 03 15 29 21
  23330302.553    -6439030.009 8  -5000150.68445  23330302.058    23330310.3494
  21430917.756     3475329.281 8   2712890.30247  21430917.285    21430924.5834
  23334300.628    -8933267.621 8  -6925963.05445  23334300.020    23334309.0634
  20550728.125    -8854797.764 9  -6882295.83748  20550727.677    20550732.7454
  24248067.433     7922380.484 7   6181706.61045  24248067.911    24248075.2214
  21826213.465     3198638.107 9   2795753.21347  21826212.897    21826219.4484
  21319074.021   -19716141.255 9 -15349828.21647  21319073.752    21319080.4324
  20533942.365    -4663814.363 9  -3626290.64448  20533941.698    20533948.1994
  24257327.221    -2754771.238 7  -2121946.18345  24257327.473    24257339.7244
  21158069.960   -21101002.025 9 -16417437.47947  21158069.513    21158076.3874
 01  7 19 18 30 30.0000000  0 10 31 17 14 18 26 23 03 15 29 21
  23314525.189    -6521941.575 8  -5064757.04445  23314524.490    23314532.7364
  21441784.752     3532435.385 8   2757388.51847  21441784.222    21441791.5814
  23313372.133    -9043247.272 8  -7011661.30745  23313371.529    23313380.3974
  20557666.158    -8818337.942 9  -6853885.60148  20557665.744    20557670.8234
  24267566.047     8024845.276 7   6261549.23545  24267566.324    24267574.2254
  21837827.624     3259670.786 9   2843311.11847  21837827.077    21837833.6384
  21314212.766   -19741687.663 9 -15369734.51047  21314212.478    21314219.1834
  20540513.523    -4629282.622 9  -3599382.81748  20540512.879    20540519.4194
  24236267.038    -2865438.427 7  -2208180.22345  24236267.802    24236279.9134
  21151688.162   -21134538.524 9 -16443569.80147  21151687.741    21151694.6284
 01  7 19 18 31  0.0000000  0 10 31 17 14 18 26 23 03 15 29 21
  23298818.920    -6604477.590 8  -5129070.79745  23298818.504    23298826.6264
  21452708.495     3589840.110 8   2802119.41747  21452707.979    21452715.3534
  23292475.830    -9153057.401 8  -7097227.50945  23292475.235    23292483.8744
  20564668.628    -8781539.780 9  -6825211.72448  20564668.236    20564673.3154
  24287115.269     8127577.634 7   6341600.32245  24287115.380    24287123.6094
  21849474.650     3320876.447 8   2891003.80847  21849474.114    21849480.6804
  21309459.297   -19766667.615 9 -15389199.40547  21309458.979    21309465.6954
  20547151.013    -4594402.469 9  -3572203.49948  20547150.374    20547156.9414
  24215218.752    -2976045.871 7  -2294367.69445  24215219.653    24215231.4704
  21145360.899   -21167788.240 9 -16469478.65847  21145360.502    21145367.4304
 01  7 19 18 31 30.0000000  0 10 31 17 14 18 26 23 03 15 29 21
  23283184.686    -6686635.734 8  -5193090.09445  23283184.357    23283192.4074
  21463689.194     3647543.496 8   2847083.03347  21463688.667    21463696.0054
  23271612.347    -9262694.990 8  -7182659.22946  23271611.689    23271620.4044
  20571735.328    -8744404.151 9  -6796274.89448  20571734.944    20571740.0224
  24306715.186     8230574.838 7   6421857.77045  24306715.201    24306723.3534
  21861154.374     3382253.852 8   2938830.32847  21861153.868    21861160.4624
  21304813.787   -19791079.870 9 -15408221.94847  21304813.494    21304820.2194
  20553854.883    -4559173.440 9  -3544752.33348  20553854.213    20553860.8584
  24194183.357    -3086590.959 7  -2380506.59145  24194183.644    24194195.0314
  21139088.260   -21200751.245 9 -16495164.10347  21139087.854    21139094.8034
 01  7 19 18 32  0.0000000  0 10 31 17 14 18 26 23 03 15 29 21
  23267622.934    -6768414.067 8  -5256813.42045  23267622.430    23267630.4874
  21474726.486     3705544.371 8   2892278.47647  21474725.957    21474733.2574
  23250781.870    -9372158.203 8  -7267955.10845  23250781.300    23250790.0154
  20578865.810    -8706933.421 9  -6767076.93648  20578865.388    20578870.4984
  24326364.639     8333832.978 7   6502318.61245  24326364.748    24326372.7524
  21872866.422     3443800.632 8   2986788.83347  21872865.830    21872872.4574
  21300276.382   -19814924.492 9 -15426802.18547  21300276.016    21300282.6784
  20560624.862    -4523596.749 9  -3517030.25948  20560624.216    20560630.9014
  24173160.080    -3197072.390 7  -2466595.86345  24173159.939    24173170.8814
  21132869.981   -21233428.536 9 -16520626.91347  21132869.549    21132876.5354
 01  7 19 18 32 30.0000000  0 10 31 17 14 18 26 23 03 15 29 21
  23252134.052    -6849809.384 8  -5320238.27945  23252133.433    23252141.4924
  21485820.489     3763843.475 8   2937706.28947  21485819.956    21485827.2524
  23229985.250    -9481443.851 8  -7353112.61546  23229984.837    23229993.5144
  20586059.817    -8669128.480 9  -6737618.55948  20586059.438    20586064.5624
  24346063.251     8437349.898 7   6582981.07545  24346063.351    24346071.4354
  21884610.498     3505516.192 8   3034878.85647  21884609.910    21884616.5644
  21295847.250   -19838199.617 9 -15444938.64847  21295846.892    21295853.5704
  20567461.252    -4487671.364 9  -3489036.47648  20567460.603    20567467.3274
  24152149.439    -3307486.834 7  -2552632.91445  24152148.915    24152159.5384
  21126706.005   -21265820.225 9 -16545867.18347  21126705.566    21126712.5594
 01  7 19 18 33  0.0000000  0 10 31 17 14 18 26 23 03 15 29 21
  23236718.318    -6930819.342 8  -5383362.88145  23236717.775    23236725.6924
  21496971.181     3822440.395 8   2983366.17047  21496970.647    21496977.8994
  23209223.202    -9590549.500 8  -7438129.86746  23209222.709    23209231.2454
  20593317.160    -8630991.195 9  -6707901.20348  20593316.743    20593321.8314
  24365810.735     8541122.360 7   6663842.67345  24365810.680    24365818.7664
  21896386.365     3567398.785 8   3083099.03647  21896385.798    21896392.4774
  21291526.544   -19860904.803 9 -15462631.00047  21291526.183    21291532.9784
  20574363.897    -4451397.658 9  -3460771.27948  20574363.235    20574369.9874
  24131151.389    -3417832.201 7  -2638616.12445  24131150.782    24131161.6404
  21120596.463   -21297926.131 9 -16570884.76147  21120596.006    21120603.0054
 01  7 19 18 33 30.0000000  0 10 31 17 14 18 26 23 03 15 29 21
  23221376.346    -7011442.160 8  -5446185.81045  23221375.836    23221383.6834
  21508178.399     3881334.354 8   3029257.50547  21508177.868    21508185.1524
  23188495.607    -9699472.745 8  -7523004.97446  23188495.149    23188503.7444
  20600637.366    -8592523.213 9  -6677926.16448  20600636.976    20600642.0494
  24385605.842     8645146.861 7   6744900.63945  24385605.966    24385614.1124
  21908193.585     3629446.371 8   3131447.78247  21908193.064    21908199.8124
  21287314.328   -19883039.583 9 -15479878.88047  21287313.999    21287320.8914
  20581332.764    -4414776.134 9  -3432235.05048  20581332.090    20581338.8804
  24110166.543    -3528106.656 7  -2724544.07745  24110166.000    24110177.2714
  21114541.050   -21329747.672 9 -16595680.75747  21114540.548    21114547.5524
 01  7 19 18 34  0.0000000  0 10 31 17 14 18 26 23 03 15 29 21
  23206108.824    -7091673.132 8  -5508703.40845  23206108.385    23206116.1484
  21519442.459     3940527.252 8   3075381.78647  21519441.940    21519449.2544
  23167803.536    -9808208.799 8  -7607734.25346  23167803.234    23167811.8124
  20608020.560    -8553724.306 9  -6647693.26648  20608020.174    20608025.2584
  24405449.093     8749422.346 7   6826154.21345  24405449.040    24405457.0584
  21920032.437     3691659.728 8   3179925.69247  21920031.888    21920038.6724
  21283211.352   -19904600.925 9 -15496679.93347  21283211.030    21283217.8704
  20588368.248    -4377804.743 9  -3403426.19948  20588367.530    20588374.3244
  24089195.771    -3638305.675 7  -2810413.26145  24089195.547    24089207.0554
  21108540.078   -21361282.990 9 -16620253.71947  21108539.582    21108546.5474
 01  7 19 18 34 30.0000000  0 10 31 17 14 18 26 23 03 15 29 21
  23190916.181    -7171510.409 8  -5570914.23745  23190915.883    23190923.4994
  21530763.318     4000018.400 8   3121738.46747  21530762.773    21530770.1024
  23147147.739    -9916755.947 8  -7692316.30446  23147147.264    23147155.8764
  20615466.303    -8514596.713 9  -6617204.24848  20615465.910    20615470.9814
  24425339.289     8853945.592 7   6907600.82445  24425339.179    24425347.3604
  21931902.430     3754036.774 8   3228531.14947  21931901.860    21931908.6764
  21279217.626   -19925588.523 9 -15513033.91647  21279217.314    21279224.0104
  20595470.177    -4340483.888 9  -3374345.04348  20595469.463    20595476.2454
  24068239.834    -3748427.533 7  -2896222.32845  24068240.124    24068251.5974
  21102593.474   -21392532.680 9 -16644604.11547  21102592.999    21102599.8934
 01  7 19 18 35  0.0000000  0 10 31 17 14 18 26 23 03 15 29 21
  23175799.106    -7250951.628 8  -5632816.43645  23175798.618    23175806.2294
  21542140.831     4059807.539 8   3168327.35447  21542140.297    21542147.6674
  23126528.269   -10025111.383 8  -7776748.96146  23126527.888    23126536.5564
  20622974.341    -8475141.928 9  -6586460.27148  20622973.942    20622979.0254
  24445275.963     8958713.409 7   6989237.97845  24445275.977    24445284.3784
  21943803.259     3816576.058 8   3277263.02947  21943802.711    21943809.5704
  21275333.191   -19946001.652 9 -15528940.25447  21275332.863    21275339.5464
  20602638.647    -4302813.635 9  -3344991.62148  20602637.920    20602644.6844
  24047299.374    -3858469.953 7  -2981969.44745  24047299.741    24047311.1194
  21096701.135   -21423497.264 9 -16668732.34947  21096700.648    21096707.4914
 01  7 19 18 35 30.0000000  0 10 31 17 14 18 26 23 03 15 29 21
  23160757.705    -7329994.715 8  -5694408.42245  23160757.172    23160764.8414
  21553574.891     4119894.050 8   3215147.95947  21553574.371    21553581.7994
  23105945.650   -10133272.944 8  -7861030.54446  23105945.288    23105954.0224
  20630544.219    -8435362.009 9  -6555462.94648  20630543.802    20630548.9444
  24465258.552     9063722.470 7   7071063.12845  24465258.714    24465267.0984
  21955734.691     3879275.674 8   3326119.85147  21955734.092    21955740.9594
  21271558.051   -19965839.981 9 -15544398.69547  21271557.737    21271564.3984
  20609873.484    -4264794.555 9  -3315366.39148  20609872.772    20609879.4994
  24026374.274    -3968431.066 7  -3067653.18645  24026374.857    24026385.9264
  21090862.942   -21454177.567 9 -16692639.06247  21090862.420    21090869.2124
 01  7 19 18 36  0.0000000  0 10 31 17 14 18 26 23 03 15 29 21
  23145792.322    -7408637.014 8  -5755688.09445  23145791.951    23145799.7604
  21565065.568     4180278.073 8   3262200.38547  21565065.056    21565072.5604
  23085400.524   -10241237.753 8  -7945158.82246  23085400.200    23085408.9604
  20638175.751    -8395258.060 9  -6524213.13648  20638175.348    20638180.5174
  24485286.825     9168970.049 7   7153074.11045  24485286.838    24485295.1094
  21967696.310     3942134.549 8   3375100.76047  21967695.731    21967702.6474
  21267892.553   -19985102.341 9 -15559408.32747  21267892.234    21267898.9024
  20617174.778    -4226426.293 9  -3285469.07548  20617174.057    20617180.7574
  24005465.609    -4078308.206 7  -3153271.49045  24005465.932    24005476.5644
  21085078.727   -21484573.670 9 -16716324.32247  21085078.234    21085084.9814
 01  7 19 18 36 30.0000000  0  9 31 17 14 18 23 03 15 29 21
  23130904.107    -7486875.490 8  -5816653.08845  23130903.519    23130911.4524
  21576612.950     4240959.558 8   3309484.60947  21576612.392    21576619.9224
  23064893.557   -10349002.611 8  -8029131.28246  23064893.207    23064901.9174
  20645868.620    -8354831.691 9  -6492712.08748  20645868.233    20645873.4154
  21979688.036     4005151.609 8   3424204.93647  21979687.499    21979694.4144
  21264336.773   -20003788.121 9 -15573968.68047  21264336.456    21264343.1274
  20624542.554    -4187708.606 9  -3255299.48047  20624541.827    20624548.4954
  23984573.339    -4188098.598 7  -3238822.17545  23984573.277    23984583.8824
  21079348.551   -21514685.805 9 -16739788.31547  21079348.091    21079354.7954
 01  7 19 18 37  0.0000000  0 10 31 17 14 18 23 09 03 15 29 21
  23116093.671    -7564705.348 8  -5877299.68845  23116092.912    23116101.0074
  21588217.378     4301940.949 8   3357002.51347  21588216.788    21588224.3214
  23044425.484   -10456562.591 8  -8112944.09246  23044425.147    23044433.8474
  20653623.107    -8314081.493 9  -6460958.71248  20653622.744    20653627.9154
  21991710.073     4068328.096 8   3473433.33747  21991709.586    21991716.5074
  24415417.685    -3562075.155 7  -2751436.07645  24415417.367    24415427.8094
  21260891.412   -20021893.905 9 -15588077.09347  21260891.061    21260897.7244
  20631977.269    -4148638.822 9  -3224855.52247  20631976.550    20631983.2274
  23963697.863    -4297797.287 7  -3324301.44445  23963697.818    23963708.4254
  21073672.858   -21544511.772 9 -16763029.31847  21073672.360    21073679.0614
 01  7 19 18 37 30.0000000  0 10 31 17 14 18 23 09 03 15 29 21
  23101359.467    -7642132.594 8  -5937632.58245  23101359.012    23101367.0194
  21599877.288     4363213.743 8   3404747.49347  21599876.716    21599884.2154
  23023995.508   -10563923.245 8  -8196601.58046  23023995.051    23024003.7084
  20661437.481    -8273017.188 9  -6428960.56547  20661437.055    20661442.1864
  22003760.584     4131654.189 8   3522778.31547  22003760.104    22003767.0774
  24403633.045    -3624005.174 7  -2799693.07845  24403632.627    24403642.8964
  21257554.923   -20039427.149 9 -15601739.36347  21257554.571    21257561.2434
  20639477.391    -4109225.306 9  -3194143.71647  20639476.717    20639483.3904
  23942838.354    -4407410.340 7  -3409713.96145  23942838.329    23942849.4744
  21068049.979   -21574060.018 9 -16786053.91547  21068049.503    21068056.2534
 01  7 19 18 38  0.0000000  0 10 31 17 14 18 23 09 03 15 29 21
  23086703.949    -7719147.334 8  -5997644.01046  23086703.578    23086711.6294
  21611593.994     4424784.922 8   3452724.97947  21611593.445    21611600.8694
  23003605.062   -10671074.543 8  -8280095.93046  23003604.666    23003613.3594
  20669312.594    -8231633.357 9  -6396713.44547  20669312.153    20669317.2424
  22015840.699     4195135.748 8   3572244.42547  22015840.261    22015847.2554
  24391911.812    -3685600.425 7  -2847689.27545  24391911.401    24391921.4154
  21254328.947   -20056379.796 9 -15614949.22747  21254328.594    21254335.2644
  20647044.353    -4069460.805 9  -3163158.41847  20647043.679    20647050.3774
  23921997.415    -4516928.066 7  -3495052.18045  23921997.516    23922008.8684
  21062481.257   -21603323.424 9 -16808856.55947  21062480.858    21062487.5904
 01  7 19 18 38 30.0000000  0 10 31 17 14 18 23 09 03 15 29 21
  23072127.399    -7795748.558 8  -6057333.23646  23072126.829    23072134.8794
  21623367.109     4486653.001 8   3500933.80847  21623366.594    21623374.0114
  22983254.848   -10778015.235 8  -8363426.18846  22983254.454    22983263.1614
  20677247.999    -8189932.802 9  -6364219.52447  20677247.539    20677252.6044
  22027949.999     4258769.993 8   3621829.52147  22027949.498    22027956.4424
  24380254.318    -3746859.581 7  -2895423.60945  24380254.001    24380264.1314
  21251213.354   -20072752.532 9 -15627707.21347  21251212.992    21251219.6524
  20654677.820    -4029346.752 9  -3131900.74147  20654677.135    20654683.8824
  23901175.124    -4626349.492 7  -3580315.38145  23901175.260    23901186.6194
  21056966.410   -21632304.113 9 -16831438.90947  21056966.026    21056972.7284
 01  7 19 18 39  0.0000000  0 10 31 17 14 18 23 09 03 15 29 21
  23057629.633    -7871933.945 8  -6116698.42845  23057629.195    23057637.2094
  21635196.773     4548817.748 8   3549373.81947  21635196.245    21635203.6304
  22962945.221   -10884742.595 8  -8446590.21346  22962944.834    22962953.4034
  20685243.423    -8147916.829 9  -6331479.82547  20685242.964    20685248.0084
  22040088.026     4322555.728 8   3671532.65447  22040087.535    22040094.5294
  24368661.815    -3807779.480 8  -2942893.57545  24368661.486    24368671.4394
  21248208.209   -20088544.475 9 -15640012.62847  21248207.842    21248214.5804
  20662377.742    -3988883.469 9  -3100370.94047  20662377.034    20662383.8124
  23880372.001    -4735672.164 8  -3665501.62045  23880372.002    23880383.1184
  21051505.299   -21661002.813 9 -16853801.52347  21051504.876    21051511.5844
 01  7 19 18 39 30.0000000  0 10 31 17 14 18 23 09 03 15 29 21
  23043211.333    -7947702.219 8  -6175738.60546  23043210.907    23043218.9234
  21647082.642     4611277.903 8   3598044.01847  21647082.087    21647089.4404
  22942676.556   -10991255.061 8  -8529586.79846  22942676.147    22942684.5724
  20693298.334    -8105588.188 9  -6298496.48147  20693297.848    20693302.9034
  22052254.503     4386490.583 8   3721351.98847  22052253.982    22052260.9704
  24357134.298    -3868358.053 8  -2990097.56545  24357133.907    24357143.7934
  21245313.410   -20103756.453 9 -15651866.12647  21245313.096    21245319.8334
  20670144.008    -3948071.706 9  -3068569.59547  20670143.297    20670150.0854
  23859588.105    -4844894.606 8  -3750609.74345  23859587.801    23859598.5084
  21046097.632   -21689420.345 9 -16875945.04747  21046097.170    21046103.8704
 01  7 19 18 40  0.0000000  0 10 31 17 14 18 23 09 03 15 29 21
  23028873.315    -8023049.848 8  -6234451.00546  23028872.783    23028880.6794
  21659024.759     4674034.046 8   3646944.84546  21659024.240    21659031.5994
  22922449.520   -11097549.177 8  -8612413.24346  22922448.950    22922457.2354
  20701412.606    -8062947.416 9  -6265269.92347  20701412.121    20701417.1724
  22064449.251     4450574.024 8   3771287.10447  22064448.710    22064455.6504
  24345671.956    -3928591.603 7  -3037032.72345  24345671.603    24345681.6634
  21242529.331   -20118386.993 9 -15663266.55747  21242529.013    21242535.7344
  20677976.712    -3906910.663 9  -3036496.08147  20677976.005    20677982.7734
  23838823.198    -4954013.861 7  -3835637.44745  23838822.847    23838833.4394
  21040743.521   -21717556.278 9 -16897869.14647  21040743.057    21040749.7814
 01  7 19 18 40 30.0000000  0 10 31 17 14 18 23 09 03 15 29 21
  23014615.621    -8097974.270 8  -6292833.64146  23014615.153    23014623.0694
  21671023.237     4737086.143 8   3696076.28546  21671022.703    21671030.0854
  22902264.287   -11203622.205 8  -8695067.42546  22902263.743    22902272.0964
  20709586.009    -8019996.048 9  -6231801.35047  20709585.512    20709590.5774
  22076672.033     4514805.066 8   3821337.22447  22076671.538    22076678.4684
  24334276.091    -3988477.172 7  -3083696.71545  24334275.761    24334285.7324
  21239856.121   -20132434.797 9 -15674212.91147  21239855.844    21239862.5964
  20685876.007    -3865400.070 9  -3004150.20147  20685875.286    20685882.0324
  23818078.242    -5063027.209 7  -3920582.64045  23818077.899    23818088.5674
  21035442.972   -21745410.763 9 -16919573.94647  21035442.506    21035449.2524
 01  7 19 18 41  0.0000000  0 10 31 17 14 18 23 09 03 15 29 21
  23000439.127    -8172472.831 8  -6350884.41846  23000438.488    23000446.4414
  21683077.977     4800434.456 8   3745438.54646  21683077.468    21683084.9284
  22882121.876   -11309470.654 8  -8777546.62046  22882121.277    22882129.6234
  20717818.346    -7976734.892 9  -6198091.38447  20717817.883    20717822.9464
  22088922.837     4579182.598 8   3871501.49347  22088922.257    22088929.1764
  24322947.297    -4048011.299 8  -3130086.85945  24322947.034    24322956.6534
  21237293.998   -20145899.185 9 -15684704.66247  21237293.677    21237300.4354
  20693841.796    -3823539.706 9  -2971531.77247  20693841.092    20693847.8544
  23797353.779    -5171931.752 7  -4005443.06445  23797353.755    23797364.4554
  21030195.915   -21772984.129 9 -16941059.68847  21030195.439    21030202.2414
 01  7 19 18 41 30.0000000  0 10 31 17 14 18 23 09 03 15 29 21
  22986343.901    -8246543.873 8  -6408602.08646  22986343.146    22986351.1354
  21695188.922     4864077.829 8   3795030.71746  21695188.453    21695195.9194
  22862022.455   -11415093.127 8  -8859849.72246  22862021.872    22862030.1814
  20726109.165    -7933166.526 9  -6164142.02847  20726108.693    20726113.7544
  22101200.977     4643704.481 8   3921778.24647  22101200.407    22101207.3084
  24311685.598    -4107191.945 8  -3176201.58145  24311685.440    24311694.8734
  21234842.824   -20158780.494 9 -15694742.06147  21234842.504    21234849.2154
  20701873.981    -3781330.334 9  -2938641.39047  20701873.261    20701880.0664
  23776650.369    -5280726.133 7  -4090217.64745  23776650.588    23776661.3254
  21025002.139   -21800277.523 9 -16962327.27147  21025001.674    21025008.4844
 01  7 19 18 42  0.0000000  0 10 31 17 14 18 23 09 03 15 29 21
  22972330.409    -8320184.520 8  -6465984.37146  22972329.866    22972337.8204
  21707356.173     4928016.510 8   3844853.00246  21707355.670    21707363.1214
  22841966.616   -11520486.253 8  -8941974.12346  22841966.107    22841974.2564
  20734458.214    -7889291.908 9  -6129954.04247  20734457.784    20734462.8364
  22113506.366     4708369.817 8   3972166.78547  22113505.819    22113512.7234
  24300491.798    -4166015.650 8  -3222038.17545  24300491.460    24300500.8104
  21232502.793   -20171077.610 9 -15704324.24147  21232502.454    21232509.1334
  20709972.626    -3738771.714 9  -2905478.86547  20709971.935    20709978.7704
  23755968.700    -5389407.581 7  -4174904.23245  23755968.985    23755979.5364
  21019861.757   -21827290.446 9 -16983376.30147  21019861.293    21019868.0844
 01  7 19 18 42 30.0000000  0 10 31 17 14 18 23 09 03 15 29 21
  22958399.255    -8393392.959 8  -6523029.87046  22958398.741    22958406.6994
  21719579.353     4992249.771 8   3894904.82246  21719578.859    21719586.3924
  22821954.920   -11625647.871 8  -9023918.12246  22821954.360    22821962.4214
  20742865.220    -7845112.956 9  -6095528.91247  20742864.783    20742869.8404
  22125838.859     4773176.996 8   4022665.84847  22125838.291    22125845.1774
  24289366.485    -4224479.845 8  -3267594.61245  24289366.171    24289375.3144
  21230273.840   -20182790.508 9 -15713451.18947  21230273.587    21230280.2454
  20718137.634    -3695864.354 9  -2872044.59347  20718136.952    20718143.8024
  23735309.542    -5497973.797 7  -4259501.03545  23735309.427    23735319.7554
  21014774.643   -21854023.733 9 -17004207.43447  21014774.145    21014780.9124
 01  7 19 18 43  0.0000000  0 10 31 17 14 18 23 09 03 15 29 21
  22944551.100    -8466166.859 8  -6579736.76046  22944550.309    22944558.2514
  21731858.526     5056777.191 8   3945185.86746  21731858.058    21731865.6404
  22801987.619   -11730575.603 8  -9105679.87946  22801987.193    22801995.1034
  20751329.794    -7800631.504 9  -6060868.06447  20751329.373    20751334.4074
  22138197.972     4838124.596 8   4073274.33147  22138197.405    22138204.3654
  24278309.933    -4282582.056 7  -3312868.98845  24278309.597    24278318.8834
  21228156.224   -20193918.769 9 -15722122.57647  21228155.943    21228162.5894
  20726369.008    -3652608.542 9  -2838338.80247  20726368.314    20726375.1464
  23714672.268    -5606422.825 7  -4344006.49245  23714672.074    23714682.3184
  21009740.510   -21880478.288 9 -17024821.36947  21009740.010    21009746.7484
 01  7 19 18 43 30.0000000  0 10 31 17 14 18 23 09 03 15 29 21
  22930785.837    -8538502.941 8  -6636102.52046  22930785.208    22930793.0334
  21744193.855     5121599.598 8   3995696.76646  21744193.368    21744200.9844
  22782065.712   -11835265.818 8  -9187256.54046  22782065.205    22782073.1784
  20759851.889    -7755847.825 9  -6025971.71747  20759851.454    20759856.4614
  22150583.740     4903212.294 8   4123991.98147  22150583.220    22150590.1584
  24267322.734    -4340318.393 7  -3357858.29445  24267322.532    24267332.0084
  21226150.104   -20204461.119 9 -15730337.41247  21226149.832    21226156.4874
  20734666.870    -3609003.383 9  -2804360.79447  20734666.139    20734672.9714
  23694057.988    -5714751.355 8  -4428418.11245  23694057.676    23694067.8424
  21004759.505   -21906653.522 9 -17045217.65547  21004759.018    21004765.7874
 01  7 19 18 44  0.0000000  0 10 31 17 14 18 23 09 03 15 29 21
  22917104.390    -8610399.728 8  -6692125.94446  22917103.699    22917111.3574
  21756585.128     5186715.643 8   4046436.48446  21756584.630    21756592.2054
  22762189.348   -11939716.448 8  -9268646.52746  22762188.885    22762196.7354
  20768430.970    -7710764.382 9  -5990841.78547  20768430.584    20768435.5794
  22162995.915     4968438.111 8   4174817.24947  22162995.337    22163002.2674
  24256405.793    -4397686.730 7  -3402560.81945  24256405.450    24256414.9464
  21224255.385   -20214417.743 9 -15738095.83047  21224255.134    21224261.8394
  20743031.024    -3565049.421 9  -2770110.98747  20743030.289    20743037.1634
  23673466.586    -5822957.583 7  -4512734.45045  23673466.391    23673476.5884
  20999831.489   -21932550.264 9 -17065396.93147  20999831.030    20999837.8154
 01  7 19 18 44 30.0000000  0 10 31 17 14 18 23 09 03 15 29 21
  22903507.008    -8681854.445 8  -6747804.91446  22903506.352    22903513.9164
  21769032.328     5252125.802 8   4097405.37446  21769031.813    21769039.4614
  22742359.136   -12043924.691 8  -9349847.63646  22742358.643    22742366.4174
  20777066.990    -7665382.254 9  -5955479.11047  20777066.566    20777071.5614
  22175434.097     5033800.981 8   4225749.31447  22175433.517    22175440.4164
  24245559.569    -4454683.885 7  -3446974.12245  24245559.338    24245568.2224
  21222472.352   -20223787.824 9 -15745397.20847  21222472.068    21222478.7874
  20751461.617    -3520746.457 9  -2735589.23147  20751460.902    20751467.7644
  23652899.152    -5931038.835 7  -4596953.39045  23652898.810    23652909.1424
  20994956.510   -21958168.730 9 -17085359.37447  20994956.014    20994962.7724
 01  7 19 18 45  0.0000000  0 10 31 17 14 18 23 09 03 15 29 21
  22889994.110    -8752864.638 8  -6803137.51046  22889993.507    22890001.0694
  21781535.385     5317829.761 8   4148603.22046  21781534.887    21781542.6004
  22722575.481   -12147887.700 8  -9430857.64446  22722575.008    22722582.7474
  20785759.543    -7619702.668 9  -5919884.65447  20785759.128    20785764.1164
  22187898.153     5099299.982 8   4276787.46047  22187897.608    22187904.5184
  24234784.676    -4511306.625 7  -3491095.64245  24234784.279    24234793.1804
  21220800.986   -20232570.995 9 -15752241.25347  21220800.715    21220807.3804
  20759958.600    -3476094.447 9  -2700795.48747  20759957.910    20759964.7804
  23632356.091    -6038992.611 7  -4681073.03045  23632355.811    23632365.8364
  20990134.438   -21983508.984 9 -17105105.02547  20990133.943    20990140.6874
 01  7 19 18 45 30.0000000  0 10 31 17 14 18 23 09 03 15 29 21
  22876566.225    -8823428.296 8  -6858122.14146  22876565.604    22876573.2054
  21794094.302     5383827.034 8   4200029.59646  21794093.802    21794101.5334
  22702839.023   -12251603.072 8  -9511674.68246  22702838.542    22702846.3374
  20794508.381    -7573727.474 9  -5884059.85547  20794507.952    20794512.9644
  22200387.875     5164933.581 8   4327930.49147  22200387.302    22200394.1494
  24224081.299    -4567552.366 7  -3534923.45045  24224080.888    24224090.0554
  21219241.311   -20240767.212 9 -15758627.92847  21219241.045    21219247.7084
  20768521.991    -3431093.717 9  -2665730.01847  20768521.322    20768528.1604
  23611837.887    -6146816.616 8  -4765091.53245  23611837.445    23611847.3594
  20985365.180   -22008571.745 9 -17124634.44947  20985364.704    20985371.4204
 01  7 19 18 46  0.0000000  0 10 31 17 14 18 23 09 03 15 29 21
  22863223.701    -8893542.599 8  -6912756.61646  22863223.190    22863230.9544
  21806709.064     5450117.720 8   4251684.61646  21806708.580    21806716.2624
  22683150.231   -12355067.898 8  -9592296.51346  22683149.832    22683157.4914
  20803313.260    -7527457.762 9  -5848005.55947  20803312.826    20803317.8254
  22212903.005     5230700.832 8   4379177.66047  22212902.448    22212909.2804
  24213450.046    -4623418.126 7  -3578455.14145  24213449.648    24213459.2194
  21217793.539   -20248375.384 9 -15764556.38647  21217793.267    21217799.9794
  20777151.809    -3385744.072 9  -2630392.66947  20777151.097    20777157.8974
  23591344.623    -6254508.338 7  -4849006.97445  23591344.302    23591353.9944
  20980648.634   -22033357.412 9 -17143947.95347  20980648.160    20980654.8704
 01  7 19 18 46 30.0000000  0 10 31 17 14 18 23 09 03 15 29 21
  22849966.977    -8963205.367 8  -6967039.26546  22849966.747    22849974.5054
  21819379.639     5516701.645 8   4303568.13346  21819379.148    21819386.7624
  22663509.670   -12458279.239 8  -9672720.78546  22663509.289    22663517.0354
  20812173.865    -7480894.947 9  -5811722.87247  20812173.432    20812178.4564
  22225443.390     5296600.623 8   4430528.11147  22225442.826    22225449.6334
  24202892.204    -4678900.822 7  -3621688.35345  24202891.847    24202901.0134
  21216457.668   -20255395.308 9 -15770026.47047  21216457.402    21216464.1594
  20785848.084    -3340045.217 9  -2594783.20647  20785847.367    20785854.1474
  23570877.041    -6362065.137 7  -4932817.27445  23570876.773    23570886.4254
  20975984.803   -22057865.918 9 -17163045.49247  20975984.318    20975991.0494
 01  7 19 18 47  0.0000000  0 10 31 17 14 18 23 09 03 15 29 21
  22836797.061    -9032414.842 8  -7020968.68646  22836796.535    22836804.4194
  21832105.782     5583577.745 8   4355679.31746  21832105.278    21832112.9074
  22643917.819   -12561235.390 8  -9752946.24846  22643917.422    22643925.0134
  20821089.833    -7434041.164 9  -5775213.45547  20821089.420    20821094.4444
  22238008.531     5362630.908 8   4481980.24247  22238007.957    22238014.7884
  24192407.525    -4733998.338 7  -3664621.35245  24192407.165    24192415.9864
  21215233.674   -20261827.470 9 -15775038.56047  21215233.400    21215240.1424
  20794610.557    -3293998.286 9  -2558902.51647  20794609.831    20794616.6044
  23550435.088    -6469485.254 7  -5016521.07445  23550435.104    23550444.8324
  20971373.518   -22082098.361 9 -17181927.91547  20971373.050    20971379.7374
 01  7 19 18 47 30.0000000  0 10 31 17 14 18 23 09 03 15 29 21
  22823713.582    -9101168.129 8  -7074542.64346  22823713.212    22823721.0784
  21844887.638     5650746.385 8   4408018.45446  21844887.159    21844894.7524
  22624375.060   -12663932.900 8  -9832970.14746  22624374.632    22624382.2454
  20830061.055    -7386897.296 9  -5738478.00147  20830060.639    20830065.6564
  22250598.404     5428791.156 8   4533533.63747  22250597.872    22250604.6914
  24181996.383    -4788707.271 7  -3707251.64645  24181996.333    24182005.2534
  21214121.804   -20267670.684 9 -15779591.73647  21214121.529    21214128.2514
  20803439.322    -3247602.741 9  -2522750.18647  20803438.609    20803445.4224
  23530019.902    -6576765.798 7  -5100116.11145  23530019.917    23530029.9404
  20966814.820   -22106054.466 9 -17200595.00847  20966814.346    20966821.0204
 01  7 19 18 48  0.0000000  0 10 31 17 14 18 23 09 03 15 29 21
  22810717.502    -9169463.551 8  -7127759.82146  22810717.059    22810724.8304
  21857724.984     5718206.680 8   4460584.85546  21857724.462    21857732.0834
  22604881.851   -12766369.818 8  -9912790.99846  22604881.436    22604889.0644
  20839087.057    -7339465.389 9  -5701518.09847  20839086.650    20839091.6544
  22263212.721     5495079.632 8   4585186.95647  22263212.159    22263218.9964
  24171659.582    -4843025.251 7  -3749577.28045  24171659.639    24171669.3334
  21213121.895   -20272925.528 9 -15783686.43347  21213121.601    21213128.3184
  20812334.355    -3200859.168 9  -2486326.65647  20812333.641    20812340.4944
  23509632.020    -6683904.911 8  -5183600.96345  23509631.871    23509642.0704
  20962308.489   -22129735.411 9 -17219047.69047  20962307.996    20962314.6874
 01  7 19 18 48 30.0000000  0 10 31 17 14 18 23 09 03 15 29 21
  22797808.971    -9237298.887 8  -7180618.48746  22797808.366    22797816.2114
  21870617.748     5785958.088 8   4513378.09246  21870617.197    21870624.7634
  22585438.744   -12868543.530 8  -9992406.76446  22585438.327    22585445.9354
  20848167.558    -7291747.160 9  -5664335.08947  20848167.134    20848172.1244
  22275851.171     5561494.917 8   4636939.08647  22275850.569    22275857.4224
  24161398.146    -4896949.787 7  -3791596.31745  24161398.171    24161407.7414
  21212233.916   -20277592.072 9 -15787322.72047  21212233.606    21212240.3274
  20821295.587    -3153768.018 9  -2449632.30047  20821294.867    20821301.6974
  23489271.519    -6790900.285 8  -5266973.80645  23489271.256    23489281.4064
  20957854.427   -22153141.780 9 -17237286.42447  20957853.959    20957860.6594
 01  7 19 18 49  0.0000000  0 10 31 17 14 18 23 09 03 15 29 21
  22784988.174    -9304671.364 8  -7233116.48246  22784987.771    22784995.6654
  21883565.879     5854001.173 8   4566398.60746  21883565.383    21883572.9384
  22566046.385   -12970450.862 8 -10071814.95746  22566045.922    22566053.5604
  20857302.415    -7243743.236 9  -5626929.46247  20857302.000    20857306.9894
  22288513.645     5628036.700 8   4688789.79747  22288513.083    22288519.9414
  24151212.429    -4950477.300 7  -3833306.02045  24151212.194    24151221.5564
  21211458.178   -20281668.977 9 -15790499.54547  21211457.863    21211464.5914
  20830323.092    -3106328.552 9  -2412666.51947  20830322.368    20830329.2014
  23468938.784    -6897748.979 8  -5350232.33945  23468938.542    23468948.5964
  20953452.723   -22176272.837 9 -17255310.62047  20953452.257    20953458.9564
 01  7 19 18 49 30.0000000  0 10 31 17 14 18 23 09 03 15 29 21
  22772255.989    -9371579.616 8  -7285252.76046  22772255.616    22772263.4054
  21896569.416     5922334.587 8   4619645.35046  21896568.891    21896576.4424
  22546704.874   -13072090.034 8 -10151014.19246  22546704.452    22546712.1544
  20866491.170    -7195456.146 9  -5589303.18947  20866490.739    20866495.6934
  22301199.859     5694702.793 8   4740737.36447  22301199.251    22301206.1414
  24141102.311    -5003605.695 7  -3874704.72345  24141102.083    24141111.0794
  21210794.395   -20285157.005 9 -15793217.50947  21210794.083    21210800.8604
  20839416.628    -3058541.581 9  -2375429.95647  20839415.923    20839422.8114
  23448634.139    -7004449.359 8  -5433375.32145  23448634.038    23448643.9744
  20949103.104   -22199130.269 9 -17273121.60847  20949102.638    20949109.3474
 01  7 19 18 50  0.0000000  0 10 31 17 14 18 23 09 03 15 29 21
  22759612.727    -9438020.395 8  -7337024.75946  22759612.318    22759620.1174
  21909628.249     5990959.171 8   4673118.97546  21909627.760    21909635.3924
  22527415.305   -13173457.417 8 -10230001.66046  22527414.736    22527422.4464
  20875733.796    -7146886.058 9  -5551456.38747  20875733.341    20875738.3204
  22313909.585     5761493.037 8   4792781.66347  22313909.042    22313915.9594
  24131068.830    -5056331.404 7  -3915789.62945  24131068.669    24131077.3664
  21210242.847   -20288055.046 9 -15795475.73847  21210242.555    21210249.3204
  20848576.453    -3010406.176 9  -2337921.87847  20848575.761    20848582.7024
  23428358.463    -7110998.026 8  -5516400.10045  23428358.376    23428368.2834
  20944805.712   -22221713.238 9 -17290718.73447  20944805.253    20944811.9854
 01  7 19 18 50 30.0000000  0 10 31 17 14 18 23 09 03 15 29 21
  22747058.721    -9503992.137 8  -7388431.28946  22747058.399    22747066.1084
  21922742.321     6059873.745 8   4726818.57546  21922741.792    21922749.4754
  22508177.607   -13274551.057 8 -10308775.82746  22508177.093    22508184.7984
  20885029.758    -7098035.245 9  -5513390.84447  20885029.305    20885034.3334
  22326642.701     5828405.618 8   4844921.30447  22326642.147    22326649.0244
  24121112.664    -5108652.388 7  -3956559.14345  24121112.411    24121121.2744
  21209803.558   -20290363.493 9 -15797274.54747  21209803.279    21209810.0524
  20857802.465    -2961923.343 9  -2300143.08547  20857801.754    20857808.7164
  23408112.079    -7217393.281 8  -5599305.33545  23408111.871    23408121.8904
  20940560.279   -22244023.052 9 -17308103.00547  20940559.822    20940566.5844
 01  7 19 18 51  0.0000000  0 10 31 17 14 18 23 09 03 15 29 21
  22734594.623    -9569492.898 8  -7439470.79746  22734593.988    22734601.7204
  21935911.508     6129078.120 8   4780743.99046  21935910.995    21935918.7044
  22488992.493   -13375368.560 8 -10387334.81846  22488992.025    22488999.7054
  20894378.941    -7048905.248 9  -5475107.75847  20894378.463    20894383.5414
  22339398.764     5895439.141 8   4897155.17247  22339398.226    22339405.1584
  24111233.717    -5160566.093 8  -3997011.33445  24111233.550    24111242.6824
  21209476.496   -20292082.591 9 -15798614.12047  21209476.205    21209482.9664
  20867094.606    -2913093.428 9  -2262093.84047  20867093.852    20867100.7944
  23387895.340    -7323632.882 8  -5682089.29945  23387895.167    23387905.2254
  20936366.803   -22266060.114 9 -17325274.74347  20936366.355    20936373.0684
 01  7 19 18 51 30.0000000  0 10 31 17 14 18 23 09 03 15 29 21
  22722220.246    -9634519.431 8  -7490140.79646  22722219.855    22722227.5604
  21949135.913     6198572.400 8   4834895.29046  21949135.389    21949143.1384
  22469860.626   -13475906.504 8 -10465675.96646  22469860.120    22469867.7694
  20903781.030    -6999496.940 9  -5436607.79447  20903780.574    20903785.6264
  22352177.782     5962593.076 8   4949482.86147  22352177.240    22352184.2144
  24101433.083    -5212068.922 8  -4037143.35445  24101432.965    24101441.9884
  21209261.677   -20293211.422 9 -15799493.75247  21209261.394    21209268.1534
  20876452.810    -2863915.938 9  -2223773.75747  20876452.083    20876458.9904
  23367708.770    -7429713.734 8  -5764749.53445  23367708.433    23367718.6594
  20932225.233   -22287824.174 9 -17342233.75347  20932224.782    20932231.4924
 01  7 19 18 52  0.0000000  0 10 31 17 14 18 23 09 03 15 29 21
  22709936.840    -9699069.728 8  -7540439.69646  22709936.349    22709943.9594
  21962415.367     6268356.126 8   4889272.14946  21962414.817    21962422.6534
  22450782.358   -13576162.375 8 -10543797.33146  22450781.957    22450789.5594
  20913235.777    -6949812.024 9  -5397892.29847  20913235.338    20913240.3974
  22364979.509     6029866.198 8   5001903.44147  22364978.927    22364985.9044
  24091711.055    -5263158.500 7  -4076953.33945  24091710.826    24091719.9084
  21209159.264   -20293749.971 9 -15799913.42247  21209158.975    21209165.6354
  20885877.105    -2814391.172 9  -2185183.07247  20885876.369    20885883.2644
  23347552.705    -7535633.707 8  -5847284.44745  23347552.446    23347562.4654
  20928135.543   -22309315.575 9 -17358980.30147  20928135.064    20928141.7754
 01  7 19 18 52 30.0000000  0 10 31 17 14 18 23 09 03 15 29 21
  22697744.211    -9763142.224 8  -7590366.28646  22697743.739    22697751.3664
  21975749.698     6338428.765 8   4943874.13446  21975749.195    21975757.1714
  22431758.320   -13676134.042 8 -10621697.23946  22431757.887    22431765.4334
  20922742.844    -6899852.111 9  -5358962.52447  20922742.367    20922747.4494
  22377803.585     6097257.243 8   5054415.89647  22377803.039    22377809.9984
  24082068.022    -5313832.425 8  -4116439.42145  24082067.722    24082076.9244
  21209169.122   -20293698.593 9 -15799873.40847  21209168.808    21209175.4304
  20895367.374    -2764519.427 9  -2146322.01147  20895366.629    20895373.5064
  23327427.826    -7641390.558 7  -5929692.24945  23327427.538    23327437.2654
  20924097.649   -22330535.172 9 -17375515.05247  20924097.149    20924103.8544
 01  7 19 18 53  0.0000000  0 10 31 17 14 18 23 09 03 15 29 21
  22685642.930    -9826734.166 8  -7639918.42546  22685642.617    22685650.1534
  21989139.129     6408790.435 8   4998701.33246  21989138.576    21989146.6044
  22412789.005   -13775818.310 8 -10699373.19246  22412788.590    22412796.0154
  20932302.122    -6849617.980 9  -5319819.06747  20932301.639    20932306.7134
  22390650.073     6164765.570 8   5107019.74647  22390649.536    22390656.4744
  24072504.851    -5364087.332 8  -4155599.05045  24072504.492    24072513.7914
  21209291.204   -20293056.796 9 -15799373.32747  21209290.904    21209297.6254
  20904923.761    -2714300.258 9  -2107190.23747  20904923.043    20904929.8794
  23307334.218    -7746981.480 8  -6011970.76045  23307334.138    23307343.7644
  20920111.432   -22351482.784 9 -17391837.86747  20920110.949    20920117.6164
 01  7 19 18 53 30.0000000  0 10 31 17 14 18 23 09 03 15 29 21
  22673633.748    -9889843.884 8  -7689094.78146  22673633.200    22673640.7084
  22002583.361     6479440.143 8   5053752.97246  22002582.839    22002590.7844
  22393874.742   -13875213.183 8 -10776823.65546  22393874.333    22393881.6804
  20941913.128    -6799111.851 9  -5280463.66447  20941912.665    20941917.7484
  22403518.428     6232389.240 8   5159713.46947  22403517.877    22403524.8804
  24063021.752    -5413921.365 8  -4194430.69245  24063021.397    24063030.7734
  21209525.536   -20291825.218 9 -15798413.67247  21209525.211    21209532.0544
  20914546.146    -2663734.603 9  -2067788.47247  20914545.431    20914552.2394
  23287272.695    -7852404.555 8  -6094118.45745  23287272.677    23287282.4244
  20916176.784   -22372159.367 9 -17407949.49547  20916176.362    20916183.0414
 01  7 19 18 54  0.0000000  0 10 31 17 14 18 23 09 03 15 29 21
  22661716.532    -9952469.343 8  -7737893.80546  22661715.981    22661723.4424
  22016082.424     6550377.376 8   5109028.64446  22016081.863    22016089.7744
  22375015.952   -13974316.495 8 -10854046.91946  22375015.549    22375022.8194
  20951575.593    -6748335.306 9  -5240897.54747  20951575.156    20951580.2434
  22416408.627     6300127.172 8   5212496.23747  22416408.014    22416415.0474
  24053619.216    -5463331.782 8  -4232932.23645  24053618.926    24053628.2494
  21209872.152   -20290003.703 9 -15796994.33047  21209871.851    21209878.7214
  20924234.349    -2612822.794 9  -2028116.97647  20924233.654    20924240.4554
  23267243.773    -7957657.730 8  -6176133.77645  23267243.702    23267253.4254
  20912293.625   -22392565.549 9 -17423850.41447  20912293.201    20912299.8624
 01  7 19 18 54 30.0000000  0 10 31 17 14 18 23 09 03 15 29 21
  22649891.912   -10014608.240 8  -7786313.69046  22649891.296    22649898.7524
  22029636.152     6621602.093 8   5164528.33946  22029635.611    22029643.4754
  22356213.244   -14073124.951 8 -10931040.43846  22356212.856    22356220.1004
  20961289.290    -6697289.405 9  -5201121.54447  20961288.892    20961293.9784
  22429320.365     6367978.662 8   5265367.47546  22429319.725    22429326.7934
  24044297.712    -5512315.658 8  -4271101.41445  24044297.380    24044306.9464
  21210331.189   -20287591.804 9 -15795114.95547  21210330.883    21210337.7314
  20933988.490    -2561564.670 9  -1988175.62547  20933987.782    20933994.6374
  23247247.636    -8062738.225 8  -6258014.55245  23247247.466    23247257.1024
  20908461.949   -22412701.192 9 -17439540.52847  20908461.503    20908468.1254
 01  7 19 18 55  0.0000000  0 10 31 17 14 18 23 09 03 15 29 21
  22638160.233   -10076258.060 8  -7834352.48846  22638159.738    22638167.2074
  22043244.523     6693114.293 8   5220252.03746  22043244.020    22043251.9114
  22337467.298   -14171635.808 8 -11007802.05446  22337466.824    22337474.0584
  20971054.171    -6645975.038 9  -5161136.34447  20971053.722    20971058.7904
  22442253.398     6435942.946 8   5318326.61646  22442252.912    22442260.0224
  24035058.151    -5560870.093 7  -4308936.00045  24035057.816    24035067.3954
  21210902.570   -20284589.540 9 -15792775.55347  21210902.258    21210909.0334
  20943808.529    -2509960.190 9  -1947964.39347  20943807.824    20943814.7044
  23227284.655    -8167643.303 8  -6339758.63945  23227284.536    23227294.0814
  20904681.649   -22432566.692 9 -17455020.14247  20904681.220    20904687.8544
 01  7 19 18 55 30.0000000  0 10 31 17 14 18 23 09 03 15 29 21
  22626522.081   -10137417.084 8  -7882008.83346  22626521.495    22626529.0184
  22056907.494     6764913.213 8   5276199.16346  22056907.021    22056914.8964
  22318778.294   -14269846.837 8 -11084330.03846  22318777.842    22318785.0994
  20980869.630    -6594394.559 9  -5120943.78147  20980869.167    20980874.2694
  22455207.767     6504018.398 8   5371372.38146  22455207.263    22455214.4194
  24025900.676    -5608992.980 8  -4346434.27645  24025900.375    24025909.6944
  21211586.039   -20280997.706 9 -15789976.73947  21211585.755    21211592.5434
  20953694.384    -2458009.681 9  -1907483.51647  20953693.690    20953700.6074
  23207355.565    -8272371.084 8  -6421364.57745  23207355.452    23207364.9314
  20900952.661   -22452162.666 9 -17470289.72947  20900952.222    20900958.8424
 01  7 19 18 56  0.0000000  0 10 31 17 14 18 23 09 03 15 29 21
  22614977.705   -10198083.590 8  -7929281.40546  22614976.997    22614984.4974
  22070624.846     6836997.967 8   5332369.01246  22070624.384    22070632.2464
  22300146.626   -14367756.090 8 -11160622.89446  22300146.210    22300153.5774
  20990735.456    -6542549.340 9  -5080544.93947  20990735.047    20990740.1154
  22468182.951     6572203.470 8   5424503.55346  22468182.461    22468189.6724
  24016825.860    -5656681.963 7  -4383594.43545  24016825.468    24016834.6654
  21212381.741   -20276816.527 9 -15786718.70547  21212381.464    21212388.2604
  20963645.979    -2405713.852 9  -1866733.57847  20963645.300    20963652.2154
  23187460.637    -8376919.503 8  -6502830.75945  23187460.515    23187469.9104
  20897274.859   -22471489.832 9 -17485349.86147  20897274.398    20897281.0194
 01  7 19 18 56 30.0000000  0 10 31 17 14 18 23 09 03 15 29 21
  22603527.273   -10258254.816 8  -7976168.04646  22603526.764    22603534.2084
  22084396.624     6909368.946 8   5388761.89446  22084396.150    22084404.0834
  22281573.143   -14465360.103 8 -11236677.88546  22281572.698    22281580.1354
  21000651.517    -6490440.232 9  -5039940.46347  21000651.122    21000656.1724
  22481178.947     6640498.003 8   5477720.03246  22481178.474    22481185.7874
  24007834.047    -5703933.611 7  -4420413.81645  24007833.772    24007843.0394
  21213289.776   -20272045.246 9 -15783000.84747  21213289.445    21213296.2124
  20973663.419    -2353072.274 9  -1825714.21047  20973662.725    20973669.6294
  23167600.526    -8481285.633 8  -6584154.88645  23167600.314    23167609.7424
  20893648.231   -22490547.962 9 -17500200.34847  20893647.749    20893654.3934
 01  7 19 18 57  0.0000000  0 10 31 17 14 18 23 09 03 15 29 21
  22592171.741   -10317928.605 8  -8022667.07946  22592171.216    22592178.6304
  22098222.766     6982025.775 8   5445377.51346  22098222.309    22098230.4044
  22263058.239   -14562656.168 8 -11312492.93546  22263057.846    22263065.2484
  21010617.551    -6438068.495 9  -4999131.33847  21010617.152    21010622.2204
  22494195.556     6708901.038 8   5531021.05346  22494195.172    22494202.4854
  23998925.968    -5750745.139 7  -4456890.27045  23998925.839    23998934.8614
  21214309.933   -20266684.113 9 -15778823.37047  21214309.609    21214316.3864
  20983746.604    -2300085.010 9  -1784425.47847  20983745.895    20983752.8224
  23147775.447    -8585466.801 8  -6665334.89646  23147775.199    23147784.6144
  20890072.672   -22509337.567 9 -17514841.60047  20890072.184    20890078.8364
 01  7 19 18 57 30.0000000  0 10 31 17 14 18 23 09 03 15 29 21
  22580911.082   -10377103.242 8  -8068777.16446  22580910.651    22580917.9814
  22112103.191     7054967.775 8   5502215.35846  22112102.750    22112110.9364
  22244602.378   -14659642.373 8 -11388066.52346  22244601.923    22244609.3214
  21020633.195    -6385435.991 9  -4958119.02147  21020632.809    21020637.8884
  22507232.585     6777411.053 8   5584405.44046  22507232.207    22507239.6234
  23990102.257    -5797114.609 7  -4493022.21145  23990101.988    23990110.9584
  21215442.219   -20260733.799 9 -15774186.78247  21215441.915    21215448.6904
  20993895.475    -2246752.587 9  -1742867.78847  20993894.729    20993901.7234
  23127985.947    -8689461.032 8  -6746369.25346  23127985.629    23127995.0444
  20886548.104   -22527859.382 9 -17529274.18347  20886547.614    20886554.2614
 01  7 19 18 58  0.0000000  0 10 31 17 14 18 23 09 03 15 29 21
  22569745.916   -10435777.075 8  -8114497.02646  22569745.440    22569752.6824
  22126037.757     7128194.164 8   5559274.78946  22126037.333    22126045.5074
  22226205.876   -14756316.397 8 -11463396.86446  22226205.438    22226212.8404
  21030698.132    -6332544.259 9  -4916904.71747  21030697.781    21030702.8754
  22520289.839     6846026.737 8   5637872.15646  22520289.378    22520296.7504
  23981362.897    -5843039.918 7  -4528808.10145  23981362.668    23981371.3634
  21216686.668   -20254194.543 9 -15769091.28247  21216686.334    21216693.1134
  21004109.881    -2193075.500 9  -1701041.53347  21004109.158    21004116.1594
  23108232.172    -8793266.408 8  -6827256.43446  23108232.044    23108241.4494
  20883074.351   -22546113.926 9 -17543498.50947  20883073.879    20883080.5314
 01  7 19 18 58 30.0000000  0 10 31 17 14 18 23 09 03 15 29 21
  22558676.386   -10493948.007 8  -8159825.01246  22558675.814    22558683.0664
  22140026.431     7201704.621 8   5616555.56946  22140025.969    22140034.1154
  22207869.354   -14852675.252 8 -11538481.62046  22207868.942    22207876.2874
  21040812.196    -6279394.845 9  -4875489.61647  21040811.799    21040816.9324
  22533366.912     6914747.100 8   5691420.44746  22533366.465    22533373.8704
  23972708.257    -5888518.174 7  -4564245.61545  23972708.051    23972716.9224
  21218043.073   -20247066.549 9 -15763537.02947  21218042.775    21218049.5754
  21014389.910    -2139053.891 9  -1658946.82847  21014389.181    21014396.2214
  23088515.109    -8896880.319 8  -6907994.46046  23088514.984    23088524.2114
  20879651.428   -22564101.563 9 -17557514.85547  20879650.958    20879657.6244
 01  7 19 18 59  0.0000000  0 10 31 17 14 18 23 09 03 15 29 21
  22547703.017   -10551613.584 8  -8204759.21846  22547702.421    22547709.6514
  22154069.129     7275499.161 8   5674057.71346  22154068.647    22154076.8084
  22189593.361   -14948716.192 8 -11613318.64546  22189592.934    22189600.2424
  21050975.080    -6225988.788 9  -4833874.53147  21050974.644    21050979.7924
  22546463.800     6983571.542 8   5745049.83747  22546463.378    22546470.7924
  23964139.592    -5933546.412 7  -4599332.48945  23964139.432    23964148.3844
  21219511.560   -20239349.807 9 -15757524.00947  21219511.238    21219518.0564
  21024735.504    -2084687.718 9  -1616583.62047  21024734.769    21024741.7524
  23068834.912    -9000300.050 8  -6988581.15246  23068834.839    23068844.0544
  20876279.288   -22581822.291 9 -17571323.22047  20876278.793    20876285.4804
 01  7 19 18 59 30.0000000  0 10 31 17 14 18 23 09 03 15 29 21
  22536825.899   -10608772.493 8  -8249298.61046  22536825.391    22536832.6294
  22168165.710     7349576.679 8   5731780.35046  22168165.238    22168173.3634
  22171378.285   -15044437.611 8 -11687906.69146  22171377.764    22171384.9574
  21061186.380    -6172327.780 9  -4792060.78247  21061185.984    21061191.1524
  22559580.256     7052498.258 8   5798758.91447  22559579.758    22559587.1914
  23955657.112    -5978122.844 7  -4634067.25345  23955656.734    23955665.7994
  21221091.769   -20231045.347 9 -15751053.03147  21221091.504    21221098.3174
  21035146.519    -2029977.849 9  -1573952.60747  21035145.781    21035152.7274
  23049191.894    -9103523.963 8  -7069015.24846  23049191.777    23049201.1974
  20872957.749   -22599277.283 9 -17584924.52147  20872957.242    20872963.9444
 01  7 19 19  0  0.0000000  0 10 31 17 14 18 23 09 03 15 29 21
  22526045.797   -10665422.231 8  -8293441.24146  22526045.333    22526052.5844
  22182316.089     7423937.401 8   5789723.66246  22182315.612    22182323.8294
  22153224.404   -15139836.268 8 -11762243.24546  22153223.942    22153231.0614
  21071446.031    -6118412.779 9  -4750049.12147  21071445.692    21071450.8314
  22572715.997     7121527.082 8   5852547.55846  22572715.544    22572722.9714
  23947260.820    -6022244.349 7  -4668447.57545  23947260.488    23947269.6044
  21222784.030   -20222152.459 9 -15744123.52947  21222783.752    21222790.6214
  21045623.005    -1974923.716 9  -1531053.33347  21045622.269    21045629.1914
  23029586.709    -9206548.993 8  -7149294.39246  23029586.639    23029596.1044
  20869686.741   -22616466.361 9 -17598318.61147  20869686.257    20869692.9664
 01  7 19 19  0 30.0000000  0 10 31 17 14 18 23 09 03 15 29 21
  22515362.985   -10721561.244 8  -8337185.88846  22515362.399    22515369.7154
  22196520.306     7498580.401 8   5847886.93446  22196519.809    22196527.9194
  22135132.401   -15234909.977 8 -11836326.58246  22135131.997    22135139.1374
  21081753.760    -6064245.565 9  -4707840.93147  21081753.396    21081758.5344
  22585870.914     7190656.435 8   5906414.54146  22585870.457    22585877.9054
  23938951.718    -6065908.764 7  -4702471.71945  23938951.299    23938960.4754
  21224588.114   -20212672.109 9 -15736736.26747  21224587.854    21224594.7604
  21056164.872    -1919526.211 9  -1487886.49547  21056164.111    21056171.0144
  23010019.917    -9309373.238 8  -7229417.06946  23010019.825    23010029.1324
  20866466.238   -22633389.940 9 -17611505.82347  20866465.786    20866472.5044
 01  7 19 19  1  0.0000000  0 10 31 17 14 18 23 09 03 15 29 21
  22504777.553   -10777187.425 8  -8380530.94746  22504777.127    22504784.4854
  22210778.047     7573505.085 8   5906269.71446  22210777.609    22210785.6794
  22117102.854   -15329656.241 8 -11910154.76946  22117102.349    22117109.4614
  21092109.169    -6009827.712 9  -4665437.43547  21092108.807    21092113.9574
  22599044.751     7259885.225 8   5960358.99746  22599044.287    22599051.7454
  23930730.048    -6109113.849 7  -4736137.94545  23930729.690    23930738.6894
  21226503.915   -20202604.753 9 -15728891.59547  21226503.617    21226510.5404
  21066771.941    -1863785.765 9  -1444452.43347  21066771.238    21066778.1404
  22990491.746    -9411994.588 8  -7309381.64046  22990491.594    22990500.7964
  20863296.168   -22650048.455 9 -17624486.48647  20863295.751    20863302.4954
 01  7 19 19  1 30.0000000  0 10 31 17 14 18 23 09 03 15 29 21
  22494290.300   -10832298.878 8  -8423474.89946  22494289.747    22494297.1414
  22225089.441     7648711.425 8   5964871.94746  22225088.971    22225097.1124
  22099136.025   -15424072.440 8 -11983725.76047  22099135.507    22099142.5734
  21102512.026    -5955160.358 9  -4622839.52147  21102511.665    21102516.8464
  22612237.314     7329212.758 8   6014380.40046  22612236.884    22612244.2954
  23922596.458    -6151856.828 7  -4769444.06645  23922596.072    23922604.9394
  21228531.468   -20191950.310 9 -15720589.45147  21228531.153    21228538.0344
  21077444.369    -1807702.177 9  -1400750.98547  21077443.629    21077450.5404
  22971002.721    -9514410.167 8  -7389185.87246  22971002.456    22971011.6984
  20860176.433   -22666442.635 9 -17637261.18147  20860176.041    20860182.8104
 01  7 19 19  2  0.0000000  0 10 31 17 14 18 23 09 03 15 29 21
  22483901.140   -10886894.232 8  -8466016.71446  22483900.599    22483907.9574
  22239454.171     7724198.129 8   6023692.64946  22239453.726    22239461.8674
  22081232.282   -15518156.716 8 -12057038.11047  22081231.772    22081238.8484
  21112961.999    -5900245.399 9  -4580048.66947  21112961.641    21112966.8444
  22625448.574     7398637.327 8   6068477.41246  22625448.028    22625455.4334
  23914550.879    -6194136.150 7  -4802388.94445  23914550.571    23914559.2944
  21230670.464   -20180709.964 9 -15711830.77447  21230670.183    21230676.9814
  21088181.849    -1751276.458 9  -1356782.95047  21088181.126    21088188.0524
  22951552.909    -9616618.521 8  -7468828.63946  22951552.751    22951561.9434
  20857106.882   -22682573.511 9 -17649830.70147  20857106.456    20857113.2634
 01  7 19 19  2 30.0000000  0 10 31 17 14 18 23 09 03 15 29 21
  22473610.628   -10940970.582 8  -8508154.09846  22473610.134    22473617.5954
  22253872.424     7799966.014 8   6082732.44846  22253871.985    22253880.1724
  22063392.368   -15611905.549 8 -12130089.07847  22063391.872    22063398.9644
  21123459.087    -5845083.094 9  -4537065.08947  21123458.724    21123463.9264
  22638678.232     7468159.219 8   6122650.26046  22638677.659    22638685.0064
  23906594.178    -6235947.891 7  -4834969.44445  23906593.770    23906602.5814
  21232921.194   -20168882.868 9 -15702614.87747  21232920.815    21232927.6154
  21098984.639    -1694507.475 9  -1312547.42547  21098983.927    21098990.9084
  22932143.223    -9718616.047 8  -7548307.10546  22932143.178    22932152.3154
  20854087.587   -22698440.317 9 -17662194.45347  20854087.146    20854093.8944
 01  7 19 19  3  0.0000000  0 10 31 17 14 18 23 09 03 15 29 21
  22463419.292   -10994526.122 8  -8549885.66146  22463418.709    22463426.2374
  22268344.016     7876014.274 8   6141990.72646  22268343.576    22268351.8354
  22045616.690   -15705316.630 8 -12202876.86547  22045616.198    22045623.3324
  21134002.957    -5789675.189 9  -4493890.13347  21134002.514    21134007.6924
  22651926.198     7537777.192 8   6176897.97846  22651925.588    22651932.9664
  23898726.917    -6277290.003 7  -4867183.98545  23898726.586    23898735.2354
  21235283.227   -20156469.843 9 -15692942.41947  21235282.920    21235289.7684
  21109852.558    -1637396.036 9  -1268045.04647  21109851.863    21109858.9174
  22912774.123    -9820400.627 8  -7627619.65946  22912774.117    22912783.1374
  20851118.516   -22714043.436 9 -17674352.72847  20851118.011    20851124.7014
 01  7 19 19  3 30.0000000  0 10 31 17 14 18 23 09 03 15 29 21
  22453327.289   -11047559.181 8  -8591210.09446  22453326.726    22453334.3324
  22282868.678     7952341.878 8   6201466.68446  22282868.271    22282876.6504
  22027905.733   -15798387.811 8 -12275399.79547  22027905.259    22027912.4274
  21144593.159    -5734023.392 9  -4450525.12747  21144592.743    21144597.9254
  22665192.054     7607489.754 8   6231219.40446  22665191.444    22665198.8354
  23890949.469    -6318160.564 7  -4899031.09445  23890949.210    23890957.8784
  21237756.610   -20143471.894 9 -15682814.16947  21237756.297    21237763.1954
  21120785.540    -1579943.040 9  -1223276.51947  21120784.845    21120791.9464
  22893446.062    -9921970.608 8  -7706764.98046  22893445.917    22893454.7474
  20848199.329   -22729384.021 9 -17686306.43547  20848198.792    20848205.4684
 01  7 19 19  4  0.0000000  0 10 31 17 14 18 23 09 03 15 29 21
  22443335.013   -11100068.657 8  -8632126.54546  22443334.453    22443342.1064
  22297446.453     8028947.868 8   6261159.55446  22297445.999    22297454.3884
  22010259.824   -15891117.286 8 -12347656.46447  22010259.365    22010266.4584
  21155229.375    -5678129.834 9  -4406971.73647  21155228.940    21155234.1394
  22678475.670     7677295.395 8   6285613.36346  22678475.038    22678482.3824
  23883262.150    -6358558.128 8  -4930509.64345  23883261.851    23883270.5184
  21240341.116   -20129890.251 9 -15672231.09647  21240340.838    21240347.7224
  21131783.350    -1522149.245 9  -1178242.43747  21131782.661    21131789.8444
  22874159.003   -10023324.053 8  -7785741.57746  22874158.900    22874167.6584
  20845329.883   -22744462.834 9 -17698056.16547  20845329.389    20845336.0654
 01  7 19 19  4 30.0000000  0 10 31 17 14 18 23 09 03 15 29 21
  22433442.865   -11152052.350 8  -8672633.30646  22433442.341    22433449.8634
  22312077.194     8105832.281 8   6321069.36646  22312076.641    22312085.0504
  21992679.387   -15983502.412 8 -12419644.80647  21992678.975    21992686.0464
  21165911.551    -5621995.016 9  -4363230.34947  21165911.055    21165916.2804
  22691776.883     7747193.570 8   6340079.42346  22691776.230    22691783.6004
  23875665.343    -6398479.635 7  -4961617.23045  23875665.001    23875673.6504
  21243036.752   -20115724.633 9 -15661192.97347  21243036.482    21243043.3424
  21142846.115    -1464014.265 9  -1132942.49047  21142845.373    21142852.6034
  22854913.696   -10124458.328 8  -7864547.39546  22854913.563    22854922.3814
  20842510.274   -22759279.915 9 -17709601.94847  20842509.761    20842516.4814
 01  7 19 19  5  0.0000000  0 10 31 17 14 18 23 09 03 15 29 21
  22423650.950   -11203508.746 8  -8712729.17746  22423650.470    22423658.0294
  22326760.725     8182994.407 8   6381195.59246  22326760.205    22326768.5834
  21975165.056   -16075540.810 8 -12491362.98047  21975164.600    21975171.6034
  21176639.258    -5565620.548 9  -4319302.22047  21176638.798    21176644.0124
  22705095.362     7817183.254 8   6394616.79446  22705094.810    22705102.2134
  23868159.439    -6437922.860 7  -4992352.13645  23868159.137    23868167.8094
  21245843.382   -20100975.688 9 -15649700.31647  21245843.139    21245850.0224
  21153973.702    -1405538.692 9  -1087377.15447  21153972.959    21153980.1754
  22835710.501   -10225371.271 8  -7943180.74946  22835710.297    22835719.2284
  20839740.384   -22773835.635 9 -17720944.07847  20839739.928    20839746.6204
 01  7 19 19  5 30.0000000  0 10 31 17 14 18 23 09 03 15 29 21
  22413959.932   -11254435.205 8  -8752412.10646  22413959.469    22413967.0544
  22341497.156     8260434.455 8   6441538.38146  22341496.644    22341505.0394
  21957717.271   -16167228.938 8 -12562808.21247  21957716.849    21957723.7964
  21187412.449    -5509007.130 9  -4275187.90647  21187412.010    21187417.2024
  22718431.351     7887264.270 8   6449225.31246  22718430.778    22718438.2324
  23860745.236    -6476884.722 7  -5022711.99045  23860745.010    23860753.5824
  21248761.211   -20085643.222 9 -15637752.96847  21248760.919    21248767.7724
  21165166.227    -1346721.941 9  -1041545.96447  21165165.491    21165172.6584
  22816550.052   -10326059.448 8  -8021638.96246  22816549.892    22816558.7914
  20837020.364   -22788129.548 9 -17732082.19547  20837019.901    20837026.5834
 01  7 19 19  6  0.0000000  0 10 31 17 14 18 23 09 03 15 29 21
  22404370.033   -11304830.783 8  -8791681.36446  22404369.538    22404377.0854
  22356286.249     8338151.122 8   6502096.69746  22356285.725    22356294.1264
  21940336.466   -16258565.365 8 -12633979.39947  21940336.081    21940342.9904
  21198230.715    -5452156.999 9  -4230889.13247  21198230.270    21198235.4394
  22731784.273     7957434.960 8   6503903.72546  22731783.754    22731791.3164
  23853422.787    -6515363.906 7  -5052695.72145  23853422.519    23853431.2424
  21251789.729   -20069728.678 9 -15625352.05547  21251789.452    21251796.2504
  21176423.359    -1287565.425 9   -995450.02447  21176422.648    21176429.7754
  22797432.565   -10426521.831 8  -8099921.24746  22797432.486    22797441.2574
  20834349.857   -22802163.282 9 -17743017.57947  20834349.380    20834356.0344
 01  7 19 19  6 30.0000000  0 10 31 17 14 18 23 09 03 15 29 21
  22394881.524   -11354693.495 8  -8830535.40146  22394881.106    22394888.5434
  22371127.923     8416144.077 8   6562870.31646  22371127.381    22371135.7494
  21923023.146   -16349547.662 8 -12704874.63747  21923022.727    21923029.5574
  21209093.807    -5395071.090 9  -4186406.64147  21209093.360    21209098.5374
  22745154.222     8027694.662 8   6558651.49846  22745153.738    22745161.3394
  23846192.763    -6553357.685 8  -5082301.20845  23846192.464    23846201.2774
  21254928.884   -20053232.512 9 -15612497.92747  21254928.549    21254935.3554
  21187745.198    -1228069.150 9   -949089.34547  21187744.500    21187751.5844
  22778358.565   -10526755.654 8  -8178025.40746  22778358.461    22778367.3084
  20831728.817   -22815937.219 9 -17753750.52648  20831728.344    20831734.9724
 01  7 19 19  7  0.0000000  0 10 31 17 14 18 23 09 03 15 29 21
  22385494.657   -11404022.214 8  -8868973.33846  22385494.165    22385501.5724
  22386021.865     8494412.427 8   6623858.52646  22386021.340    22386029.7074
  21905777.598   -16440173.757 8 -12775492.30747  21905777.136    21905783.9234
  21220001.430    -5337751.256 9  -4141741.87047  21220000.989    21220006.1714
  22758540.886     8098041.874 8   6613467.45746  22758540.420    22758548.0144
  23839055.516    -6590864.338 8  -5111527.11845  23839055.195    23839064.0174
  21258178.405   -20036155.907 9 -15599191.50847  21258178.129    21258184.9254
  21199131.526    -1168233.933 9   -902464.54747  21199130.777    21199137.8704
  22759328.421   -10626759.039 8  -8255950.03646  22759328.305    22759337.1594
  20829157.098   -22829451.763 9 -17764281.34948  20829156.635    20829163.2494
